[[{"header":{"parameterUnit":"m.s-1","parameterCategory":1,"la1":31.0,"la2":29.5877,"lo1":-88.7671,"lo2":-86.6584,"dy":0.0162,"dx":0.0185,"nx":115,"ny":88,"refTime":"2024-04-23T00:00:00:Z","depth":0,"parameterNumber":2,"parameterNumberName":"U-component_of_WINDS"},"data":[0.0,0.0,0.0,0.0,0.0,0.0,0.0,0.0,0.0,0.0,0.0,0.0,0.0,0.0,0.0,0.0,0.0,0.0,0.0,0.0,0.0,0.0,0.0,0.0,0.0,0.0,0.0,0.0,0.0,0.0,0.0,0.0,0.0,0.0,0.0,0.0,0.0,0.0,0.0,0.0,0.0,0.0,0.0,0.0,0.0,0.0,0.0,0.0,0.0,0.0,0.0,0.0,0.0,0.0,0.0,0.0,0.0,0.0,0.0,0.0,0.0,0.0,0.0,0.0,0.0,0.0,0.0,0.0,0.0,0.0,0.0,0.0,0.0,0.0,0.0,0.0,0.0,0.0,0.0,0.0,0.0,0.0,0.0,0.0,0.0,0.0,0.0,0.0,0.0,0.0,0.0,0.0,0.0,0.0,0.0,0.0,0.0,0.0,0.0,0.0,0.0,0.0,0.0,0.0,0.0,0.0,0.0,0.0,0.0,0.0,0.0,0.0,0.0,0.0,0.0,0.0,0.0,0.0,0.0,0.0,0.0,0.0,0.0,0.0,0.0,0.0,0.0,0.0,0.0,0.0,0.0,0.0,0.0,0.0,0.0,0.0,0.0,0.0,0.0,0.0,0.0,0.0,0.0,0.0,0.0,0.0,0.0,0.0,0.0,0.0,0.0,0.0,0.0,0.0,0.0,0.0,0.0,0.0,0.0,0.0,0.0,0.0,0.0,0.0,0.0,0.0,0.0,0.0,0.0,0.0,0.0,0.0,0.0,0.0,0.0,0.0,0.0,0.0,0.0,0.0,0.0,0.0,0.0,0.0,0.0,0.0,0.0,0.0,0.0,0.0,0.0,0.0,0.0,0.0,0.0,0.0,0.0,0.0,0.0,0.0,0.0,0.0,0.0,0.0,0.0,0.0,0.0,0.0,0.0,0.0,0.0,0.0,0.0,0.0,0.0,0.0,0.0,0.0,0.0,0.0,0.0,0.0,0.0,0.0,0.0,0.0,0.0,0.0,0.0,0.0,0.0,0.0,0.0,0.0,0.0,0.0,0.0,0.0,0.0,0.0,0.0,0.0,0.0,0.0,0.0,0.0,0.0,0.0,0.0,0.0,0.0,0.0,0.0,0.0,0.0,0.0,0.0,0.0,0.0,0.0,0.0,0.0,0.0,0.0,0.0,0.0,0.0,0.0,0.0,0.0,0.0,0.0,0.0,0.0,0.0,0.0,0.0,0.0,0.0,0.0,0.0,0.0,0.0,0.0,0.0,0.0,0.0,0.0,0.0,0.0,0.0,0.0,0.0,0.0,0.0,0.0,0.0,0.0,0.0,0.0,0.0,0.0,0.0,0.0,0.0,0.0,0.0,0.0,0.0,0.0,0.0,0.0,0.0,0.0,0.0,0.0,0.0,0.0,0.0,0.0,0.0,0.0,0.0,0.0,0.0,0.0,0.0,0.0,0.0,0.0,0.0,0.0,0.0,0.0,0.0,0.0,0.0,0.0,0.0,0.0,0.0,0.0,0.0,0.0,0.0,0.0,0.0,0.0,0.0,0.0,0.0,0.0,0.0,0.0,0.0,0.0,0.0,0.0,0.0,0.0,0.0,0.0,0.0,0.0,0.0,0.0,0.0,0.0,0.0,0.0,0.0,0.0,0.0,0.0,0.0,0.0,0.0,0.0,0.0,0.0,0.0,0.0,0.0,0.0,0.0,0.0,0.0,0.0,0.0,0.0,0.0,0.0,0.0,0.0,0.0,0.0,0.0,0.0,0.0,0.0,0.0,0.0,0.0,0.0,0.0,0.0,0.0,0.0,0.0,0.0,0.0,0.0,0.0,0.0,0.0,0.0,0.0,0.0,0.0,0.0,0.0,0.0,0.0,0.0,0.0,0.0,0.0,0.0,0.0,0.0,0.0,0.0,0.0,0.0,0.0,0.0,0.0,0.0,0.0,0.0,0.0,0.0,0.0,0.0,0.0,0.0,0.0,0.0,0.0,0.0,0.0,0.0,0.0,0.0,0.0,0.0,0.0,0.0,0.0,0.0,0.0,0.0,0.0,0.0,0.0,0.0,0.0,0.0,0.0,0.0,0.0,0.0,0.0,0.0,0.0,0.0,0.0,0.0,0.0,0.0,0.0,0.0,0.0,0.0,0.0,0.0,0.0,0.0,0.0,0.0,0.0,0.0,0.0,0.0,0.0,0.0,0.0,0.0,0.0,0.0,0.0,0.0,0.0,0.0,0.0,0.0,0.0,0.0,0.0,0.0,0.0,0.0,0.0,0.0,0.0,0.0,0.0,0.0,0.0,0.0,0.0,0.0,0.0,0.0,0.0,0.0,0.0,0.0,0.0,0.0,0.0,0.0,0.0,0.0,0.0,0.0,0.0,0.0,0.0,0.0,0.0,0.0,0.0,0.0,0.0,0.0,0.0,0.0,0.0,0.0,0.0,0.0,0.0,0.0,0.0,0.0,0.0,0.0,0.0,0.0,0.0,0.0,0.0,0.0,0.0,0.0,0.0,0.0,0.0,0.0,0.0,0.0,0.0,0.0,0.0,0.0,0.0,0.0,0.0,0.0,0.0,0.0,0.0,0.0,0.0,0.0,0.0,0.0,0.0,0.0,0.0,0.0,0.0,0.0,0.0,0.0,0.0,0.0,0.0,0.0,0.0,0.0,0.0,0.0,0.0,0.0,0.0,0.0,0.0,0.0,0.0,0.0,0.0,0.0,0.0,0.0,0.0,0.0,0.0,0.0,0.0,0.0,0.0,0.0,0.0,0.0,0.0,0.0,0.0,0.0,0.0,0.0,0.0,0.0,0.0,0.0,0.0,0.0,0.0,0.0,0.0,0.0,0.0,0.0,0.0,0.0,0.0,0.0,0.0,0.0,0.0,0.0,0.0,0.0,0.0,0.0,0.0,0.0,0.0,0.0,0.0,0.0,0.0,0.0,0.0,0.0,0.0,0.0,0.0,0.0,0.0,0.0,0.0,0.0,0.0,0.0,0.0,0.0,0.0,0.0,0.0,0.0,0.0,0.0,0.0,0.0,0.0,0.0,0.0,0.0,0.0,0.0,0.0,0.0,0.0,0.0,0.0,0.0,0.0,0.0,0.0,0.0,0.0,0.0,0.0,0.0,0.0,0.0,0.0,0.0,0.0,0.0,0.0,0.0,0.0,0.0,0.0,0.0,0.0,0.0,0.0,0.0,0.0,0.0,0.0,0.0,0.0,0.0,0.0,0.0,0.0,0.0,0.0,0.0,0.0,0.0,0.0,0.0,0.0,0.0,0.0,0.0,0.0,0.0,0.0,0.0,0.0,0.0,0.0,0.0,0.0,0.0,0.0,0.0,0.0,0.0,0.0,0.0,0.0,0.0,0.0,0.0,0.0,0.0,0.0,0.0,0.0,0.0,0.0,0.0,0.0,0.0,0.0,0.0,0.0,0.0,0.0,0.0,0.0,0.0,0.0,0.0,0.0,0.0,0.0,0.0,0.0,0.0,0.0,0.0,0.0,0.0,0.0,0.0,0.0,0.0,0.0,0.0,0.0,0.0,0.0,0.0,0.0,0.0,0.0,0.0,0.0,0.0,0.0,0.0,0.0,0.0,0.0,0.0,0.0,0.0,0.0,0.0,0.0,0.0,0.0,0.0,0.0,0.0,0.0,0.0,0.0,0.0,0.0,0.0,0.0,0.0,0.0,0.0,0.0,0.0,0.0,0.0,0.0,0.0,0.0,0.0,0.0,0.0,0.0,0.0,0.0,0.0,0.0,0.0,0.0,0.0,0.0,0.0,0.0,0.0,0.0,0.0,0.0,0.0,0.0,0.0,0.0,0.0,0.0,0.0,0.0,0.0,0.0,0.0,0.0,0.0,0.0,0.0,0.0,0.0,0.0,0.0,0.0,0.0,0.0,0.0,0.0,0.0,0.0,0.0,0.0,0.0,0.0,0.0,0.0,0.0,0.0,0.0,0.0,0.0,0.0,0.0,0.0,0.0,0.0,0.0,0.0,0.0,0.0,0.0,0.0,0.0,0.0,0.0,0.0,0.0,0.0,0.0,0.0,0.0,0.0,0.0,0.0,0.0,0.0,0.0,0.0,0.0,0.0,0.0,0.0,0.0,0.0,0.0,0.0,0.0,0.0,0.0,0.0,0.0,0.0,0.0,0.0,0.0,0.0,0.0,0.0,0.0,0.0,0.0,0.0,0.0,0.0,0.0,0.0,0.0,0.0,0.0,0.0,0.0,0.0,0.0,0.0,0.0,0.0,0.0,0.0,0.0,0.0,0.0,-0.888,0.0,0.0,0.0,0.0,0.0,0.0,0.0,0.0,0.0,0.0,0.0,0.0,0.0,0.0,0.0,0.0,0.0,0.0,0.0,0.0,0.0,0.0,0.0,0.0,0.0,0.0,0.0,0.0,0.0,0.0,0.0,0.0,0.0,0.0,0.0,0.0,0.0,0.0,0.0,0.0,0.0,0.0,0.0,0.0,0.0,0.0,0.0,0.0,0.0,0.0,0.0,0.0,0.0,0.0,0.0,0.0,0.0,0.0,0.0,0.0,0.0,0.0,0.0,0.0,0.0,0.0,0.0,0.0,0.0,0.0,0.0,0.0,0.0,0.0,0.0,0.0,0.0,0.0,0.0,0.0,0.0,0.0,0.0,0.0,0.0,0.0,0.0,0.0,0.0,0.0,0.0,0.0,0.0,0.0,0.0,0.0,0.0,0.0,0.0,0.0,0.0,0.0,0.0,0.0,0.0,0.0,0.0,0.0,0.0,0.0,-0.9536,-0.9399,-0.9022,-0.8852,-0.8914,0.0,0.0,0.0,0.0,0.0,0.0,0.0,0.0,0.0,0.0,0.0,0.0,0.0,0.0,0.0,0.0,0.0,0.0,0.0,0.0,0.0,0.0,0.0,0.0,0.0,0.0,0.0,0.0,0.0,0.0,0.0,0.0,0.0,0.0,0.0,0.0,0.0,0.0,0.0,0.0,0.0,0.0,0.0,0.0,0.0,0.0,0.0,0.0,0.0,0.0,0.0,0.0,0.0,0.0,0.0,0.0,0.0,0.0,0.0,0.0,0.0,0.0,0.0,0.0,0.0,0.0,0.0,0.0,0.0,0.0,0.0,0.0,0.0,0.0,0.0,0.0,0.0,0.0,0.0,0.0,0.0,0.0,0.0,0.0,0.0,0.0,0.0,0.0,0.0,0.0,0.0,0.0,0.0,0.0,0.0,0.0,0.0,0.0,0.0,0.0,0.0,0.0,0.0,0.0,0.0,0.0,0.0,0.0,0.0,0.0,0.0,0.0,-0.9365,-0.9123,-0.9164,0.0,0.0,0.0,0.0,0.0,0.0,0.0,0.0,0.0,0.0,0.0,0.0,0.0,0.0,0.0,0.0,0.0,0.0,0.0,0.0,0.0,0.0,0.0,0.0,0.0,0.0,0.0,0.0,0.0,0.0,0.0,0.0,0.0,0.0,0.0,0.0,0.0,0.0,0.0,0.0,0.0,0.0,0.0,0.0,0.0,0.0,0.0,0.0,0.0,0.0,0.0,0.0,0.0,0.0,0.0,0.0,0.0,0.0,0.0,0.0,0.0,0.0,0.0,0.0,0.0,0.0,0.0,0.0,0.0,0.0,0.0,0.0,0.0,0.0,0.0,0.0,0.0,0.0,0.0,0.0,0.0,0.0,0.0,0.0,0.0,0.0,0.0,0.0,0.0,0.0,0.0,0.0,0.0,0.0,0.0,0.0,0.0,0.0,0.0,0.0,0.0,0.0,0.0,0.0,0.0,0.0,0.0,0.0,0.0,0.0,-0.9982,-1.0987,-1.0568,0.0,-0.995,0.0,0.0,0.0,0.0,0.0,0.0,0.0,0.0,0.0,0.0,0.0,0.0,0.0,0.0,0.0,0.0,0.0,0.0,0.0,0.0,0.0,0.0,0.0,0.0,0.0,0.0,0.0,0.0,0.0,0.0,0.0,0.0,0.0,0.0,0.0,0.0,0.0,0.0,0.0,0.0,0.0,0.0,0.0,0.0,0.0,0.0,0.0,0.0,0.0,0.0,0.0,0.0,0.0,0.0,0.0,0.0,0.0,0.0,0.0,0.0,0.0,0.0,0.0,0.0,0.0,0.0,0.0,0.0,0.0,0.0,0.0,0.0,0.0,0.0,0.0,0.0,0.0,0.0,0.0,0.0,0.0,0.0,0.0,0.0,0.0,0.0,0.0,0.0,0.0,0.0,0.0,0.0,0.0,0.0,0.0,0.0,0.0,0.0,0.0,0.0,0.0,0.0,0.0,0.0,0.0,0.0,0.0,0.0,0.0,0.0,-1.0061,-1.112,-1.0689,-1.0026,0.0,0.0,0.0,0.0,0.0,0.0,0.0,0.0,0.0,0.0,0.0,0.0,0.0,0.0,0.0,0.0,0.0,0.0,0.0,0.0,0.0,0.0,0.0,0.0,0.0,0.0,0.0,0.0,0.0,0.0,0.0,0.0,0.0,0.0,0.0,0.0,0.0,0.0,0.0,0.0,0.0,0.0,0.0,0.0,0.0,0.0,0.0,0.0,0.0,0.0,0.0,0.0,0.0,0.0,0.0,0.0,0.0,0.0,0.0,0.0,0.0,0.0,0.0,0.0,0.0,0.0,0.0,0.0,0.0,0.0,0.0,0.0,0.0,0.0,0.0,0.0,0.0,0.0,0.0,0.0,0.0,0.0,0.0,0.0,0.0,0.0,0.0,0.0,0.0,0.0,0.0,0.0,0.0,0.0,0.0,0.0,0.0,0.0,0.0,0.0,0.0,0.0,0.0,0.0,0.0,0.0,0.0,0.0,0.0,0.0,-1.0475,-1.0665,-1.1479,-1.0573,-0.9667,-0.8931,0.0,0.0,0.0,0.0,0.0,0.0,0.0,0.0,0.0,0.0,0.0,0.0,0.0,0.0,0.0,0.0,0.0,0.0,0.0,0.0,0.0,0.0,0.0,0.0,0.0,0.0,0.0,0.0,0.0,0.0,0.0,0.0,0.0,0.0,0.0,0.0,0.0,0.0,0.0,0.0,0.0,0.0,0.0,0.0,0.0,0.0,0.0,0.0,0.0,0.0,0.0,0.0,0.0,0.0,0.0,0.0,0.0,0.0,0.0,0.0,0.0,0.0,0.0,0.0,0.0,0.0,0.0,0.0,0.0,0.0,0.0,0.0,0.0,0.0,0.0,0.0,0.0,0.0,0.0,0.0,0.0,0.0,0.0,0.0,0.0,0.0,0.0,0.0,0.0,0.0,0.0,0.0,0.0,0.0,0.0,0.0,0.0,0.0,0.0,0.0,0.0,0.0,0.0,0.0,0.0,0.0,0.0,0.0,-1.2796,-1.2156,-1.2127,-1.2665,-1.0386,-0.94,0.0,0.0,0.0,0.0,0.0,0.0,0.0,0.0,0.0,0.0,0.0,0.0,0.0,0.0,0.0,0.0,0.0,0.0,0.0,0.0,0.0,0.0,0.0,0.0,0.0,0.0,0.0,0.0,0.0,0.0,0.0,0.0,0.0,0.0,0.0,0.0,0.0,0.0,0.0,0.0,0.0,0.0,0.0,0.0,0.0,0.0,0.0,0.0,0.0,0.0,0.0,0.0,0.0,0.0,0.0,0.0,0.0,0.0,0.0,0.0,0.0,0.0,0.0,0.0,0.0,0.0,0.0,0.0,0.0,0.0,0.0,0.0,0.0,0.0,0.0,0.0,0.0,0.0,0.0,0.0,0.0,0.0,0.0,0.0,0.0,0.0,0.0,0.0,0.0,0.0,0.0,0.0,0.0,0.0,0.0,0.0,0.0,0.0,0.0,0.0,0.0,0.0,0.0,0.0,0.0,0.0,0.0,0.0,0.0,-1.1173,-1.2,-1.2116,-1.14,-1.1068,-1.0621,0.0,0.0,0.0,0.0,0.0,0.0,0.0,0.0,0.0,0.0,0.0,0.0,0.0,0.0,0.0,0.0,0.0,0.0,0.0,0.0,0.0,0.0,0.0,0.0,0.0,0.0,0.0,0.0,0.0,0.0,0.0,0.0,0.0,0.0,0.0,0.0,0.0,0.0,0.0,0.0,0.0,0.0,0.0,0.0,0.0,0.0,0.0,0.0,0.0,0.0,0.0,0.0,0.0,0.0,0.0,0.0,0.0,0.0,0.0,0.0,0.0,0.0,0.0,0.0,0.0,0.0,0.0,0.0,0.0,0.0,0.0,0.0,0.0,0.0,0.0,0.0,0.0,0.0,0.0,0.0,0.0,0.0,0.0,0.0,0.0,0.0,0.0,0.0,0.0,0.0,0.0,0.0,0.0,0.0,0.0,0.0,0.0,0.0,0.0,0.0,0.0,0.0,0.0,0.0,0.0,0.0,0.0,0.0,0.0,-1.1522,0.0,-1.3173,-1.2215,-1.2084,-1.1435,0.0,0.0,0.0,0.0,0.0,0.0,0.0,0.0,0.0,0.0,0.0,0.0,0.0,0.0,0.0,0.0,0.0,0.0,0.0,0.0,0.0,0.0,0.0,0.0,0.0,0.0,0.0,0.0,0.0,0.0,0.0,0.0,0.0,0.0,0.0,0.0,0.0,0.0,0.0,0.0,0.0,0.0,0.0,0.0,0.0,0.0,0.0,0.0,0.0,0.0,0.0,0.0,0.0,0.0,0.0,0.0,0.0,0.0,0.0,0.0,0.0,0.0,0.0,0.0,0.0,0.0,0.0,0.0,0.0,0.0,0.0,0.0,0.0,0.0,0.0,0.0,0.0,0.0,0.0,0.0,0.0,0.0,0.0,0.0,0.0,0.0,0.0,0.0,0.0,0.0,0.0,0.0,0.0,0.0,0.0,0.0,0.0,0.0,0.0,0.0,0.0,0.0,0.0,0.0,0.0,0.0,0.0,0.0,-1.1423,-1.4293,-1.5128,-1.5487,-1.5539,-1.3438,-1.1685,0.0,0.0,0.0,0.0,0.0,0.0,0.0,0.0,0.0,0.0,0.0,0.0,0.0,0.0,0.0,0.0,0.0,0.0,0.0,0.0,0.0,0.0,0.0,0.0,0.0,0.0,0.0,0.0,0.0,0.0,0.0,0.0,0.0,0.0,0.0,0.0,0.0,0.0,0.0,0.0,0.0,0.0,0.0,0.0,0.0,0.0,0.0,0.0,0.0,0.0,0.0,0.0,0.0,0.0,0.0,0.0,0.0,0.0,0.0,0.0,0.0,0.0,0.0,0.0,0.0,0.0,0.0,0.0,0.0,0.0,0.0,0.0,0.0,0.0,0.0,0.0,0.0,0.0,0.0,0.0,0.0,0.0,0.0,0.0,0.0,0.0,0.0,0.0,0.0,0.0,0.0,0.0,0.0,0.0,0.0,0.0,0.0,0.0,0.0,0.0,0.0,0.0,0.0,0.0,0.0,0.0,0.0,0.0,0.0,-1.3544,-1.5768,-1.7054,-1.7168,-1.4939,-1.3506,0.0,0.0,0.0,0.0,0.0,0.0,0.0,0.0,0.0,0.0,0.0,0.0,0.0,0.0,0.0,0.0,0.0,0.0,0.0,0.0,0.0,0.0,0.0,0.0,0.0,0.0,0.0,0.0,0.0,0.0,0.0,0.0,0.0,0.0,0.0,0.0,0.0,0.0,0.0,0.0,0.0,0.0,0.0,0.0,0.0,0.0,0.0,0.0,0.0,0.0,0.0,0.0,0.0,0.0,0.0,0.0,0.0,0.0,0.0,0.0,0.0,0.0,0.0,0.0,0.0,0.0,0.0,0.0,0.0,0.0,0.0,0.0,0.0,0.0,0.0,0.0,0.0,0.0,0.0,0.0,0.0,0.0,0.0,0.0,0.0,0.0,0.0,0.0,0.0,0.0,0.0,0.0,0.0,0.0,0.0,0.0,0.0,0.0,0.0,0.0,0.0,0.0,0.0,0.0,0.0,0.0,0.0,0.0,0.0,-1.6323,-1.8259,-1.9365,-1.9466,-1.7162,-1.5417,-1.436,0.0,0.0,0.0,0.0,0.0,0.0,0.0,0.0,0.0,0.0,0.0,0.0,0.0,0.0,0.0,0.0,0.0,0.0,0.0,0.0,0.0,0.0,0.0,0.0,0.0,0.0,0.0,0.0,0.0,0.0,0.0,0.0,0.0,0.0,0.0,0.0,0.0,0.0,0.0,0.0,0.0,0.0,0.0,0.0,0.0,0.0,0.0,0.0,0.0,0.0,0.0,0.0,0.0,0.0,0.0,0.0,0.0,0.0,0.0,0.0,0.0,0.0,0.0,0.0,0.0,0.0,0.0,0.0,0.0,0.0,0.0,0.0,0.0,0.0,0.0,0.0,0.0,0.0,0.0,0.0,0.0,0.0,0.0,0.0,0.0,0.0,0.0,0.0,0.0,0.0,0.0,0.0,0.0,0.0,0.0,0.0,0.0,0.0,0.0,0.0,0.0,0.0,0.0,0.0,0.0,0.0,0.0,0.0,-2.1724,-2.231,-2.248,-2.2146,-1.9869,-1.7377,0.0,0.0,0.0,0.0,0.0,0.0,0.0,0.0,0.0,0.0,0.0,0.0,0.0,0.0,0.0,0.0,0.0,0.0,0.0,0.0,0.0,0.0,0.0,0.0,0.0,0.0,0.0,0.0,0.0,0.0,0.0,0.0,0.0,0.0,0.0,0.0,0.0,0.0,0.0,0.0,0.0,0.0,0.0,0.0,0.0,0.0,0.0,0.0,0.0,0.0,0.0,0.0,0.0,0.0,0.0,0.0,0.0,0.0,0.0,0.0,0.0,0.0,0.0,0.0,0.0,0.0,0.0,0.0,0.0,0.0,0.0,0.0,0.0,0.0,0.0,0.0,0.0,0.0,0.0,0.0,0.0,0.0,0.0,0.0,0.0,0.0,0.0,0.0,0.0,0.0,0.0,0.0,0.0,0.0,0.0,0.0,0.0,0.0,0.0,0.0,0.0,0.0,0.0,0.0,0.0,0.0,0.0,0.0,0.0,-2.3583,-2.6188,-2.6864,-2.5427,-2.2091,-1.9098,0.0,0.0,0.0,0.0,0.0,0.0,0.0,0.0,0.0,0.0,0.0,0.0,0.0,0.0,0.0,0.0,0.0,0.0,0.0,0.0,0.0,0.0,0.0,0.0,0.0,0.0,0.0,0.0,0.0,0.0,0.0,0.0,0.0,0.0,0.0,0.0,0.0,0.0,0.0,0.0,0.0,0.0,0.0,0.0,0.0,0.0,0.0,0.0,0.0,0.0,0.0,0.0,0.0,0.0,0.0,0.0,0.0,0.0,0.0,0.0,0.0,0.0,0.0,0.0,0.0,0.0,0.0,0.0,0.0,0.0,0.0,0.0,0.0,0.0,0.0,0.0,0.0,0.0,0.0,0.0,0.0,0.0,0.0,0.0,0.0,0.0,0.0,0.0,0.0,0.0,0.0,0.0,0.0,0.0,0.0,0.0,0.0,0.0,0.0,0.0,0.0,0.0,0.0,0.0,0.0,0.0,0.0,0.0,-2.2365,-2.6112,-2.9062,-2.9904,-2.8457,-2.4972,-2.1573,0.0,0.0,0.0,0.0,0.0,0.0,0.0,0.0,0.0,0.0,0.0,0.0,0.0,0.0,0.0,0.0,0.0,0.0,0.0,0.0,0.0,0.0,0.0,0.0,0.0,0.0,0.0,0.0,0.0,0.0,0.0,0.0,0.0,0.0,0.0,0.0,0.0,0.0,0.0,0.0,0.0,0.0,0.0,0.0,0.0,0.0,0.0,0.0,0.0,0.0,0.0,0.0,0.0,0.0,0.0,0.0,0.0,0.0,0.0,0.0,0.0,0.0,0.0,0.0,0.0,0.0,0.0,0.0,0.0,0.0,0.0,0.0,0.0,0.0,0.0,0.0,0.0,0.0,0.0,0.0,0.0,0.0,0.0,0.0,0.0,0.0,0.0,0.0,0.0,0.0,0.0,0.0,0.0,0.0,0.0,0.0,0.0,0.0,0.0,0.0,0.0,0.0,0.0,0.0,0.0,0.0,0.0,0.0,-2.4317,-2.8559,-3.1062,-3.1866,-3.0901,-2.7918,-2.4211,0.0,0.0,0.0,0.0,0.0,0.0,0.0,0.0,0.0,0.0,0.0,0.0,0.0,0.0,0.0,0.0,0.0,0.0,0.0,0.0,0.0,0.0,0.0,0.0,0.0,0.0,0.0,0.0,0.0,0.0,0.0,0.0,0.0,0.0,0.0,0.0,0.0,0.0,0.0,0.0,0.0,0.0,0.0,0.0,0.0,0.0,0.0,0.0,0.0,0.0,0.0,0.0,0.0,0.0,0.0,0.0,0.0,0.0,0.0,0.0,0.0,0.0,0.0,0.0,0.0,0.0,0.0,0.0,0.0,0.0,0.0,0.0,0.0,0.0,0.0,0.0,0.0,0.0,0.0,0.0,0.0,0.0,0.0,0.0,0.0,0.0,0.0,0.0,0.0,0.0,0.0,0.0,0.0,0.0,0.0,0.0,0.0,0.0,0.0,0.0,0.0,0.0,0.0,0.0,0.0,0.0,0.0,0.0,-2.5049,-2.9,-3.1739,-3.2754,-3.1901,-2.8893,-2.4937,0.0,0.0,0.0,0.0,0.0,0.0,0.0,0.0,0.0,0.0,0.0,0.0,0.0,0.0,0.0,0.0,0.0,0.0,0.0,0.0,0.0,0.0,0.0,0.0,0.0,0.0,0.0,0.0,0.0,0.0,0.0,0.0,0.0,0.0,0.0,0.0,0.0,0.0,0.0,0.0,0.0,0.0,0.0,0.0,0.0,0.0,0.0,0.0,-1.0819,0.0,0.0,0.0,0.0,0.0,0.0,0.0,0.0,0.0,0.0,0.0,0.0,0.0,0.0,0.0,0.0,0.0,0.0,0.0,0.0,0.0,0.0,0.0,0.0,0.0,0.0,0.0,0.0,0.0,0.0,0.0,0.0,0.0,0.0,0.0,0.0,0.0,0.0,0.0,0.0,0.0,0.0,0.0,0.0,0.0,0.0,0.0,0.0,0.0,0.0,0.0,0.0,0.0,0.0,0.0,0.0,0.0,0.0,0.0,-2.6952,-3.0769,-3.2998,-3.3864,-3.327,-3.0389,-2.6392,0.0,0.0,0.0,0.0,0.0,0.0,0.0,0.0,0.0,0.0,0.0,0.0,0.0,0.0,0.0,0.0,0.0,0.0,0.0,0.0,0.0,0.0,0.0,0.0,0.0,0.0,0.0,0.0,0.0,0.0,0.0,0.0,0.0,0.0,0.0,0.0,0.0,0.0,0.0,0.0,0.0,0.0,0.0,0.0,0.0,0.0,0.0,0.0,0.0,0.0,0.0,0.0,0.0,0.0,0.0,0.0,0.0,0.0,0.0,0.0,0.0,0.0,0.0,0.0,0.0,0.0,0.0,0.0,0.0,0.0,0.0,0.0,0.0,0.0,0.0,0.0,0.0,0.0,0.0,0.0,0.0,0.0,0.0,0.0,0.0,0.0,0.0,0.0,0.0,0.0,0.0,0.0,0.0,0.0,0.0,0.0,0.0,0.0,0.0,0.0,0.0,0.0,0.0,0.0,0.0,0.0,0.0,-2.5147,-2.8576,-3.2505,-3.4015,-3.4612,-3.4385,-3.1674,-2.7848,-2.2965,0.0,0.0,0.0,0.0,0.0,0.0,0.0,0.0,0.0,0.0,0.0,0.0,0.0,0.0,0.0,0.0,0.0,0.0,0.0,0.0,0.0,0.0,0.0,0.0,0.0,0.0,0.0,0.0,0.0,0.0,0.0,0.0,0.0,0.0,0.0,0.0,0.0,0.0,-1.3997,-1.4946,0.0,0.0,0.0,0.0,0.0,0.0,0.0,0.0,-1.2722,0.0,0.0,0.0,0.0,0.0,0.0,0.0,0.0,0.0,0.0,0.0,0.0,0.0,0.0,0.0,0.0,0.0,0.0,0.0,0.0,0.0,0.0,0.0,0.0,0.0,0.0,0.0,0.0,0.0,0.0,0.0,0.0,0.0,0.0,0.0,0.0,0.0,0.0,0.0,0.0,0.0,0.0,0.0,0.0,0.0,0.0,0.0,0.0,0.0,0.0,0.0,0.0,0.0,0.0,0.0,0.0,-2.2316,-2.4371,-2.7549,-3.1918,-3.3211,-3.3747,-3.3535,-3.132,-2.8069,-2.373,0.0,0.0,0.0,0.0,0.0,0.0,0.0,0.0,0.0,0.0,0.0,0.0,0.0,0.0,0.0,0.0,0.0,0.0,0.0,0.0,0.0,0.0,0.0,0.0,0.0,0.0,0.0,0.0,0.0,0.0,0.0,0.0,0.0,0.0,0.0,0.0,0.0,0.0,0.0,-1.776,-1.8945,0.0,0.0,0.0,0.0,0.0,0.0,0.0,0.0,-1.4523,0.0,0.0,0.0,0.0,0.0,0.0,0.0,0.0,0.0,0.0,0.0,0.0,0.0,0.0,0.0,0.0,0.0,0.0,0.0,0.0,0.0,0.0,0.0,0.0,0.0,0.0,0.0,0.0,0.0,0.0,0.0,0.0,0.0,0.0,0.0,0.0,0.0,0.0,0.0,0.0,0.0,0.0,0.0,0.0,0.0,0.0,0.0,0.0,0.0,0.0,0.0,0.0,0.0,0.0,0.0,-2.3082,-2.6267,-2.9647,-3.3123,-3.3994,-3.4482,-3.4627,-3.2148,-2.8576,0.0,0.0,0.0,0.0,0.0,0.0,0.0,0.0,0.0,0.0,0.0,0.0,0.0,0.0,0.0,0.0,0.0,0.0,0.0,0.0,0.0,0.0,0.0,0.0,0.0,0.0,0.0,0.0,0.0,0.0,0.0,0.0,0.0,0.0,0.0,0.0,0.0,0.0,0.0,0.0,-1.8643,-1.9597,-1.9923,0.0,0.0,0.0,0.0,0.0,0.0,-1.7103,-1.7193,0.0,0.0,0.0,0.0,0.0,0.0,0.0,0.0,0.0,0.0,0.0,0.0,0.0,0.0,0.0,0.0,0.0,0.0,0.0,0.0,0.0,0.0,0.0,0.0,0.0,0.0,0.0,0.0,0.0,0.0,0.0,0.0,0.0,0.0,0.0,0.0,0.0,0.0,0.0,0.0,0.0,0.0,0.0,0.0,0.0,0.0,0.0,0.0,0.0,0.0,0.0,0.0,0.0,0.0,0.0,-2.3831,-2.7994,-3.1487,-3.4132,-3.4659,-3.5113,-3.5555,-3.2893,-2.8975,0.0,0.0,0.0,0.0,0.0,0.0,0.0,0.0,0.0,0.0,0.0,0.0,0.0,0.0,0.0,0.0,0.0,0.0,0.0,0.0,0.0,0.0,0.0,0.0,0.0,0.0,0.0,0.0,0.0,0.0,0.0,0.0,0.0,0.0,0.0,0.0,0.0,0.0,0.0,0.0,0.0,-2.0541,-2.1687,-2.112,0.0,0.0,0.0,0.0,-1.8189,-1.9673,0.0,0.0,0.0,0.0,0.0,0.0,0.0,0.0,0.0,0.0,0.0,0.0,0.0,0.0,0.0,0.0,0.0,0.0,0.0,0.0,0.0,0.0,0.0,0.0,0.0,0.0,0.0,0.0,0.0,0.0,0.0,0.0,0.0,0.0,0.0,0.0,0.0,0.0,0.0,0.0,0.0,0.0,0.0,0.0,0.0,0.0,0.0,0.0,0.0,0.0,0.0,0.0,0.0,0.0,0.0,0.0,-2.3808,-2.7175,-3.0391,-3.3281,-3.3817,-3.4253,-3.4688,-3.2514,-2.892,0.0,0.0,0.0,0.0,0.0,0.0,0.0,0.0,0.0,0.0,0.0,0.0,0.0,0.0,0.0,0.0,0.0,0.0,0.0,0.0,0.0,0.0,0.0,0.0,0.0,0.0,0.0,0.0,0.0,0.0,0.0,0.0,0.0,0.0,0.0,0.0,0.0,0.0,0.0,0.0,0.0,-2.4417,-2.3859,-2.3087,-2.2721,0.0,0.0,-2.2666,-2.357,-2.3995,0.0,0.0,0.0,0.0,0.0,0.0,0.0,0.0,0.0,0.0,0.0,0.0,0.0,0.0,0.0,0.0,0.0,0.0,0.0,0.0,0.0,0.0,0.0,0.0,0.0,0.0,0.0,0.0,0.0,0.0,0.0,0.0,0.0,0.0,0.0,0.0,0.0,0.0,0.0,0.0,0.0,0.0,0.0,0.0,0.0,0.0,0.0,0.0,0.0,0.0,0.0,0.0,0.0,0.0,0.0,-2.1739,-2.4016,-2.7876,-3.1066,-3.3417,-3.3855,-3.3986,-3.393,-3.2703,-2.9218,0.0,0.0,0.0,0.0,0.0,0.0,0.0,0.0,0.0,0.0,0.0,0.0,0.0,0.0,0.0,0.0,0.0,0.0,0.0,0.0,0.0,0.0,0.0,0.0,0.0,0.0,0.0,0.0,0.0,0.0,0.0,0.0,0.0,0.0,0.0,0.0,0.0,0.0,0.0,0.0,0.0,0.0,-2.7581,-2.7435,0.0,0.0,0.0,-2.6512,-2.5245,0.0,0.0,0.0,0.0,0.0,0.0,0.0,0.0,0.0,0.0,0.0,0.0,0.0,0.0,0.0,0.0,0.0,0.0,0.0,0.0,0.0,0.0,0.0,0.0,0.0,0.0,0.0,0.0,0.0,0.0,0.0,0.0,0.0,0.0,0.0,0.0,0.0,0.0,0.0,0.0,0.0,0.0,0.0,0.0,0.0,0.0,0.0,0.0,0.0,0.0,0.0,0.0,0.0,0.0,0.0,0.0,0.0,-2.4163,-2.8559,-3.1801,-3.3661,-3.3985,-3.3971,-3.3705,-3.2945,0.0,0.0,0.0,0.0,0.0,0.0,0.0,0.0,0.0,0.0,0.0,0.0,0.0,0.0,0.0,0.0,0.0,0.0,0.0,0.0,0.0,0.0,0.0,0.0,0.0,0.0,0.0,-1.0063,0.0,0.0,0.0,0.0,0.0,0.0,0.0,0.0,0.0,0.0,0.0,0.0,0.0,0.0,-2.8038,-2.9859,-3.0337,-3.0254,0.0,0.0,-2.976,-2.7228,-2.7904,-2.7644,0.0,0.0,0.0,0.0,0.0,0.0,0.0,0.0,0.0,0.0,0.0,0.0,0.0,0.0,0.0,0.0,0.0,0.0,0.0,0.0,0.0,0.0,0.0,0.0,0.0,0.0,0.0,0.0,0.0,0.0,0.0,0.0,0.0,0.0,0.0,0.0,0.0,0.0,0.0,0.0,0.0,0.0,0.0,0.0,0.0,0.0,0.0,0.0,0.0,0.0,0.0,0.0,0.0,0.0,0.0,-2.4275,-2.873,-3.2004,-3.3795,-3.4023,-3.4239,-3.4489,-3.3148,-3.0038,0.0,0.0,0.0,0.0,0.0,0.0,0.0,0.0,0.0,0.0,0.0,0.0,0.0,0.0,0.0,0.0,0.0,0.0,0.0,0.0,0.0,0.0,0.0,0.0,0.0,0.0,0.0,0.0,0.0,0.0,0.0,0.0,0.0,0.0,0.0,0.0,0.0,0.0,0.0,0.0,0.0,-2.9167,-2.9027,-2.9902,-3.127,0.0,0.0,-3.1456,-3.1045,-3.1627,-3.1151,-2.8212,0.0,0.0,0.0,0.0,0.0,0.0,0.0,0.0,0.0,0.0,0.0,0.0,0.0,0.0,0.0,0.0,0.0,0.0,0.0,0.0,0.0,0.0,0.0,0.0,0.0,0.0,0.0,0.0,0.0,0.0,0.0,0.0,0.0,0.0,0.0,0.0,0.0,0.0,0.0,0.0,0.0,0.0,0.0,0.0,0.0,0.0,0.0,0.0,0.0,0.0,0.0,0.0,0.0,-2.2715,-2.4417,-2.8986,-3.2206,-3.3931,-3.4197,-3.415,-3.3878,-3.2921,-3.0562,0.0,0.0,0.0,0.0,0.0,0.0,0.0,0.0,0.0,0.0,0.0,0.0,0.0,0.0,0.0,0.0,0.0,0.0,0.0,0.0,0.0,0.0,0.0,0.0,0.0,0.0,0.0,0.0,-1.2752,-1.2925,-1.3901,0.0,0.0,0.0,0.0,0.0,0.0,0.0,0.0,0.0,0.0,-3.2013,-3.2957,-3.3427,0.0,0.0,-3.4424,-3.382,-3.3215,-3.2395,-3.1432,-3.0315,-2.8723,0.0,0.0,0.0,0.0,0.0,0.0,0.0,0.0,0.0,0.0,0.0,0.0,0.0,0.0,0.0,0.0,0.0,0.0,0.0,0.0,0.0,0.0,0.0,0.0,0.0,0.0,0.0,0.0,0.0,0.0,0.0,0.0,0.0,0.0,0.0,0.0,0.0,0.0,0.0,0.0,0.0,0.0,0.0,0.0,0.0,0.0,0.0,0.0,0.0,0.0,0.0,0.0,-2.324,-2.4942,-2.9559,-3.2686,-3.4148,-3.4328,-3.4199,-3.3776,-3.309,-3.1314,0.0,0.0,0.0,0.0,0.0,0.0,0.0,0.0,0.0,0.0,0.0,0.0,0.0,0.0,0.0,0.0,0.0,0.0,0.0,0.0,0.0,0.0,0.0,0.0,0.0,0.0,0.0,0.0,-1.4398,-1.4495,-1.4759,0.0,0.0,0.0,0.0,0.0,0.0,0.0,0.0,0.0,0.0,-3.4052,-3.5481,-3.5875,-3.6006,-3.6092,-3.5971,-3.5585,-3.4758,-3.3275,-3.2133,-3.1858,0.0,0.0,0.0,0.0,0.0,0.0,0.0,0.0,0.0,0.0,0.0,0.0,0.0,0.0,0.0,0.0,0.0,0.0,0.0,0.0,0.0,0.0,0.0,0.0,0.0,0.0,0.0,0.0,0.0,0.0,-1.2181,0.0,0.0,0.0,0.0,0.0,0.0,0.0,0.0,0.0,0.0,0.0,0.0,0.0,0.0,0.0,0.0,0.0,0.0,0.0,0.0,0.0,0.0,-2.4211,-2.6005,-3.0538,-3.3406,-3.4356,-3.4397,-3.4473,-3.4537,-3.386,-3.2325,-2.9882,0.0,0.0,0.0,0.0,0.0,0.0,0.0,0.0,0.0,0.0,0.0,0.0,0.0,0.0,0.0,0.0,0.0,0.0,0.0,0.0,0.0,0.0,0.0,0.0,0.0,0.0,-1.5434,-1.5369,-1.571,0.0,0.0,0.0,0.0,0.0,0.0,0.0,0.0,0.0,0.0,-3.3921,-3.4781,-3.5592,-3.6383,-3.6944,-3.7153,-3.6929,-3.6485,-3.5669,-3.4738,-3.3827,0.0,0.0,0.0,0.0,0.0,0.0,0.0,0.0,0.0,0.0,0.0,0.0,0.0,0.0,0.0,0.0,0.0,0.0,0.0,0.0,0.0,0.0,0.0,0.0,0.0,0.0,0.0,-1.3655,-1.3223,0.0,0.0,0.0,0.0,0.0,0.0,0.0,0.0,0.0,0.0,0.0,-2.9962,-3.0349,0.0,0.0,0.0,0.0,0.0,0.0,0.0,0.0,0.0,0.0,0.0,0.0,-2.4394,-2.6247,-3.0829,-3.3693,-3.4564,-3.4645,-3.4687,-3.4737,-3.3968,-3.2444,-3.0116,0.0,0.0,0.0,0.0,0.0,0.0,0.0,0.0,0.0,0.0,0.0,0.0,0.0,0.0,0.0,0.0,0.0,0.0,0.0,0.0,0.0,0.0,0.0,0.0,0.0,-1.8536,0.0,0.0,0.0,0.0,0.0,0.0,0.0,0.0,0.0,0.0,0.0,-3.3095,-3.3945,-3.5286,-3.6038,-3.5737,-3.6881,-3.7408,0.0,0.0,0.0,0.0,0.0,0.0,0.0,0.0,0.0,0.0,0.0,0.0,0.0,0.0,-2.8865,-2.7039,-2.6276,-2.5888,-2.585,0.0,0.0,0.0,0.0,0.0,0.0,0.0,0.0,0.0,0.0,0.0,0.0,0.0,0.0,-1.765,0.0,-1.627,0.0,0.0,0.0,0.0,0.0,0.0,0.0,0.0,-2.814,-3.111,-3.339,-3.3462,-3.3482,0.0,-3.2439,-3.0322,0.0,0.0,0.0,0.0,0.0,0.0,0.0,0.0,-2.6494,-2.8043,-3.1855,-3.417,-3.4711,-3.478,-3.4781,-3.4781,-3.4017,-3.2898,-3.1413,-2.9518,-2.7402,0.0,0.0,0.0,0.0,0.0,0.0,0.0,0.0,0.0,0.0,0.0,0.0,0.0,0.0,0.0,0.0,0.0,0.0,0.0,0.0,0.0,0.0,0.0,-2.129,0.0,0.0,0.0,0.0,0.0,0.0,0.0,0.0,0.0,-3.1634,-3.3783,-3.5487,-3.5775,-3.6736,-3.7209,-3.664,0.0,0.0,0.0,0.0,0.0,0.0,0.0,-3.6173,-3.6518,-3.5782,-3.5129,-3.5085,-3.4122,-3.3415,-3.3667,0.0,0.0,-3.0464,-2.9418,-2.8795,-2.8757,-2.7827,-2.7165,-2.7713,-2.7209,-2.6737,0.0,0.0,0.0,0.0,0.0,0.0,0.0,0.0,-2.3446,-2.3817,0.0,-2.1381,0.0,0.0,0.0,0.0,0.0,-2.1343,0.0,0.0,-3.2478,-3.4988,-3.5865,-3.5857,-3.5934,-3.595,-3.4376,-3.3583,-3.3318,-2.872,0.0,0.0,0.0,0.0,0.0,0.0,-3.0335,-3.1159,-3.3545,-3.4791,-3.4821,-3.4821,-3.4803,-3.4803,-3.4065,-3.3695,-3.3733,-3.1489,-2.9837,-2.8949,-2.4401,0.0,0.0,0.0,0.0,0.0,0.0,0.0,0.0,0.0,0.0,0.0,0.0,0.0,0.0,0.0,0.0,0.0,0.0,0.0,0.0,-2.2793,0.0,0.0,0.0,0.0,0.0,0.0,0.0,0.0,0.0,0.0,-3.5823,-3.6544,-3.7337,-3.8214,0.0,0.0,0.0,0.0,-3.923,-3.8295,-3.8865,-3.911,-3.8284,-3.7512,-3.7262,-3.8054,0.0,0.0,-3.6687,-3.5353,-3.4513,-3.522,-3.4033,-3.2886,-3.2876,-3.1932,-3.1267,-3.1162,-2.9861,-2.8809,-2.8615,-2.8154,-2.7657,-3.1562,0.0,0.0,0.0,0.0,-2.5014,-2.5375,-2.6107,-2.6066,-2.5879,-2.5571,-2.4559,0.0,0.0,0.0,0.0,0.0,0.0,-2.7506,-3.0404,-3.2779,-3.4908,-3.6787,-3.6289,-3.6359,-3.6847,-3.5343,-3.486,-3.5256,-3.2822,-3.0288,-2.7785,0.0,0.0,0.0,0.0,-3.0429,-3.1416,-3.372,-3.4964,-3.5011,-3.5011,-3.5011,-3.5011,-3.4727,-3.4613,-3.464,-3.3377,-3.2018,-3.0652,-2.8126,0.0,0.0,0.0,0.0,0.0,0.0,0.0,0.0,0.0,0.0,0.0,0.0,0.0,0.0,0.0,0.0,0.0,0.0,0.0,-2.6224,-2.7178,-2.7246,0.0,0.0,0.0,0.0,0.0,0.0,0.0,0.0,0.0,-3.8328,-3.8166,-3.8253,0.0,0.0,-3.9124,-3.9133,-3.9868,-3.9907,-3.8406,0.0,0.0,0.0,-3.8466,-3.8543,-3.8189,-3.7867,-3.7441,-3.6815,-3.6315,-3.5858,-3.5508,-3.4995,-3.464,-3.4504,-3.3272,-3.2103,-3.147,-3.0901,-3.0333,-2.9747,-2.941,-2.911,-3.6071,-3.2345,-3.0552,-2.9754,-2.9654,-2.9513,-2.9935,-3.0687,-3.0612,-3.0527,-3.0302,-2.8604,-2.778,-2.7573,-2.5995,0.0,0.0,0.0,-3.0567,-3.363,-3.4944,-3.635,-3.7664,-3.7345,-3.7406,-3.7823,-3.6596,-3.6245,-3.6729,-3.577,-3.4312,-3.2338,0.0,0.0,-3.0901,-3.2284,-3.3097,-3.3402,-3.4751,-3.5417,-3.5157,-3.5138,-3.5127,-3.5145,-3.5047,-3.5011,-3.5029,-3.4471,-3.3569,-3.2303,-3.0657,-2.8983,0.0,0.0,0.0,0.0,0.0,0.0,0.0,0.0,0.0,0.0,0.0,-1.9389,0.0,0.0,0.0,0.0,-2.4722,-2.7211,-2.912,-3.0033,0.0,0.0,0.0,0.0,0.0,0.0,0.0,-3.6828,-3.7603,-3.8464,-3.9461,-3.9412,-3.9483,-4.0009,-4.0026,-4.0022,-4.0023,0.0,-4.0313,-3.8914,-3.9424,-3.9683,-3.8852,-3.9084,-3.9206,-3.863,-3.819,-3.7815,-3.729,-3.6675,-3.6003,-3.5506,-3.5364,-3.5342,-3.5319,-3.4377,-3.3241,-3.2107,-3.155,-3.1018,-3.0166,-2.9972,-2.9793,-3.9605,-3.855,-3.5409,-3.4008,-3.3978,-3.4615,-3.5342,-3.6101,-3.6001,-3.6449,-3.69,-3.3164,-3.194,-3.2458,-2.8774,0.0,-3.2778,-3.205,-3.3762,-3.7442,-3.8294,-3.8699,-3.8688,-3.8696,-3.8748,-3.8857,-3.7955,-3.7614,-3.7783,-3.7651,-3.767,-3.7754,-3.6093,-3.6074,-3.7603,-3.7547,-3.7167,-3.6415,-3.6329,-3.5966,-3.5219,-3.5208,-3.5215,-3.5182,-3.5082,-3.5029,-3.5084,-3.4964,-3.4567,-3.3799,-3.2382,-3.1226,-3.0304,0.0,0.0,0.0,0.0,0.0,0.0,0.0,0.0,0.0,0.0,0.0,0.0,0.0,0.0,0.0,-2.9196,0.0,-3.1122,-3.1999,0.0,0.0,0.0,-3.64,-3.7196,-3.7996,-3.8482,-3.8501,0.0,0.0,-3.9696,0.0,-4.0794,-4.0788,-4.079,-4.0835,-4.0874,-4.0835,-4.0507,-3.9713,-4.0204,-4.0404,-3.9631,-3.9514,-3.9459,-3.9154,-3.852,-3.7997,-3.7682,-3.6604,-3.5575,-3.5335,-3.5308,-3.5293,-3.5273,-3.5149,-3.4677,-3.2996,-3.2022,-3.1164,-3.0375,-3.0024,-2.9905,-4.1388,-4.0534,-3.902,-3.765,-3.6432,-3.6629,-3.682,-3.7051,-3.6933,-3.7035,-3.7192,-3.6136,-3.5805,-3.5972,-3.5083,-3.5219,-3.6225,-3.6639,-3.7368,-3.8403,-3.9145,-3.952,-3.9482,-3.8961,-3.9033,-3.9578,-3.827,-3.7966,-3.863,-3.801,-3.8056,-3.8712,-3.8312,-3.7981,-3.7688,-3.7687,-3.7553,-3.7371,-3.6823,-3.6097,-3.5231,-3.5245,-3.5253,-3.5182,-3.5127,-3.5084,-3.5084,-3.4955,-3.4832,-3.4679,-3.4281,-3.3698,-3.2934,-3.0021,0.0,0.0,0.0,0.0,0.0,0.0,0.0,0.0,0.0,-2.5155,-2.835,0.0,-2.8762,0.0,-3.0599,-3.235,-3.4489,-3.5476,0.0,0.0,-3.716,-3.7866,-3.803,-3.8811,-3.9311,-3.9321,-4.0024,-4.0497,-4.0453,-4.0615,-4.0707,-4.0655,-4.0726,-4.1029,-4.1583,-4.1158,-4.0739,-4.052,-4.0604,-4.061,-4.0325,-4.0265,-3.9949,-3.924,-3.8969,-3.845,-3.7126,-3.6608,-3.6102,-3.5469,-3.5308,-3.5285,-3.5234,-3.5209,-3.4795,-3.3745,-3.2836,-3.2039,-3.1173,-3.0406,-2.991,-4.2281,-4.1787,-4.0477,-3.8965,-3.7476,-3.814,-3.8461,-3.8493,-3.8365,-3.8354,-3.8391,-3.7983,-3.7624,-3.7297,-3.7411,-3.7689,-3.808,-3.8505,-3.8892,-3.929,-3.9713,-3.987,-3.9829,-3.9488,-3.9571,-4.0041,-3.9176,-3.9051,-3.9562,-3.9131,-3.9167,-3.9672,-3.9672,-3.9433,-3.8967,-3.892,-3.8557,-3.7791,-3.6993,-3.6526,-3.6343,-3.6042,-3.5851,-3.5774,-3.5344,-3.5136,-3.5153,-3.5046,-3.5028,-3.5091,-3.5029,-3.4802,-3.4369,-3.1933,-3.0364,0.0,0.0,0.0,0.0,0.0,0.0,0.0,0.0,0.0,0.0,0.0,-3.1086,0.0,-3.3188,-3.4645,-3.6819,-3.7447,-3.7876,-3.8181,-3.8656,-3.9059,-3.9374,-3.9843,-4.0126,-4.0087,-4.0483,-4.0724,-4.0662,-4.0655,-4.0635,-4.0595,-4.0673,-4.0861,-4.1228,-4.0984,-4.0713,-4.0688,-4.0647,-4.0583,-4.0531,-4.0495,-4.0197,-3.9295,-3.8813,-3.8158,-3.681,-3.6254,-3.5852,-3.5364,-3.5277,-3.5296,-3.5198,-3.4885,-3.4555,-3.43,-3.3097,-3.1922,-3.1305,-3.0505,-2.9912,-4.2601,-4.2438,-4.0731,-3.9191,-3.8004,-3.9286,-3.9575,-3.9107,-3.8885,-3.8987,-3.9356,-3.9026,-3.8477,-3.7783,-3.7954,-3.8419,-3.9042,-3.9004,-3.9355,-4.0017,-4.0007,-3.9994,-3.9933,-4.0076,-4.0186,-4.0358,-4.0272,-4.0346,-4.055,-4.0445,-4.0415,-4.0415,-4.0396,-4.0432,-4.0474,-4.0345,-3.9533,-3.8087,-3.7301,-3.7209,-3.7781,-3.7004,-3.6559,-3.6462,-3.5656,-3.5179,-3.5182,-3.5141,-3.5132,-3.5182,-3.5126,-3.5092,-3.5054,-3.2775,-3.1815,0.0,-2.9838,0.0,0.0,0.0,0.0,0.0,0.0,0.0,0.0,-3.2677,-3.3774,-3.6082,-3.6274,-3.6927,-3.8556,-3.8689,-3.8976,-3.9651,-3.9721,-4.0018,-4.0663,-4.0769,-4.0758,-4.0681,-4.0694,-4.0655,-4.0607,-4.0583,-4.0576,-4.0557,-4.058,-4.0592,-4.0583,-4.0612,-4.0595,-4.0588,-4.0549,-4.0473,-4.0402,-4.0432,-4.0098,-3.9118,-3.8372,-3.751,-3.6462,-3.5753,-3.5272,-3.5201,-3.5209,-3.5245,-3.5201,-3.4544,-3.4282,-3.4826,-3.3166,-3.1588,-3.1302,-3.0521,-2.9889,-4.2601,-4.2438,-4.0731,-3.9785,-3.9507,-3.9821,-3.8089,-3.4984,-3.4264,-3.5103,-3.7157,-3.908,-3.9843,-3.9671,-3.9765,-3.985,-3.9948,-3.9957,-4.0024,-4.0166,-4.0098,-4.0067,-4.0057,-4.0147,-4.0559,-4.1189,-4.0596,-4.0687,-4.1453,-4.0758,-4.0424,-4.0485,-4.0485,-4.0477,-4.0386,0.0,0.0,0.0,-3.8706,-3.8355,-3.78,-3.6966,-3.652,-3.6481,-3.5656,0.0,-3.5182,-3.5126,-3.5126,-3.5193,-3.5126,0.0,0.0,0.0,0.0,0.0,0.0,0.0,0.0,0.0,0.0,0.0,-3.3708,-3.4054,-3.5035,-3.6312,-3.7588,-3.8679,-3.8801,-3.9198,-4.0148,-4.0267,-4.0339,-4.0475,-4.0397,-4.0426,-4.0619,-4.0591,-4.0557,-4.0617,-4.0624,-4.0603,-4.0527,-4.0512,-4.0465,-4.0383,-4.0394,-4.0413,-4.0366,-4.0492,-4.0588,-4.0588,-4.0534,-4.0449,-4.0334,-4.0279,-3.9755,-3.8373,-3.784,-3.7086,-3.5746,-3.5299,-3.5136,-3.5127,-3.5073,-3.5101,-3.5153,-3.4452,-3.4077,-3.4868,-3.3494,-3.2189,-3.2126,-3.0853,-2.9744,-4.2446,0.0,-4.0601,-3.9581,0.0,-3.8403,-3.6594,-3.4066,-3.563,-3.7023,-3.8309,-3.9614,-4.0225,-4.0186,-3.904,-3.8498,-3.8416,-3.7171,-3.7253,-3.8351,-3.8381,-3.9012,-4.0206,-4.0711,-4.0968,-4.0994,-4.1001,-4.1033,-4.1091,-4.0663,-4.0471,-4.0503,-4.0495,-4.0468,-4.0425,-4.0084,-3.9661,-3.9196,-3.8769,-3.8741,-3.9068,-3.7862,-3.7198,-3.7149,0.0,0.0,0.0,0.0,0.0,0.0,0.0,0.0,0.0,0.0,0.0,-3.4879,-3.3324,-3.2635,-3.3168,-3.2931,-3.3352,-3.4806,-3.6212,-3.6849,-3.6472,-3.7615,-3.867,-3.9417,-3.9466,-3.9797,-4.0591,-4.0641,-4.06,-4.0598,-4.0564,-4.0534,-4.0465,-4.04,-4.0392,-4.0487,-4.0503,-4.0487,-4.0419,-4.0377,-4.0325,-4.0224,-4.0225,-4.0253,-4.0233,-4.04,-4.0539,-4.0539,-4.0511,-4.0383,-4.027,-4.0224,-3.9604,-3.8127,-3.7661,-3.6955,-3.5387,-3.5092,-3.5092,-3.5092,-3.5038,-3.502,-3.5018,-3.4372,-3.3986,-3.4519,-3.3525,-3.242,-3.2307,-3.1298,-3.0226,-4.2154,-4.1408,-4.0623,-3.9461,-3.805,-3.7508,-3.6448,-3.5294,0.0,0.0,0.0,-3.9996,-4.0252,-4.0172,-3.825,-3.7348,-3.7221,-3.5184,-3.5283,-3.7154,-3.7236,-3.8358,-4.0325,-4.1116,-4.1217,-4.0751,-4.1229,-4.1234,-4.0727,-4.0593,-4.0496,-4.0496,-4.0496,-4.0439,-4.0296,-4.0276,-3.9949,-3.9315,-3.8704,-3.9089,-4.04,-3.8939,-3.8132,-3.8112,-3.6588,-3.6109,-3.6792,-3.6112,-3.6098,-3.6826,-3.619,-3.6042,-3.6634,-3.5919,-3.5752,-3.6281,-3.5048,-3.4264,-3.4334,-3.4372,-3.476,-3.5662,-3.802,-3.8844,-3.7417,-3.8247,-3.8948,-3.9245,-3.9359,-3.9618,-4.0145,-4.0241,-4.025,-4.0218,-4.0388,-4.0425,-4.0276,-4.0177,-4.0187,-4.0307,-4.0325,-4.0316,-4.0262,-4.0215,-4.0128,-4.006,-4.0039,-4.0048,-4.009,-4.0279,-4.0438,-4.0422,-4.0388,-4.0335,-4.0205,-4.0148,-3.9471,-3.7928,-3.7614,-3.7005,-3.5588,-3.5066,-3.5047,-3.503,-3.4992,-3.4983,-3.4898,-3.4253,-3.3979,-3.4651,-3.3582,-3.243,-3.2241,-3.1742,-3.0913,-4.158,-4.1404,-4.122,-4.0561,-3.9723,-4.0363,-4.0157,-3.9279,-3.7729,-3.7022,-3.7145,-3.9332,-4.0335,-4.0379,-4.0032,-3.9887,-3.9868,-3.9503,-3.9497,0.0,-3.9834,-4.0062,-4.0398,-4.0584,-4.0982,-4.1451,-4.0946,-4.1008,-4.1489,-4.0854,-4.0496,-4.0496,-4.0496,-4.0169,-3.9508,-3.9404,-3.9346,-3.9315,-3.9813,-4.0197,-4.0469,-3.9535,-3.8988,-3.889,-3.8,-3.7578,-3.7704,-3.7537,-3.7535,-3.7717,-3.7621,-3.7537,-3.753,-3.7382,-3.7272,-3.7141,-3.6845,-3.674,-3.677,-3.6703,-3.6834,-3.7272,-3.8495,-3.8932,-3.826,-3.9612,-3.9935,-3.8641,-3.9021,-3.9071,-3.8469,-3.8901,-3.9237,-3.9212,-3.9729,-4.0078,-4.0049,-3.9977,-3.9986,-4.0058,-4.0108,-4.0109,-4.0011,-4.0049,-4.0017,-3.9873,-3.9791,-3.9859,-3.9967,-4.0158,-4.0289,-4.0252,-4.0233,-4.0187,-4.0138,-4.0007,-3.9283,-3.7765,-3.7449,-3.684,-3.523,-3.4946,-3.4927,-3.484,-3.4878,-3.4888,-3.4831,-3.413,-3.4026,-3.4562,-3.387,-3.3028,-3.2279,-3.1885,-3.1352,-4.1915,-4.1464,-4.1367,-4.1404,-4.1508,-4.1921,-4.1714,-4.1024,-4.0349,-3.9729,-3.9287,-3.9992,-4.0602,-4.0905,-3.9177,-3.8385,-3.8385,-3.7009,-3.7117,-3.8343,-3.8439,-3.9169,-4.0433,-4.0968,-4.1149,-4.108,-4.1654,-4.1631,-4.1143,-4.1143,-4.0977,-4.0535,-4.0496,-4.0323,-3.9996,-3.9935,-3.9915,-3.9958,-3.9853,-4.005,-4.0518,-3.9711,-3.9212,-3.9165,-3.8343,-3.8108,-3.8536,-3.8074,-3.8052,-3.8589,-3.8162,-3.8073,-3.8421,-3.8034,-3.785,-3.8019,-3.7551,-3.7235,-3.7141,-3.7559,-3.7902,-3.8223,-3.9191,-3.9496,-3.8848,-4.0062,-4.0299,-3.9107,-3.9282,-3.9049,-3.8124,-3.8646,-3.8991,-3.8852,-3.9473,-3.9878,-3.9837,-3.98,-3.9811,-3.9889,-3.9922,-3.9762,-3.9296,-3.9616,-3.9621,-3.9214,-3.9319,-3.9663,-3.9773,-3.9895,-4.003,-4.0101,-4.0167,-4.0158,-4.0098,-3.9975,-3.921,-3.7694,-3.7377,-3.6606,-3.5217,-3.4868,-3.4868,-3.4809,-3.4797,-3.4728,-3.4699,-3.4356,-3.4296,-3.4366,-3.4306,-3.3502,-3.2395,-3.1374,-3.0429,-4.2402,-4.1762,-4.1913,-4.2265,-4.2686,-4.2766,-4.2374,-4.1815,-4.2605,-4.2676,-4.203,-4.1052,-4.0943,-4.1093,-3.8599,-3.7525,-3.7361,-3.5604,-3.5797,-3.7502,-3.7846,-3.8975,-4.0727,-4.1681,-4.1739,-4.1285,-4.247,-4.2316,-4.1046,-4.1662,-4.1662,-4.0873,-4.0777,-4.0708,-4.0496,-4.0496,-4.0496,-4.0458,-3.9881,-3.9822,-4.0279,-3.9646,-3.9213,-3.8941,-3.8466,-3.8485,-3.906,-3.8646,-3.872,-3.9404,-3.8854,-3.8773,-3.932,-3.8761,-3.8581,-3.8927,-3.8309,-3.7792,-3.7596,-3.8273,-3.8739,-3.8899,-3.9728,-4.001,-3.9558,-4.0218,-4.0304,-3.9469,-3.9202,-3.8817,-3.8017,-3.8206,-3.8558,-3.8537,-3.9147,-3.9554,-3.964,-3.9649,-3.9656,-3.9689,-3.9724,-3.9471,-3.9082,-3.9316,-3.9421,-3.8961,-3.9126,-3.9489,-3.9587,-3.9604,-3.9785,-3.9908,-4.0041,-4.008,-4.0017,-3.9713,-3.8948,-3.7572,-3.7125,-3.63,-3.5185,-3.4838,-3.4809,-3.4728,-3.4666,-3.4594,-3.458,-3.4487,-3.4413,-3.4374,-3.4295,-3.3784,-3.2257,-3.0696,-2.9583,-4.2736,-4.2714,-4.3323,-4.3287,-4.2737,-4.2814,-4.2459,-4.192,-4.2644,-4.3403,-4.3694,-4.2281,-4.1248,-4.0619,-4.0219,-4.0057,-4.0114,-3.9895,-3.9884,-4.0161,-4.0992,-4.147,-4.17,-4.2547,-4.2931,-4.2816,-4.3047,-4.2662,-4.1777,-4.2508,-4.2527,-4.1777,-4.1681,-4.1277,-4.0631,-4.0535,-4.0516,-4.0496,-4.0419,-4.0103,-3.9532,-3.9436,-3.9012,-3.8214,-3.8799,-3.91,-3.9246,-3.9808,-4.0219,-4.0365,-4.0277,-4.0254,-4.0329,-4.0221,-4.0107,-4.0024,-3.9787,-3.9532,-3.9208,-3.9443,-3.9526,-3.9552,-3.9816,-4.0051,-4.008,-4.0358,-3.9896,-3.8828,-3.8456,-3.8099,-3.7138,-3.7065,-3.7353,-3.784,-3.8452,-3.8967,-3.9449,-3.9502,-3.9489,-3.9438,-3.9527,-3.9477,-3.932,-3.9445,-3.9508,-3.9245,-3.9276,-3.9363,-3.9311,-3.9452,-3.9563,-3.9623,-3.977,-3.9859,-3.9724,-3.9075,-3.8395,-3.7459,-3.6594,-3.5781,-3.5028,-3.4747,-3.4739,-3.4594,-3.4561,-3.4539,-3.445,-3.4381,-3.4311,-3.4215,-3.4091,-3.3701,-3.2113,-3.0589,-2.9611,-4.3204,-4.2859,-4.3673,-4.3579,-4.3052,-4.3933,-4.3969,-4.3404,-4.4204,-4.4493,-4.4265,-4.3635,-4.3129,-4.2716,-4.2183,-4.1961,-4.2022,-4.1997,-4.1745,-4.1439,-4.2194,-4.2337,-4.199,-4.2702,-4.3091,-4.3143,-4.3585,-4.3374,-4.2758,-4.2931,-4.2912,-4.2604,-4.2585,-4.2124,-4.1335,-4.1277,-4.1008,-4.0516,-4.0496,-4.0142,-3.9545,-3.9867,-3.9951,-3.9655,-3.9865,-3.9995,-3.9988,-4.0295,-4.0484,-4.0558,-4.0523,-4.0516,-4.0554,-4.0491,-4.037,-4.0215,-3.9998,-3.9837,-3.9712,-3.9735,-3.977,-3.977,-3.9903,-4.0058,-4.0206,-4.0351,-4.0157,-3.9652,-3.9185,-3.8415,-3.7186,-3.7271,-3.7607,-3.7854,-3.8412,-3.9071,-3.9667,-3.9623,-3.9514,-3.9482,-3.9432,-3.9226,-3.8808,-3.8702,-3.8895,-3.9147,-3.9277,-3.9232,-3.917,-3.9277,-3.9343,-3.935,-3.9514,-3.9658,-3.9621,-3.898,-3.8188,-3.7408,-3.6494,-3.5573,-3.4889,-3.4674,-3.4623,-3.4473,-3.4473,-3.4439,-3.4305,-3.4233,-3.4161,-3.4056,-3.3549,-3.3012,-3.1902,-3.0791,-2.9954,-4.4066,-4.3665,-4.4202,-4.4039,-4.3506,-4.4889,-4.5068,-4.4548,-4.5317,-4.5353,-4.4789,-4.4812,-4.4784,-4.453,-4.3532,-4.306,-4.3096,-4.3049,-4.2747,-4.2341,-4.3096,-4.3181,-4.273,-4.3424,-4.3805,-4.3918,-4.4402,-4.4355,-4.3797,-4.3489,-4.3431,-4.3431,-4.3448,-4.2901,-4.1912,-4.1805,-4.1408,-4.0573,-4.0523,-4.0272,-3.9913,-4.0326,-4.0429,-4.0024,-4.0158,-4.0258,-4.0219,-4.0416,-4.0539,-4.0588,-4.0573,-4.0561,-4.0583,-4.0546,-4.0402,-4.0252,-4.008,-3.9967,-3.9994,-3.9922,-3.9911,-3.9943,-4.0026,-4.0078,-4.0196,-4.0299,-4.0396,-4.0342,-3.996,-3.9034,-3.7917,-3.7882,-3.8112,-3.827,-3.872,-3.9234,-3.9853,-3.9778,-3.9599,-3.9496,-3.9425,-3.9199,-3.8631,-3.8506,-3.8723,-3.9112,-3.9183,-3.9142,-3.9087,-3.9133,-3.9156,-3.9188,-3.9311,-3.9439,-3.9519,-3.8658,-3.7898,-3.7209,-3.6276,-3.5158,-3.4644,-3.4599,-3.4517,-3.4386,-3.4393,-3.4335,-3.4209,-3.4124,-3.4049,-3.385,-3.3369,-3.26,-3.1751,-3.0916,-3.0111,-4.5313,-4.5256,-4.5323,-4.4892,-4.4323,-4.5158,-4.507,-4.4476,-4.5329,-4.5645,-4.5583,-4.5595,-4.5645,-4.5481,-4.3937,-4.3143,-4.3143,-4.3242,-4.3188,-4.3166,-4.4032,-4.4433,-4.4454,-4.5179,-4.5549,-4.5346,-4.5362,-4.5421,-4.5306,-4.4643,-4.4239,-4.4267,-4.432,-4.3511,-4.2178,-4.199,-4.147,-4.0723,-4.0592,-4.0586,-4.0597,-4.0655,-3.9972,-3.8806,-3.9116,-3.9578,-3.9602,-4.0198,-4.0588,-4.0588,-4.0605,-4.0588,-4.0581,-4.0534,-4.0433,-4.0325,-4.0243,-4.0187,-4.0186,-4.0108,-4.0077,-4.0087,-4.0147,-4.0186,-4.0187,-4.0272,-4.0318,-4.0325,-4.0251,-3.9849,-3.9184,-3.8544,-3.8493,-3.9061,-3.9168,-3.9466,-4.0031,-3.9948,-3.9687,-3.9489,-3.9406,-3.9304,-3.9266,-3.9245,-3.9085,-3.9132,-3.9142,-3.9073,-3.9021,-3.9026,-3.905,-3.9073,-3.9129,-3.9197,-3.9301,-3.8302,-3.7399,-3.6704,-3.569,-3.4551,-3.4517,-3.4443,-3.4374,-3.434,-3.4328,-3.4269,-3.4136,-3.4049,-3.3959,-3.371,-3.3296,-3.2548,-3.1654,-3.087,-3.0097,-4.541,-4.5467,-4.5476,-4.5331,-4.5175,-4.5453,-4.5402,-4.5241,-4.5541,-4.568,-4.5692,-4.5743,-4.5743,-4.5684,-4.507,-4.4741,-4.4699,-4.4732,-4.4492,-4.4152,-4.4926,-4.5058,-4.4671,-4.5382,-4.5743,-4.5695,-4.5629,-4.5631,-4.5629,-4.5304,-4.5158,-4.5208,-4.5219,-4.4622,-4.3636,-4.2996,-4.2282,-4.1427,-4.0935,-4.0687,-4.0694,-4.0745,-4.0446,-3.994,-4.0151,-4.0275,-4.0236,-4.0531,-4.066,-4.066,-4.0633,-4.0621,-4.0647,-4.0569,-4.0484,-4.0422,-4.037,-4.0335,-4.0308,-4.0215,-4.0148,-4.0148,-4.0177,-4.0196,-4.0215,-4.0263,-4.0319,-4.0344,-4.036,-4.021,-3.9959,-3.9321,-3.8999,-3.9273,-3.9394,-3.9663,-4.013,-4.0177,-3.9938,-3.9679,-3.942,-3.9188,-3.9166,-3.911,-3.9064,-3.9003,-3.9059,-3.9036,-3.8935,-3.8979,-3.9036,-3.8964,-3.9003,-3.9129,-3.9202,-3.7953,-3.6812,-3.6094,-3.5236,-3.4659,-3.4404,-3.4381,-3.4316,-3.4305,-3.4293,-3.4233,-3.4124,-3.3934,-3.3855,-3.3715,-3.325,-3.2619,-3.1576,-3.0979,-3.0198,-4.5495,-4.5541,-4.5522,-4.554,-4.5594,-4.5594,-4.5631,-4.5665,-4.5684,-4.5688,-4.5696,-4.5765,-4.5792,-4.5723,-4.5715,-4.5684,-4.5662,-4.5703,-4.5422,-4.503,-4.5576,-4.5551,-4.5183,-4.5582,-4.5795,-4.5715,-4.5627,-4.5612,-4.5599,-4.5351,-4.5241,-4.5263,-4.531,-4.4882,-4.4145,-4.3755,-4.3079,-4.203,-4.137,-4.1023,-4.0809,-4.0779,-4.0846,-4.0818,-4.0818,-4.0798,-4.072,-4.0733,-4.0707,-4.0694,-4.0694,-4.0674,-4.0707,-4.0619,-4.0554,-4.0508,-4.0194,-4.0164,-4.0319,-4.0059,-3.9928,-4.0205,-4.0234,-4.0215,-4.0243,-4.0272,-4.0337,-4.0379,-4.0405,-4.0411,-4.0338,-3.9988,-3.9764,-3.9846,-3.9913,-4.0116,-4.05,-4.0407,-4.0128,-3.9761,-3.9401,-3.9156,-3.9021,-3.9007,-3.8964,-3.891,-3.8989,-3.8993,-3.8862,-3.8921,-3.8993,-3.8851,-3.8906,-3.8822,-3.8707,-3.7798,-3.7075,-3.6372,-3.5172,-3.4608,-3.4335,-3.43,-3.4288,-3.4269,-3.4233,-3.4166,-3.4043,-3.3868,-3.378,-3.3712,-3.3456,-3.294,-3.205,-3.124,-3.0367,-4.5594,-4.5586,-4.5594,-4.5586,-4.5594,-4.5594,-4.5594,-4.5612,-4.5687,-4.5688,-4.5715,-4.5773,-4.5795,-4.5781,-4.5739,-4.5731,-4.5788,-4.5805,-4.5761,-4.5705,-4.5886,-4.5929,-4.5814,-4.5848,-4.5845,-4.5773,-4.5654,-4.5603,-4.5601,-4.4925,-4.4537,-4.4514,-4.4616,-4.4348,-4.3342,-4.4054,-4.361,-4.2367,-4.1951,-4.155,-4.0903,-4.0863,-4.0913,-4.0898,-4.0917,-4.0874,-4.0806,-4.08,-4.0788,-4.0745,-4.0758,-4.0777,-4.0713,-4.0617,-4.0622,-4.0361,-3.9696,-3.9653,-4.0205,-3.9597,-3.9506,-3.9974,-4.0214,-4.0109,-3.9955,-4.009,-4.0202,-4.023,-4.037,-4.0433,-4.0503,-4.05,-4.0545,-4.0754,-4.0685,-4.0752,-4.0734,-4.0609,-4.0272,-3.9757,-3.9439,-3.9237,-3.9064,-3.8993,-3.895,-3.8925,-3.8935,-3.8935,-3.8822,-3.8862,-3.8862,-3.8822,-3.88,-3.8744,-3.8284,-3.7766,-3.7368,-3.6807,-3.5429,-3.4475,-3.4308,-3.4228,-3.4197,-3.4197,-3.4173,-3.4105,-3.403,-3.3868,-3.3753,-3.3648,-3.3432,-3.3093,-3.2183,-3.1247,-3.0402,-4.564,-4.5594,-4.5594,-4.5594,-4.5594,-4.5594,-4.5594,-4.5603,-4.5668,-4.5688,-4.5715,-4.5776,-4.5805,-4.5805,-4.5771,-4.5812,-4.5866,-4.5861,-4.588,-4.5886,-4.5974,-4.5991,-4.5955,-4.5906,-4.5845,-4.5731,-4.5698,-4.569,-4.5557,-4.4855,-4.4697,-4.5162,-4.4749,-4.4725,-4.4863,-4.4697,-4.3956,-4.2976,-4.2367,-4.1715,-4.097,-4.0931,-4.0958,-4.0963,-4.098,-4.0952,-4.0941,-4.0888,-4.0876,-4.0826,-4.0829,-4.0792,-4.0692,-4.0197,-3.9876,-3.9695,-3.8888,-3.8719,-3.9411,-3.9301,-3.9118,-3.9407,-3.942,-3.9095,-3.8748,-3.9188,-3.951,-3.9657,-4.0123,-4.0559,-4.0623,-4.0748,-4.0754,-4.074,-4.0863,-4.0888,-4.0773,-4.061,-4.0281,-3.9934,-3.9592,-3.9324,-3.9156,-3.9031,-3.8939,-3.8866,-3.8892,-3.8896,-3.8795,-3.8822,-3.8837,-3.8747,-3.874,-3.8733,-3.8442,-3.8042,-3.7577,-3.6962,-3.5756,-3.4519,-3.4284,-3.4136,-3.4136,-3.4124,-3.4099,-3.4049,-3.3954,-3.3881,-3.3748,-3.3643,-3.35,-3.2859,-3.1988,-3.1178,-3.0418,-4.5657,-4.5594,-4.5594,-4.5594,-4.5594,-4.5594,-4.5594,-4.5612,-4.5703,-4.5731,-4.5746,-4.5812,-4.5847,-4.584,-4.5814,-4.5827,-4.59,-4.5893,-4.5892,-4.5898,-4.5978,-4.5989,-4.5986,-4.5899,-4.5819,-4.5739,-4.5703,-4.5711,-4.57,-4.492,-4.4742,-4.5088,-4.4778,-4.4787,-4.5376,-4.5202,-4.4653,-4.3844,-4.307,-4.2252,-4.1514,-4.1138,-4.0984,-4.0996,-4.1007,-4.1011,-4.0984,-4.0958,-4.0937,-4.0898,-4.0818,-4.0809,-4.0765,-4.0304,-3.9823,-3.9335,-3.8653,-3.8289,-3.8654,-3.8327,-3.8348,-3.8516,-3.8578,-3.8378,-3.8059,-3.8582,-3.9101,-3.9373,-4.0077,-4.0655,-4.074,-4.0544,-4.0435,-4.0383,-4.0441,-4.0524,-4.0437,-4.0481,-4.035,-4.0072,-3.9755,-3.9489,-3.9237,-3.9087,-3.8921,-3.8848,-3.8866,-3.8851,-3.8765,-3.8777,-3.8765,-3.8735,-3.8716,-3.8743,-3.8752,-3.8324,-3.779,-3.7008,-3.6083,-3.4955,-3.4265,-3.4117,-3.4061,-3.4049,-3.4005,-3.3985,-3.3921,-3.3829,-3.3739,-3.3643,-3.3512,-3.2904,-3.2169,-3.1386,-3.06,-4.5665,-4.5594,-4.5594,-4.5594,-4.5594,-4.5594,-4.5594,-4.5612,-4.5738,-4.5773,-4.5803,-4.5852,-4.5893,-4.5886,-4.5827,-4.5847,-4.59,-4.5906,-4.5905,-4.5904,-4.5958,-4.5989,-4.5955,-4.5867,-4.5805,-4.5788,-4.575,-4.5715,-4.5692,-4.4916,-4.4544,-4.4759,-4.4729,-4.4699,-4.5046,-4.5549,-4.5431,-4.4586,-4.3913,-4.3132,-4.2169,-4.1524,-4.1042,-4.1027,-4.1055,-4.1065,-4.1016,-4.0991,-4.0975,-4.0907,-4.0842,-4.0846,-4.0862,-4.0792,-4.0202,-3.9356,-3.8562,-3.8176,-3.7861,-3.7532,-3.7386,-3.8065,-3.8027,-3.777,-3.7767,-3.8372,-3.8873,-3.9005,-3.9753,-4.0422,-4.049,-4.0221,-3.9838,-3.9708,-3.97,-3.9667,-3.9686,-4.0156,-4.0223,-4.0119,-3.9927,-3.9658,-3.9285,-3.9151,-3.9017,-3.8892,-3.8848,-3.8807,-3.878,-3.8765,-3.8765,-3.8735,-3.8723,-3.8735,-3.8728,-3.867,-3.8099,-3.7337,-3.651,-3.5625,-3.4476,-3.4194,-3.3985,-3.3972,-3.3947,-3.3908,-3.3868,-3.3802,-3.3726,-3.3615,-3.3352,-3.2994,-3.2419,-3.1628,-3.0856,-4.5714,-4.5603,-4.5648,-4.5648,-4.5594,-4.5594,-4.5594,-4.5622,-4.569,-4.577,-4.5791,-4.5817,-4.5866,-4.5886,-4.5834,-4.5847,-4.5893,-4.5906,-4.5906,-4.5905,-4.5904,-4.5917,-4.5899,-4.5845,-4.5817,-4.5798,-4.5788,-4.5769,-4.5713,-4.5025,-4.4923,-4.5479,-4.4989,-4.5058,-4.562,-4.5899,-4.5575,-4.4875,-4.4593,-4.3681,-4.2478,-4.2061,-4.1653,-4.1112,-4.1098,-4.11,-4.1075,-4.1013,-4.0995,-4.0963,-4.0922,-4.0878,-4.0849,-4.0352,-3.9669,-3.8853,-3.8432,-3.8125,-3.8,-3.775,-3.7986,-3.8594,-3.8142,-3.7617,-3.7052,-3.7808,-3.8013,-3.79,-3.8322,-3.9248,-3.9772,-3.9786,-3.9469,-3.893,-3.8729,-3.893,-3.9441,-3.9611,-3.9749,-4.0107,-4.001,-3.9739,-3.9477,-3.9277,-3.9115,-3.8964,-3.8862,-3.8803,-3.878,-3.8719,-3.8704,-3.8704,-3.8707,-3.8704,-3.8704,-3.8719,-3.8389,-3.7672,-3.7004,-3.6415,-3.5239,-3.432,-3.4084,-3.3889,-3.3881,-3.386,-3.3847,-3.3807,-3.3712,-3.3619,-3.3443,-3.3176,-3.2639,-3.1959,-3.1168,-4.5765,-4.5698,-4.5709,-4.5682,-4.5646,-4.5631,-4.5603,-4.5648,-4.5671,-4.5739,-4.5819,-4.5812,-4.5854,-4.5917,-4.5848,-4.5814,-4.5854,-4.5874,-4.588,-4.5841,-4.5848,-4.5867,-4.5886,-4.5838,-4.5805,-4.58,-4.5805,-4.5805,-4.5742,-4.533,-4.5486,-4.5725,-4.5479,-4.5556,-4.5935,-4.606,-4.5912,-4.5332,-4.4756,-4.3734,-4.2909,-4.2133,-4.1599,-4.1169,-4.1113,-4.1111,-4.1083,-4.1025,-4.0993,-4.0972,-4.0926,-4.0888,-4.0864,-4.0424,-3.9702,-3.8886,-3.8742,-3.8518,-3.8096,-3.7995,-3.8182,-3.8434,-3.8105,-3.754,-3.7161,-3.7782,-3.8299,-3.7767,-3.8595,-3.95,-3.9889,-3.9637,-3.866,-3.7617,-3.7342,-3.7807,-3.8906,-3.9209,-3.9595,-4.0008,-4.009,-3.9837,-3.9551,-3.9369,-3.9188,-3.9007,-3.8877,-3.8822,-3.8765,-3.867,-3.8624,-3.8643,-3.8609,-3.8593,-3.859,-3.8624,-3.8707,-3.8046,-3.7533,-3.6967,-3.583,-3.4674,-3.4279,-3.4049,-3.3912,-3.3807,-3.3793,-3.3766,-3.3716,-3.3619,-3.3553,-3.3314,-3.2826,-3.2167,-3.1394,-4.5805,-4.58,-4.5722,-4.5687,-4.5684,-4.5657,-4.564,-4.5682,-4.5687,-4.5761,-4.5847,-4.5814,-4.588,-4.5991,-4.5874,-4.5801,-4.5814,-4.5867,-4.5854,-4.5821,-4.5814,-4.5847,-4.5893,-4.5821,-4.58,-4.5807,-4.5807,-4.5807,-4.5801,-4.5828,-4.5867,-4.5899,-4.5933,-4.6017,-4.6083,-4.6111,-4.6137,-4.5871,-4.4916,-4.4178,-4.3596,-4.2546,-4.1754,-4.1432,-4.1142,-4.1118,-4.1108,-4.105,-4.101,-4.1013,-4.0872,-4.0684,-4.0708,-4.0657,-4.0248,-3.9603,-3.9302,-3.8987,-3.832,-3.8145,-3.8185,-3.8362,-3.8328,-3.7774,-3.762,-3.8518,-3.8953,-3.8119,-3.9689,-4.0107,-4.0174,-3.928,-3.8058,-3.6812,-3.617,-3.6614,-3.7903,-3.8806,-3.9435,-4.0057,-4.0004,-3.987,-3.9606,-3.9413,-3.928,-3.8964,-3.8877,-3.8851,-3.8747,-3.8621,-3.8575,-3.8544,-3.8512,-3.8446,-3.8478,-3.851,-3.8609,-3.8453,-3.8016,-3.7359,-3.6241,-3.5251,-3.4679,-3.4312,-3.4087,-3.3876,-3.3739,-3.3698,-3.3661,-3.3581,-3.3466,-3.3316,-3.3036,-3.231,-3.1559,-4.5805,-4.58,-4.5715,-4.568,-4.568,-4.569,-4.5693,-4.5701,-4.5657,-4.5723,-4.5859,-4.5831,-4.588,-4.5986,-4.5923,-4.5893,-4.5874,-4.5874,-4.586,-4.5807,-4.5807,-4.5847,-4.5867,-4.5827,-4.5807,-4.5807,-4.5807,-4.5821,-4.5867,-4.5887,-4.5918,-4.5969,-4.6047,-4.6106,-4.618,-4.618,-4.6201,-4.6175,-4.5721,-4.5058,-4.4341,-4.3407,-4.2514,-4.1997,-4.1413,-4.1121,-4.1117,-4.1079,-4.1081,-4.0896,-4.0389,-4.0009,-4.0044,-3.9962,-3.982,-3.9693,-3.9559,-3.9393,-3.9057,-3.8644,-3.8662,-3.9623,-3.9321,-3.8998,-3.8889,-3.9185,-3.9162,-3.8554,-3.8702,-3.9206,-3.9059,-3.8777,-3.7864,-3.6888,-3.6236,-3.6409,-3.7767,-3.8208,-3.8596,-3.9248,-3.9756,-3.9867,-3.9489,-3.9407,-3.9242,-3.8979,-3.8881,-3.8866,-3.8728,-3.8572,-3.8525,-3.8478,-3.8417,-3.8385,-3.8399,-3.8446,-3.8528,-3.8593,-3.8266,-3.7961,-3.6826,-3.5868,-3.5318,-3.471,-3.417,-3.4014,-3.3959,-3.3661,-3.3605,-3.3495,-3.3393,-3.3271,-3.3,-3.2328,-3.1787,-4.5938,-4.5886,-4.5833,-4.58,-4.5786,-4.5735,-4.5722,-4.5722,-4.5648,-4.5719,-4.5852,-4.5817,-4.5887,-4.6051,-4.5983,-4.5943,-4.5944,-4.5912,-4.586,-4.5833,-4.584,-4.586,-4.59,-4.5861,-4.5835,-4.5854,-4.5861,-4.5867,-4.5906,-4.5949,-4.6,-4.6042,-4.6106,-4.6157,-4.6212,-4.6228,-4.6006,-4.5586,-4.5213,-4.4627,-4.3792,-4.2936,-4.2352,-4.1848,-4.1343,-4.1109,-4.1106,-4.1113,-4.0647,-4.0095,-3.9756,-3.985,-4.0126,-4.0131,-4.008,-4.0075,-4.0062,-4.0031,-3.981,-3.9623,-3.9667,-4.046,-4.0177,-3.985,-3.974,-3.9876,-3.9791,-3.9224,-3.8968,-3.8851,-3.8012,-3.7878,-3.7457,-3.6845,-3.6454,-3.6714,-3.7409,-3.7769,-3.8367,-3.9212,-3.9801,-3.9694,-3.9533,-3.9369,-3.9115,-3.8837,-3.8795,-3.8765,-3.8618,-3.8491,-3.8478,-3.8415,-3.8354,-3.8322,-3.8352,-3.8401,-3.8465,-3.8481,-3.8389,-3.8214,-3.7674,-3.679,-3.5992,-3.5407,-3.484,-3.4442,-3.4327,-3.396,-3.364,-3.3495,-3.3426,-3.3289,-3.309,-3.2706,-3.2151,-4.6051,-4.5983,-4.5929,-4.5892,-4.588,-4.5757,-4.575,-4.5785,-4.5662,-4.5727,-4.5859,-4.5831,-4.5912,-4.6041,-4.6041,-4.5994,-4.5966,-4.5938,-4.5874,-4.5841,-4.5874,-4.5893,-4.5925,-4.5925,-4.5898,-4.5904,-4.5886,-4.5911,-4.5947,-4.6035,-4.6061,-4.6119,-4.6169,-4.6203,-4.6223,-4.624,-4.6037,-4.5459,-4.4951,-4.419,-4.3253,-4.2357,-4.1791,-4.1207,-4.1168,-4.1109,-4.1106,-4.1019,-4.05,-3.9058,-3.9535,-4.0217,-4.0665,-4.0693,-4.0706,-4.0617,-4.0443,-4.034,-4.039,-4.0338,-4.0287,-4.0557,-4.0655,-4.0415,-4.0093,-4.032,-4.038,-4.0101,-3.9698,-3.8987,-3.7483,-3.7318,-3.6952,-3.6483,-3.6719,-3.7021,-3.7361,-3.7817,-3.8703,-3.9499,-3.978,-3.9709,-3.9464,-3.9232,-3.8979,-3.875,-3.8723,-3.8643,-3.8512,-3.8415,-3.8385,-3.8318,-3.8238,-3.8272,-3.8322,-3.8374,-3.8439,-3.8435,-3.8401,-3.8352,-3.8232,-3.7649,-3.6823,-3.6197,-3.5669,-3.5235,-3.4746,-3.439,-3.4055,-3.3717,-3.3426,-3.3274,-3.318,-3.3101,-3.246,-4.6022,-4.5991,-4.5925,-4.5898,-4.588,-4.5817,-4.5788,-4.5773,-4.5714,-4.5727,-4.5807,-4.5867,-4.5923,-4.6021,-4.6071,-4.6032,-4.5986,-4.596,-4.5905,-4.5893,-4.5925,-4.5917,-4.5955,-4.5972,-4.5969,-4.595,-4.5947,-4.5947,-4.5975,-4.6002,-4.6061,-4.6102,-4.6176,-4.6209,-4.6223,-4.626,-4.6199,-4.5792,-4.55,-4.5012,-4.4172,-4.3294,-4.2241,-4.1304,-4.1109,-4.1109,-4.1108,-4.1099,-4.0955,-4.0695,-4.0749,-4.0824,-4.0757,-4.0267,-4.0294,-4.0488,-4.0047,-3.9914,-4.0482,-4.0089,-4.014,-4.0481,-4.0742,-4.0768,-4.0635,-4.0731,-4.07,-4.0423,-3.9838,-3.8987,-3.7403,-3.7087,-3.7148,-3.699,-3.7092,-3.7575,-3.8535,-3.8934,-3.8955,-3.9461,-3.9654,-3.9735,-3.9439,-3.9165,-3.8917,-3.8808,-3.8829,-3.8624,-3.8368,-3.8305,-3.8294,-3.8207,-3.8086,-3.8189,-3.829,-3.8361,-3.8431,-3.8409,-3.8409,-3.8396,-3.831,-3.8223,-3.7678,-3.6999,-3.6394,-3.5884,-3.5415,-3.4912,-3.4486,-3.4151,-3.3732,-3.3295,-3.3165,-3.3037,-3.2644,-4.6084,-4.606,-4.6008,-4.5993,-4.5972,-4.5893,-4.5847,-4.5838,-4.5785,-4.5781,-4.584,-4.5874,-4.596,-4.6051,-4.6085,-4.6081,-4.6017,-4.6016,-4.5983,-4.5986,-4.5983,-4.5994,-4.6011,-4.6026,-4.6037,-4.6037,-4.6035,-4.6,-4.6002,-4.6027,-4.6069,-4.6103,-4.6174,-4.622,-4.6248,-4.6284,-4.6041,-4.581,-4.5617,-4.5226,-4.4348,-4.3469,-4.2298,-4.148,-4.1109,-4.1109,-4.1108,-4.1099,-4.0857,-4.0572,-4.0772,-4.0698,-4.047,-4.0403,-4.0432,-4.0513,-3.9675,-3.9478,-4.0357,-4.0059,-3.9973,-4.0679,-4.0824,-4.0869,-4.0904,-4.0906,-4.0652,-3.9883,-3.9444,-3.8393,-3.6733,-3.6645,-3.6777,-3.7178,-3.7403,-3.8156,-3.9071,-3.9523,-3.9608,-3.9538,-3.9779,-3.9792,-3.9389,-3.9124,-3.8869,-3.8842,-3.8925,-3.8711,-3.8365,-3.8517,-3.8647,-3.8431,-3.8396,-3.8466,-3.8624,-3.8804,-3.8638,-3.8527,-3.8492,-3.8496,-3.8298,-3.8174,-3.8082,-3.7716,-3.715,-3.6549,-3.6043,-3.5559,-3.5077,-3.4542,-3.3936,-3.3439,-3.3206,-3.2952,-3.2594,-4.6167,-4.6135,-4.6119,-4.6091,-4.6066,-4.5947,-4.5893,-4.588,-4.5812,-4.5838,-4.5906,-4.5912,-4.5972,-4.6051,-4.6052,-4.5993,-4.5901,-4.5915,-4.5929,-4.5749,-4.6003,-4.6071,-4.6056,-4.6071,-4.6104,-4.6085,-4.61,-4.6076,-4.6056,-4.6069,-4.6099,-4.6138,-4.618,-4.6228,-4.6275,-4.6282,-4.5761,-4.5457,-4.5012,-4.4524,-4.3509,-4.2591,-4.1849,-4.1187,-4.1109,-4.1109,-4.1108,-4.1103,-4.082,-4.0572,-4.0627,-4.0734,-4.0197,-4.0455,-4.0749,-4.0602,-3.9474,-3.9746,-4.0178,-4.0368,-4.0267,-4.0854,-4.0745,-4.0708,-4.0698,-4.0539,-4.0259,-3.9073,-3.8551,-3.8046,-3.675,-3.6147,-3.6558,-3.7331,-3.7938,-3.8529,-3.9359,-3.9909,-4.0167,-4.0165,-4.0165,-3.9891,-3.952,-3.9596,-3.9448,-3.8983,-3.9051,-3.9097,-3.8893,-3.9245,-3.9301,-3.894,-3.8813,-3.8883,-3.9099,-3.9461,-3.9188,-3.8841,-3.8772,-3.8758,-3.8432,-3.8105,-3.8032,-3.7941,-3.7774,-3.7209,-3.6687,-3.62,-3.5713,-3.5082,-3.4186,-3.355,-3.3242,-3.3044,-3.2809,-4.6259,-4.6176,-4.6174,-4.6107,-4.6007,-4.5947,-4.5892,-4.5899,-4.5834,-4.5822,-4.5905,-4.5978,-4.5986,-4.6021,-4.6026,-4.5609,-4.5425,-4.5692,-4.576,-4.5448,-4.5832,-4.6108,-4.6089,-4.6108,-4.6122,-4.6113,-4.6113,-4.6093,-4.6089,-4.6122,-4.6134,-4.6177,-4.6187,-4.6212,-4.624,-4.6255,-4.6251,-4.6005,-4.5382,-4.4231,-4.2767,-4.1849,-4.1402,-4.1148,-4.1108,-4.1108,-4.1108,-4.1104,-4.0961,-4.0951,-4.0979,-4.1017,-4.0773,-4.0139,-4.0377,-4.0668,-4.0749,-4.0649,-4.081,-4.0601,-4.0483,-4.0621,-4.0369,-4.0033,-4.0051,-4.0006,-3.9833,-3.9786,-3.8939,-3.8048,-3.7014,-3.6347,-3.6861,-3.7495,-3.8121,-3.8935,-3.9819,-4.023,-4.0508,-4.0724,-4.0723,-4.0177,-3.969,-3.9914,-4.003,-3.9545,-3.9177,-3.9278,-3.9366,-3.9679,-3.9878,-3.9499,-3.9428,-3.9499,-3.9626,-3.9969,-3.9788,-3.9299,-3.9138,-3.9031,-3.8563,-3.8201,-3.8002,-3.7929,-3.7835,-3.7798,-3.7404,-3.6898,-3.6385,-3.5627,-3.4733,-3.395,-3.3242,-3.308,-3.2918,-4.627,-4.6209,-4.6206,-4.6173,-4.6104,-4.6051,-4.6,-4.5958,-4.5937,-4.5931,-4.5955,-4.5983,-4.5994,-4.6,-4.5991,-4.5837,-4.5643,-4.5891,-4.5915,-4.56,-4.592,-4.6154,-4.6158,-4.6166,-4.617,-4.6154,-4.6154,-4.6154,-4.6154,-4.6158,-4.6181,-4.6193,-4.6199,-4.6203,-4.6212,-4.6228,-4.6247,-4.6023,-4.5382,-4.4133,-4.2767,-4.2025,-4.1597,-4.1129,-4.1104,-4.1104,-4.1106,-4.1115,-4.1109,-4.1098,-4.1064,-4.1042,-4.0948,-4.0682,-4.0675,-4.0898,-4.1009,-4.0976,-4.0917,-4.0505,-4.0318,-4.0217,-3.9932,-3.9802,-3.9713,-3.9386,-3.9366,-3.9764,-3.8543,-3.7687,-3.7177,-3.6406,-3.7022,-3.7676,-3.8234,-3.9113,-3.9955,-4.0463,-4.0819,-4.1052,-4.1242,-4.0823,-4.0396,-4.0347,-4.0388,-3.9971,-3.9806,-3.9984,-3.9891,-3.9842,-3.9985,-3.9998,-4.0038,-4.0148,-4.031,-4.0507,-4.0417,-4.0003,-3.9623,-3.9388,-3.8744,-3.8366,-3.8025,-3.7863,-3.7826,-3.7808,-3.7844,-3.7408,-3.6681,-3.5997,-3.5315,-3.4407,-3.3537,-3.3066,-3.2852,-4.6258,-4.6201,-4.6209,-4.6089,-4.5893,-4.6022,-4.5911,-4.5716,-4.5931,-4.5997,-4.5983,-4.5983,-4.5991,-4.5986,-4.5939,-4.5834,-4.5691,-4.5978,-4.5944,-4.5931,-4.6068,-4.6189,-4.6197,-4.6208,-4.6208,-4.6212,-4.6197,-4.6197,-4.6197,-4.6197,-4.6197,-4.6197,-4.6212,-4.6196,-4.6198,-4.615,-4.6065,-4.5347,-4.488,-4.3689,-4.2324,-4.2007,-4.1617,-4.1303,-4.1104,-4.1101,-4.1104,-4.1117,-4.1107,-4.1096,-4.1069,-4.1053,-4.1,-4.0961,-4.0919,-4.0951,-4.0844,-4.0626,-4.0457,-4.0108,-3.9669,-3.9408,-3.9114,-3.8856,-3.8922,-3.8559,-3.86,-3.9304,-3.8245,-3.748,-3.7102,-3.6581,-3.7123,-3.779,-3.8382,-3.9235,-4.0053,-4.0642,-4.1281,-4.1757,-4.1935,-4.1908,-4.1477,-4.1035,-4.07,-4.0348,-4.0399,-4.0655,-4.0671,-4.0546,-4.0685,-4.0927,-4.102,-4.1116,-4.1111,-4.1145,-4.1002,-4.0587,-4.0203,-3.963,-3.8901,-3.824,-3.7775,-3.7703,-3.7721,-3.7703,-3.7667,-3.7307,-3.6904,-3.6043,-3.5236,-3.4575,-3.3866,-3.3305,-3.2838,-4.6272,-4.6206,-4.6186,-4.5715,-4.5075,-4.5788,-4.5614,-4.5084,-4.5714,-4.598,-4.5986,-4.5989,-4.5966,-4.5898,-4.5763,-4.5473,-4.4942,-4.5656,-4.5585,-4.5505,-4.569,-4.6135,-4.6204,-4.6215,-4.6196,-4.6212,-4.6212,-4.6212,-4.6215,-4.6212,-4.6212,-4.6199,-4.6199,-4.62,-4.6201,-4.6177,-4.5488,-4.4745,-4.4106,-4.3132,-4.1941,-4.1449,-4.1309,-4.1193,-4.1112,-4.1108,-4.1109,-4.1104,-4.1099,-4.1109,-4.1105,-4.1096,-4.1083,-4.1067,-4.1061,-4.0783,-4.0571,-4.0179,-3.9694,-3.9689,-3.9386,-3.8656,-3.8065,-3.7787,-3.8039,-3.7647,-3.7819,-3.8478,-3.7686,-3.737,-3.7205,-3.7203,-3.7383,-3.8143,-3.8832,-3.9536,-4.0328,-4.095,-4.16,-4.2314,-4.2552,-4.2496,-4.2182,-4.163,-4.143,-4.1104,-4.1043,-4.1276,-4.1869,-4.1898,-4.1978,-4.2111,-4.2163,-4.2161,-4.206,-4.1935,-4.1598,-4.0891,-4.0291,-3.9635,-3.8929,-3.8306,-3.7539,-3.7503,-3.7503,-3.7485,-3.7504,-3.7345,-3.6915,-3.5945,-3.5174,-3.4584,-3.3804,-3.3048,-3.2755,-4.5897,-4.5415,-4.5406,-4.5219,-4.4933,-4.5239,-4.518,-4.5023,-4.5697,-4.6037,-4.6002,-4.5986,-4.5958,-4.5782,-4.5356,-4.5311,-4.5337,-4.5118,-4.5301,-4.5653,-4.6,-4.6158,-4.6181,-4.6199,-4.6196,-4.6199,-4.6199,-4.6199,-4.6196,-4.6199,-4.6199,-4.6199,-4.6206,-4.6209,-4.6206,-4.6191,-4.5503,-4.469,-4.3917,-4.3042,-4.2258,-4.1869,-4.1632,-4.1117,-4.1738,-4.1519,-4.1225,-4.1122,-4.1117,-4.1115,-4.1113,-4.1107,-4.1061,-4.1064,-4.0808,-4.0489,-4.0257,-3.9653,-3.8761,-3.9065,-3.9523,-3.9103,-3.8101,-3.7364,-3.7776,-3.762,-3.7767,-3.7822,-3.736,-3.6946,-3.7871,-3.7587,-3.7554,-3.8524,-3.9341,-4.0015,-4.0674,-4.1372,-4.1844,-4.2522,-4.2873,-4.3007,-4.26,-4.2153,-4.2023,-4.1918,-4.1889,-4.1952,-4.2449,-4.2727,-4.2588,-4.2486,-4.2465,-4.2341,-4.2202,-4.213,-4.208,-4.1298,-4.0406,-3.9722,-3.9037,-3.8012,-3.739,-3.7334,-3.7279,-3.726,-3.7317,-3.7429,-3.7058,-3.6381,-3.5539,-3.4712,-3.3828,-3.2896,-3.2688,-4.5877,-4.5262,-4.5003,-4.4746,-4.4587,-4.479,-4.489,-4.5028,-4.5737,-4.6071,-4.5963,-4.5778,-4.559,-4.5316,-4.4698,-4.4498,-4.4789,-4.4821,-4.5124,-4.5492,-4.5846,-4.6091,-4.6181,-4.6199,-4.6199,-4.6199,-4.6199,-4.6199,-4.6199,-4.6199,-4.6199,-4.6203,-4.6196,-4.6212,-4.6216,-4.6227,-4.5869,-4.5033,-4.4451,-4.3652,-4.2929,-4.2752,-4.2634,-4.2081,-4.2544,-4.2304,-4.1833,-4.1594,-4.1376,-4.122,-4.1101,-4.1115,-4.1016,-4.0799,-4.0389,-4.0095,-3.9648,-3.9047,-3.8177,-3.8085,-3.9075,-3.8844,-3.8344,-3.8017,-3.8121,-3.7966,-3.8084,-3.7828,-3.7058,-3.6893,-3.8201,-3.7774,-3.8096,-3.9073,-3.997,-4.0669,-4.1374,-4.2019,-4.231,-4.2715,-4.2795,-4.2625,-4.3088,-4.2658,-4.2312,-4.2296,-4.2421,-4.2413,-4.2594,-4.2727,-4.2588,-4.2468,-4.2407,-4.224,-4.2072,-4.204,-4.1969,-4.157,-4.0718,-3.9961,-3.9156,-3.8119,-3.7344,-3.7163,-3.7106,-3.7048,-3.7126,-3.726,-3.7196,-3.7004,-3.59,-3.4662,-3.4041,-3.3179,-3.2777,-4.6211,-4.6072,-4.5228,-4.4492,-4.4022,-4.4587,-4.4893,-4.5001,-4.5733,-4.6012,-4.5774,-4.5165,-4.4777,-4.4548,-4.3769,-4.3595,-4.3808,-4.4233,-4.4666,-4.4997,-4.555,-4.5963,-4.6185,-4.6199,-4.6203,-4.6199,-4.6199,-4.6199,-4.6199,-4.6203,-4.6203,-4.6209,-4.6206,-4.622,-4.6214,-4.6257,-4.5838,-4.5156,-4.5019,-4.4353,-4.3885,-4.3652,-4.3535,-4.3102,-4.3272,-4.2975,-4.2075,-4.1852,-4.1578,-4.1193,-4.1109,-4.1106,-4.1085,-4.0499,-4.0047,-3.9728,-3.8494,-3.7757,-3.7386,-3.7366,-3.7997,-3.8813,-3.8723,-3.8575,-3.8497,-3.8445,-3.8267,-3.8031,-3.7418,-3.7305,-3.7688,-3.8035,-3.8838,-3.9779,-4.0706,-4.1399,-4.2098,-4.2715,-4.3044,-4.3063,-4.2239,-4.1797,-4.2748,-4.3157,-4.2666,-4.2595,-4.2832,-4.2903,-4.2825,-4.2727,-4.2568,-4.2427,-4.2346,-4.2199,-4.2051,-4.1987,-4.1852,-4.1503,-4.0959,-4.0137,-3.9385,-3.8513,-3.7807,-3.7238,-3.6987,-3.695,-3.6989,-3.7068,-3.7026,-3.6857,-3.5616,-3.4508,-3.3957,-3.3498,-3.3079,-4.5948,-4.5372,-4.5085,-4.4799,-4.4608,-4.4833,-4.4936,-4.5027,-4.5659,-4.5778,-4.5249,-4.4822,-4.4353,-4.3738,-4.3024,-4.2743,-4.3195,-4.2799,-4.3269,-4.472,-4.5088,-4.5656,-4.5958,-4.6053,-4.6138,-4.6193,-4.6187,-4.6209,-4.6196,-4.6213,-4.6216,-4.6203,-4.6226,-4.6267,-4.6278,-4.63,-4.6073,-4.58,-4.537,-4.482,-4.4587,-4.4509,-4.4081,-4.3125,-4.3511,-4.3098,-4.1888,-4.1801,-4.1525,-4.116,-4.1116,-4.1111,-4.109,-4.0582,-4.0073,-3.9525,-3.8501,-3.8683,-3.8313,-3.8241,-3.8766,-3.9335,-3.9556,-3.9286,-3.9229,-3.9319,-3.8903,-3.8413,-3.8183,-3.8335,-3.8972,-3.9087,-3.9774,-4.0967,-4.1817,-4.2269,-4.2875,-4.3436,-4.3803,-4.3587,-4.3021,-4.2561,-4.2974,-4.3142,-4.2777,-4.2703,-4.2919,-4.2825,-4.2707,-4.2668,-4.253,-4.2369,-4.2243,-4.2118,-4.203,-4.1948,-4.1841,-4.1583,-4.0972,-4.0204,-3.9469,-3.8889,-3.8061,-3.7374,-3.7086,-3.6871,-3.6908,-3.6911,-3.696,-3.6548,-3.574,-3.4922,-3.4334,-3.384,-3.3331,-4.5976,-4.5484,-4.5469,-4.5455,-4.54,-4.5143,-4.5104,-4.5342,-4.56,-4.5321,-4.4785,-4.4229,-4.3588,-4.2853,-4.2186,-4.1823,-4.2394,-4.2377,-4.2387,-4.3937,-4.4295,-4.4666,-4.5127,-4.5673,-4.5621,-4.5816,-4.6089,-4.6203,-4.6212,-4.6206,-4.6203,-4.6212,-4.6223,-4.6255,-4.6288,-4.6282,-4.6288,-4.6074,-4.5721,-4.5543,-4.5465,-4.529,-4.4764,-4.4004,-4.369,-4.3414,-4.2104,-4.1513,-4.1391,-4.122,-4.11,-4.1112,-4.1073,-4.0683,-4.0038,-3.922,-3.8237,-3.8338,-3.8007,-3.8378,-3.8983,-4.0042,-4.0159,-4.0181,-4.0123,-4.0199,-3.9751,-3.9315,-3.908,-3.9256,-3.9648,-3.9755,-4.0453,-4.1603,-4.2374,-4.2812,-4.3242,-4.3765,-4.3806,-4.3645,-4.3155,-4.2969,-4.2977,-4.294,-4.279,-4.2858,-4.2961,-4.2775,-4.2624,-4.26,-4.2503,-4.2287,-4.2163,-4.2076,-4.197,-4.1884,-4.1758,-4.1626,-4.1095,-4.0481,-4.0081,-3.9589,-3.855,-3.7614,-3.7449,-3.7231,-3.687,-3.6788,-3.6858,-3.6909,-3.6693,-3.5829,-3.4871,-3.4215,-3.3633,-4.6294,-4.6288,-4.6296,-4.6241,-4.6066,-4.5301,-4.5382,-4.5972,-4.5267,-4.4828,-4.456,-4.3,-4.2401,-4.2048,-4.1295,-4.1036,-4.1164,-4.1765,-4.2306,-4.2736,-4.3533,-4.3844,-4.438,-4.4944,-4.5387,-4.5487,-4.5721,-4.6211,-4.6189,-4.5975,-4.5986,-4.6162,-4.6032,-4.6124,-4.6195,-4.63,-4.6288,-4.6211,-4.5936,-4.5758,-4.568,-4.572,-4.4959,-4.4297,-4.4003,-4.3357,-4.2417,-4.1943,-4.1631,-4.1358,-4.1102,-4.11,-4.0865,-4.0357,-3.9534,-3.8466,-3.709,-3.6893,-3.7242,-3.7868,-3.871,-3.9676,-4.0547,-4.0842,-4.0914,-4.0808,-4.0435,-4.0097,-3.9877,-3.9806,-3.9869,-4.0268,-4.0684,-4.1647,-4.2546,-4.3009,-4.3409,-4.3591,-4.3502,-4.3127,-4.2402,-4.2201,-4.2558,-4.2631,-4.2765,-4.2739,-4.2769,-4.2647,-4.2568,-4.267,-4.2516,-4.2163,-4.2076,-4.1995,-4.1888,-4.1801,-4.1714,-4.1604,-4.1552,-4.1078,-4.0691,-4.013,-3.9143,-3.833,-3.7968,-3.7533,-3.6849,-3.6664,-3.6809,-3.6845,-3.6895,-3.6535,-3.5527,-3.4588,-3.3969,-4.6298,-4.6296,-4.63,-4.5929,-4.5381,-4.5052,-4.4765,-4.4462,-4.4679,-4.4302,-4.298,-4.2525,-4.1937,-4.1332,-4.1009,-4.0927,-4.1,-4.1306,-4.2226,-4.279,-4.3187,-4.4283,-4.5055,-4.5482,-4.5804,-4.5886,-4.6062,-4.616,-4.6048,-4.575,-4.5746,-4.6136,-4.5657,-4.5761,-4.6054,-4.629,-4.6304,-4.6172,-4.5839,-4.5682,-4.5369,-4.5096,-4.4354,-4.3749,-4.3417,-4.2655,-4.1932,-4.1592,-4.1318,-4.1206,-4.1103,-4.1101,-4.105,-4.0792,-4.024,-3.8609,-3.7128,-3.6122,-3.6547,-3.7715,-3.8645,-3.9178,-4.0258,-4.0905,-4.1052,-4.1031,-4.0946,-4.0683,-4.067,-4.0669,-4.0825,-4.1157,-4.1665,-4.2488,-4.3211,-4.3562,-4.3799,-4.3492,-4.3405,-4.3167,-4.2423,-4.2459,-4.2704,-4.2593,-4.2707,-4.2624,-4.2573,-4.254,-4.2475,-4.2593,-4.2459,-4.2104,-4.1952,-4.1888,-4.1823,-4.1714,-4.167,-4.1587,-4.1552,-4.1411,-4.0884,-4.027,-3.9543,-3.8741,-3.7864,-3.7155,-3.6477,-3.6478,-3.6647,-3.6771,-3.679,-3.6579,-3.6163,-3.5137,-3.4253,-4.6302,-4.6262,-4.5929,-4.5285,-4.4618,-4.4816,-4.43,-4.349,-4.403,-4.3562,-4.2354,-4.1944,-4.1521,-4.1101,-4.0971,-4.093,-4.0902,-4.1009,-4.1682,-4.2556,-4.2841,-4.3641,-4.4645,-4.5384,-4.5353,-4.5668,-4.6022,-4.606,-4.5675,-4.5012,-4.4834,-4.5098,-4.4871,-4.5337,-4.5706,-4.6056,-4.6297,-4.6149,-4.5878,-4.5566,-4.5098,-4.4551,-4.3788,-4.2909,-4.2597,-4.1894,-4.1249,-4.1122,-4.1106,-4.111,-4.1103,-4.1106,-4.0993,-4.0774,-4.0108,-3.8572,-3.7381,-3.6416,-3.6449,-3.7611,-3.8246,-3.8922,-4.0018,-4.0825,-4.1065,-4.1051,-4.1067,-4.1016,-4.133,-4.1613,-4.1882,-4.2208,-4.2904,-4.3597,-4.3912,-4.4213,-4.3911,-4.352,-4.336,-4.3275,-4.3177,-4.3191,-4.3124,-4.2862,-4.2704,-4.2695,-4.2767,-4.2867,-4.2654,-4.2466,-4.2296,-4.1962,-4.1862,-4.1801,-4.1736,-4.167,-4.1626,-4.1582,-4.1587,-4.1376,-4.0955,-4.0613,-4.011,-3.8845,-3.7405,-3.6817,-3.635,-3.6349,-3.6461,-3.6571,-3.6655,-3.6549,-3.6162,-3.5397,-3.4621,-4.6262,-4.6085,-4.5187,-4.4367,-4.386,-4.4512,-4.3936,-4.2578,-4.3331,-4.3078,-4.214,-4.1422,-4.1143,-4.1032,-4.1015,-4.0976,-4.0945,-4.0971,-4.1439,-4.2302,-4.2016,-4.2737,-4.3879,-4.395,-4.4933,-4.5345,-4.5523,-4.5564,-4.4804,-4.414,-4.3691,-4.3724,-4.4405,-4.4933,-4.5245,-4.5961,-4.6259,-4.6248,-4.613,-4.5937,-4.5508,-4.5058,-4.4375,-4.3339,-4.2578,-4.1875,-4.1323,-4.1105,-4.111,-4.1108,-4.1108,-4.1109,-4.0895,-4.0408,-3.9547,-3.8651,-3.7575,-3.6749,-3.6526,-3.7373,-3.8001,-3.8798,-3.9882,-4.0486,-4.0637,-4.1001,-4.1089,-4.1308,-4.1582,-4.1925,-4.2209,-4.2961,-4.3743,-4.4094,-4.4351,-4.455,-4.4426,-4.3866,-4.3323,-4.3229,-4.3198,-4.3229,-4.3178,-4.2919,-4.2689,-4.2733,-4.2752,-4.292,-4.2874,-4.2522,-4.2365,-4.2066,-4.2075,-4.2014,-4.167,-4.1626,-4.1604,-4.1582,-4.1582,-4.1485,-4.1156,-4.0963,-4.0766,-3.9268,-3.7724,-3.6917,-3.647,-3.6388,-3.6345,-3.6381,-3.6447,-3.6447,-3.6073,-3.5521,-3.4951,-4.5929,-4.5168,-4.3665,-4.3255,-4.3704,-4.3907,-4.3435,-4.2494,-4.3297,-4.2827,-4.1562,-4.122,-4.1109,-4.1084,-4.1078,-4.1042,-4.0993,-4.1018,-4.1529,-4.2081,-4.2005,-4.2715,-4.4264,-4.4388,-4.5017,-4.5527,-4.5566,-4.4785,-4.4002,-4.3297,-4.3063,-4.3594,-4.4082,-4.4355,-4.492,-4.5755,-4.6284,-4.6289,-4.6268,-4.5584,-4.457,-4.3574,-4.2617,-4.205,-4.1425,-4.1444,-4.1105,-4.11,-4.1104,-4.1106,-4.111,-4.1112,-4.1074,-4.0332,-3.9511,-3.8632,-3.7809,-3.7001,-3.6662,-3.704,-3.756,-3.7927,-3.8685,-3.9433,-4.0097,-4.0738,-4.1189,-4.1463,-4.1836,-4.2214,-4.2731,-4.3651,-4.4433,-4.4626,-4.4752,-4.484,-4.491,-4.4148,-4.3373,-4.3232,-4.3183,-4.3156,-4.316,-4.2994,-4.2767,-4.2665,-4.26,-4.2647,-4.2825,-4.2709,-4.2829,-4.2634,-4.255,-4.2382,-4.1903,-4.1604,-4.1582,-4.1515,-4.1493,-4.1408,-4.1323,-4.0779,-4.0197,-3.9359,-3.8237,-3.7374,-3.6666,-3.628,-3.626,-3.6242,-3.6255,-3.6276,-3.6229,-3.5792,-3.5178,-4.5421,-4.4797,-4.3138,-4.3138,-4.4073,-4.3874,-4.3422,-4.3123,-4.3507,-4.2732,-4.1251,-4.11,-4.1108,-4.1108,-4.1103,-4.1098,-4.1048,-4.1016,-4.1571,-4.212,-4.2459,-4.3162,-4.3957,-4.4432,-4.4512,-4.4843,-4.4215,-4.347,-4.3038,-4.2346,-4.2151,-4.2724,-4.3135,-4.3979,-4.4628,-4.5527,-4.6289,-4.6267,-4.6289,-4.5331,-4.3904,-4.3142,-4.2538,-4.1933,-4.1348,-4.1228,-4.1105,-4.11,-4.1105,-4.111,-4.1113,-4.1113,-4.1034,-4.0722,-4.0058,-3.9258,-3.8396,-3.7464,-3.7013,-3.6964,-3.7292,-3.7606,-3.8516,-3.966,-3.9936,-4.0565,-4.1073,-4.1431,-4.2505,-4.2983,-4.3428,-4.4219,-4.4954,-4.5343,-4.5205,-4.513,-4.4825,-4.4238,-4.3723,-4.3525,-4.3419,-4.3283,-4.3251,-4.3123,-4.2899,-4.2629,-4.2546,-4.3004,-4.3073,-4.2975,-4.3089,-4.3077,-4.2944,-4.2447,-4.1797,-4.1604,-4.1582,-4.1515,-4.1386,-4.1312,-4.1134,-4.0326,-3.9572,-3.9163,-3.8584,-3.7724,-3.7063,-3.6643,-3.6144,-3.6061,-3.6053,-3.6062,-3.6023,-3.5998,-3.5587,-4.4933,-4.46,-4.3079,-4.3391,-4.4758,-4.4211,-4.3876,-4.3888,-4.3866,-4.3023,-4.1725,-4.1588,-4.1361,-4.1122,-4.1118,-4.1115,-4.1091,-4.1047,-4.1598,-4.1922,-4.2102,-4.272,-4.3178,-4.3535,-4.3632,-4.3454,-4.2978,-4.2585,-4.2211,-4.161,-4.1384,-4.1521,-4.2487,-4.3725,-4.4223,-4.5244,-4.6261,-4.6238,-4.6005,-4.5282,-4.4422,-4.3641,-4.2945,-4.2244,-4.1581,-4.1152,-4.1108,-4.1104,-4.1108,-4.1113,-4.1113,-4.1111,-4.1111,-4.0954,-4.0468,-3.9746,-3.9119,-3.831,-3.7739,-3.7534,-3.754,-3.7833,-3.9031,-3.966,-3.9881,-4.0286,-4.0794,-4.1571,-4.264,-4.3339,-4.3782,-4.4326,-4.5029,-4.5428,-4.5208,-4.5045,-4.4573,-4.4214,-4.4011,-4.3744,-4.3582,-4.341,-4.3269,-4.316,-4.2955,-4.2688,-4.2846,-4.3405,-4.3708,-4.3457,-4.3358,-4.3316,-4.3149,-4.257,-4.1903,-4.1604,-4.1582,-4.1431,-4.1318,-4.1221,-4.0972,-4.0364,-3.989,-3.9566,-3.8907,-3.8165,-3.758,-3.7109,-3.6616,-3.6157,-3.5934,-3.5971,-3.6023,-3.5981,-3.5939,-4.4582,-4.3862,-4.2813,-4.3417,-4.4836,-4.4816,-4.4737,-4.4754,-4.4715,-4.4149,-4.3269,-4.3035,-4.2565,-4.1113,-4.1101,-4.1158,-4.1304,-4.1205,-4.1109,-4.131,-4.1662,-4.2099,-4.2419,-4.2637,-4.2636,-4.2514,-4.2308,-4.2025,-4.1945,-4.1456,-4.1186,-4.1408,-4.2854,-4.3743,-4.4027,-4.5088,-4.6025,-4.6041,-4.5806,-4.5164,-4.4169,-4.3378,-4.2672,-4.1933,-4.1191,-4.1112,-4.1108,-4.1102,-4.1106,-4.1112,-4.1112,-4.1108,-4.1108,-4.1071,-4.0683,-4.0234,-3.9627,-3.9096,-3.8564,-3.8219,-3.8089,-3.8109,-3.9033,-3.9316,-3.9585,-3.9925,-4.0458,-4.103,-4.1907,-4.2455,-4.2947,-4.3539,-4.4151,-4.4189,-4.4075,-4.4106,-4.3903,-4.3933,-4.3964,-4.374,-4.3567,-4.3393,-4.3214,-4.3105,-4.2955,-4.2727,-4.2589,-4.3135,-4.3753,-4.37,-4.3615,-4.3585,-4.3447,-4.3038,-4.253,-4.1758,-4.156,-4.1408,-4.1226,-4.1082,-4.0871,-4.0621,-4.0195,-3.9842,-3.9455,-3.8848,-3.8265,-3.7678,-3.7187,-3.6695,-3.6078,-3.5856,-3.5961,-3.598,-3.5959]},{"header":{"parameterUnit":"m.s-1","parameterCategory":1,"la1":31.0,"la2":29.5877,"lo1":-88.7671,"lo2":-86.6584,"dy":0.0162,"dx":0.0185,"nx":115,"ny":88,"refTime":"2024-04-23T00:00:00:Z","depth":0,"parameterNumber":3,"parameterNumberName":"V-component_of_WINDS"},"data":[0.0,0.0,0.0,0.0,0.0,0.0,0.0,0.0,0.0,0.0,0.0,0.0,0.0,0.0,0.0,0.0,0.0,0.0,0.0,0.0,0.0,0.0,0.0,0.0,0.0,0.0,0.0,0.0,0.0,0.0,0.0,0.0,0.0,0.0,0.0,0.0,0.0,0.0,0.0,0.0,0.0,0.0,0.0,0.0,0.0,0.0,0.0,0.0,0.0,0.0,0.0,0.0,0.0,0.0,0.0,0.0,0.0,0.0,0.0,0.0,0.0,0.0,0.0,0.0,0.0,0.0,0.0,0.0,0.0,0.0,0.0,0.0,0.0,0.0,0.0,0.0,0.0,0.0,0.0,0.0,0.0,0.0,0.0,0.0,0.0,0.0,0.0,0.0,0.0,0.0,0.0,0.0,0.0,0.0,0.0,0.0,0.0,0.0,0.0,0.0,0.0,0.0,0.0,0.0,0.0,0.0,0.0,0.0,0.0,0.0,0.0,0.0,0.0,0.0,0.0,0.0,0.0,0.0,0.0,0.0,0.0,0.0,0.0,0.0,0.0,0.0,0.0,0.0,0.0,0.0,0.0,0.0,0.0,0.0,0.0,0.0,0.0,0.0,0.0,0.0,0.0,0.0,0.0,0.0,0.0,0.0,0.0,0.0,0.0,0.0,0.0,0.0,0.0,0.0,0.0,0.0,0.0,0.0,0.0,0.0,0.0,0.0,0.0,0.0,0.0,0.0,0.0,0.0,0.0,0.0,0.0,0.0,0.0,0.0,0.0,0.0,0.0,0.0,0.0,0.0,0.0,0.0,0.0,0.0,0.0,0.0,0.0,0.0,0.0,0.0,0.0,0.0,0.0,0.0,0.0,0.0,0.0,0.0,0.0,0.0,0.0,0.0,0.0,0.0,0.0,0.0,0.0,0.0,0.0,0.0,0.0,0.0,0.0,0.0,0.0,0.0,0.0,0.0,0.0,0.0,0.0,0.0,0.0,0.0,0.0,0.0,0.0,0.0,0.0,0.0,0.0,0.0,0.0,0.0,0.0,0.0,0.0,0.0,0.0,0.0,0.0,0.0,0.0,0.0,0.0,0.0,0.0,0.0,0.0,0.0,0.0,0.0,0.0,0.0,0.0,0.0,0.0,0.0,0.0,0.0,0.0,0.0,0.0,0.0,0.0,0.0,0.0,0.0,0.0,0.0,0.0,0.0,0.0,0.0,0.0,0.0,0.0,0.0,0.0,0.0,0.0,0.0,0.0,0.0,0.0,0.0,0.0,0.0,0.0,0.0,0.0,0.0,0.0,0.0,0.0,0.0,0.0,0.0,0.0,0.0,0.0,0.0,0.0,0.0,0.0,0.0,0.0,0.0,0.0,0.0,0.0,0.0,0.0,0.0,0.0,0.0,0.0,0.0,0.0,0.0,0.0,0.0,0.0,0.0,0.0,0.0,0.0,0.0,0.0,0.0,0.0,0.0,0.0,0.0,0.0,0.0,0.0,0.0,0.0,0.0,0.0,0.0,0.0,0.0,0.0,0.0,0.0,0.0,0.0,0.0,0.0,0.0,0.0,0.0,0.0,0.0,0.0,0.0,0.0,0.0,0.0,0.0,0.0,0.0,0.0,0.0,0.0,0.0,0.0,0.0,0.0,0.0,0.0,0.0,0.0,0.0,0.0,0.0,0.0,0.0,0.0,0.0,0.0,0.0,0.0,0.0,0.0,0.0,0.0,0.0,0.0,0.0,0.0,0.0,0.0,0.0,0.0,0.0,0.0,0.0,0.0,0.0,0.0,0.0,0.0,0.0,0.0,0.0,0.0,0.0,0.0,0.0,0.0,0.0,0.0,0.0,0.0,0.0,0.0,0.0,0.0,0.0,0.0,0.0,0.0,0.0,0.0,0.0,0.0,0.0,0.0,0.0,0.0,0.0,0.0,0.0,0.0,0.0,0.0,0.0,0.0,0.0,0.0,0.0,0.0,0.0,0.0,0.0,0.0,0.0,0.0,0.0,0.0,0.0,0.0,0.0,0.0,0.0,0.0,0.0,0.0,0.0,0.0,0.0,0.0,0.0,0.0,0.0,0.0,0.0,0.0,0.0,0.0,0.0,0.0,0.0,0.0,0.0,0.0,0.0,0.0,0.0,0.0,0.0,0.0,0.0,0.0,0.0,0.0,0.0,0.0,0.0,0.0,0.0,0.0,0.0,0.0,0.0,0.0,0.0,0.0,0.0,0.0,0.0,0.0,0.0,0.0,0.0,0.0,0.0,0.0,0.0,0.0,0.0,0.0,0.0,0.0,0.0,0.0,0.0,0.0,0.0,0.0,0.0,0.0,0.0,0.0,0.0,0.0,0.0,0.0,0.0,0.0,0.0,0.0,0.0,0.0,0.0,0.0,0.0,0.0,0.0,0.0,0.0,0.0,0.0,0.0,0.0,0.0,0.0,0.0,0.0,0.0,0.0,0.0,0.0,0.0,0.0,0.0,0.0,0.0,0.0,0.0,0.0,0.0,0.0,0.0,0.0,0.0,0.0,0.0,0.0,0.0,0.0,0.0,0.0,0.0,0.0,0.0,0.0,0.0,0.0,0.0,0.0,0.0,0.0,0.0,0.0,0.0,0.0,0.0,0.0,0.0,0.0,0.0,0.0,0.0,0.0,0.0,0.0,0.0,0.0,0.0,0.0,0.0,0.0,0.0,0.0,0.0,0.0,0.0,0.0,0.0,0.0,0.0,0.0,0.0,0.0,0.0,0.0,0.0,0.0,0.0,0.0,0.0,0.0,0.0,0.0,0.0,0.0,0.0,0.0,0.0,0.0,0.0,0.0,0.0,0.0,0.0,0.0,0.0,0.0,0.0,0.0,0.0,0.0,0.0,0.0,0.0,0.0,0.0,0.0,0.0,0.0,0.0,0.0,0.0,0.0,0.0,0.0,0.0,0.0,0.0,0.0,0.0,0.0,0.0,0.0,0.0,0.0,0.0,0.0,0.0,0.0,0.0,0.0,0.0,0.0,0.0,0.0,0.0,0.0,0.0,0.0,0.0,0.0,0.0,0.0,0.0,0.0,0.0,0.0,0.0,0.0,0.0,0.0,0.0,0.0,0.0,0.0,0.0,0.0,0.0,0.0,0.0,0.0,0.0,0.0,0.0,0.0,0.0,0.0,0.0,0.0,0.0,0.0,0.0,0.0,0.0,0.0,0.0,0.0,0.0,0.0,0.0,0.0,0.0,0.0,0.0,0.0,0.0,0.0,0.0,0.0,0.0,0.0,0.0,0.0,0.0,0.0,0.0,0.0,0.0,0.0,0.0,0.0,0.0,0.0,0.0,0.0,0.0,0.0,0.0,0.0,0.0,0.0,0.0,0.0,0.0,0.0,0.0,0.0,0.0,0.0,0.0,0.0,0.0,0.0,0.0,0.0,0.0,0.0,0.0,0.0,0.0,0.0,0.0,0.0,0.0,0.0,0.0,0.0,0.0,0.0,0.0,0.0,0.0,0.0,0.0,0.0,0.0,0.0,0.0,0.0,0.0,0.0,0.0,0.0,0.0,0.0,0.0,0.0,0.0,0.0,0.0,0.0,0.0,0.0,0.0,0.0,0.0,0.0,0.0,0.0,0.0,0.0,0.0,0.0,0.0,0.0,0.0,0.0,0.0,0.0,0.0,0.0,0.0,0.0,0.0,0.0,0.0,0.0,0.0,0.0,0.0,0.0,0.0,0.0,0.0,0.0,0.0,0.0,0.0,0.0,0.0,0.0,0.0,0.0,0.0,0.0,0.0,0.0,0.0,0.0,0.0,0.0,0.0,0.0,0.0,0.0,0.0,0.0,0.0,0.0,0.0,0.0,0.0,0.0,0.0,0.0,0.0,0.0,0.0,0.0,0.0,0.0,0.0,0.0,0.0,0.0,0.0,0.0,0.0,0.0,0.0,0.0,0.0,0.0,0.0,0.0,0.0,0.0,0.0,0.0,0.0,0.0,0.0,0.0,0.0,0.0,0.0,0.0,0.0,0.0,0.0,0.0,0.0,0.0,0.0,0.0,0.0,0.0,0.0,0.0,0.0,0.0,0.0,0.0,0.0,0.0,0.0,0.0,0.0,0.0,0.0,0.0,0.0,0.0,0.0,0.0,0.0,0.0,0.0,0.0,0.0,0.0,0.0,0.0,0.0,0.0,0.0,0.0,0.0,0.0,0.0,0.0,0.0,0.0,0.0,0.0,0.0,0.0,0.0,0.0,0.0,0.0,0.0,0.0,0.0,0.0,0.0,0.0,0.0,0.0,0.0,0.0,0.5127,0.0,0.0,0.0,0.0,0.0,0.0,0.0,0.0,0.0,0.0,0.0,0.0,0.0,0.0,0.0,0.0,0.0,0.0,0.0,0.0,0.0,0.0,0.0,0.0,0.0,0.0,0.0,0.0,0.0,0.0,0.0,0.0,0.0,0.0,0.0,0.0,0.0,0.0,0.0,0.0,0.0,0.0,0.0,0.0,0.0,0.0,0.0,0.0,0.0,0.0,0.0,0.0,0.0,0.0,0.0,0.0,0.0,0.0,0.0,0.0,0.0,0.0,0.0,0.0,0.0,0.0,0.0,0.0,0.0,0.0,0.0,0.0,0.0,0.0,0.0,0.0,0.0,0.0,0.0,0.0,0.0,0.0,0.0,0.0,0.0,0.0,0.0,0.0,0.0,0.0,0.0,0.0,0.0,0.0,0.0,0.0,0.0,0.0,0.0,0.0,0.0,0.0,0.0,0.0,0.0,0.0,0.0,0.0,0.0,0.0,0.3768,0.4099,0.4873,0.5214,0.5108,0.0,0.0,0.0,0.0,0.0,0.0,0.0,0.0,0.0,0.0,0.0,0.0,0.0,0.0,0.0,0.0,0.0,0.0,0.0,0.0,0.0,0.0,0.0,0.0,0.0,0.0,0.0,0.0,0.0,0.0,0.0,0.0,0.0,0.0,0.0,0.0,0.0,0.0,0.0,0.0,0.0,0.0,0.0,0.0,0.0,0.0,0.0,0.0,0.0,0.0,0.0,0.0,0.0,0.0,0.0,0.0,0.0,0.0,0.0,0.0,0.0,0.0,0.0,0.0,0.0,0.0,0.0,0.0,0.0,0.0,0.0,0.0,0.0,0.0,0.0,0.0,0.0,0.0,0.0,0.0,0.0,0.0,0.0,0.0,0.0,0.0,0.0,0.0,0.0,0.0,0.0,0.0,0.0,0.0,0.0,0.0,0.0,0.0,0.0,0.0,0.0,0.0,0.0,0.0,0.0,0.0,0.0,0.0,0.0,0.0,0.0,0.0,0.542,0.5854,0.5754,0.0,0.0,0.0,0.0,0.0,0.0,0.0,0.0,0.0,0.0,0.0,0.0,0.0,0.0,0.0,0.0,0.0,0.0,0.0,0.0,0.0,0.0,0.0,0.0,0.0,0.0,0.0,0.0,0.0,0.0,0.0,0.0,0.0,0.0,0.0,0.0,0.0,0.0,0.0,0.0,0.0,0.0,0.0,0.0,0.0,0.0,0.0,0.0,0.0,0.0,0.0,0.0,0.0,0.0,0.0,0.0,0.0,0.0,0.0,0.0,0.0,0.0,0.0,0.0,0.0,0.0,0.0,0.0,0.0,0.0,0.0,0.0,0.0,0.0,0.0,0.0,0.0,0.0,0.0,0.0,0.0,0.0,0.0,0.0,0.0,0.0,0.0,0.0,0.0,0.0,0.0,0.0,0.0,0.0,0.0,0.0,0.0,0.0,0.0,0.0,0.0,0.0,0.0,0.0,0.0,0.0,0.0,0.0,0.0,0.0,0.447,0.6043,0.6749,0.0,0.7566,0.0,0.0,0.0,0.0,0.0,0.0,0.0,0.0,0.0,0.0,0.0,0.0,0.0,0.0,0.0,0.0,0.0,0.0,0.0,0.0,0.0,0.0,0.0,0.0,0.0,0.0,0.0,0.0,0.0,0.0,0.0,0.0,0.0,0.0,0.0,0.0,0.0,0.0,0.0,0.0,0.0,0.0,0.0,0.0,0.0,0.0,0.0,0.0,0.0,0.0,0.0,0.0,0.0,0.0,0.0,0.0,0.0,0.0,0.0,0.0,0.0,0.0,0.0,0.0,0.0,0.0,0.0,0.0,0.0,0.0,0.0,0.0,0.0,0.0,0.0,0.0,0.0,0.0,0.0,0.0,0.0,0.0,0.0,0.0,0.0,0.0,0.0,0.0,0.0,0.0,0.0,0.0,0.0,0.0,0.0,0.0,0.0,0.0,0.0,0.0,0.0,0.0,0.0,0.0,0.0,0.0,0.0,0.0,0.0,0.0,0.4388,0.6085,0.6958,0.7201,0.0,0.0,0.0,0.0,0.0,0.0,0.0,0.0,0.0,0.0,0.0,0.0,0.0,0.0,0.0,0.0,0.0,0.0,0.0,0.0,0.0,0.0,0.0,0.0,0.0,0.0,0.0,0.0,0.0,0.0,0.0,0.0,0.0,0.0,0.0,0.0,0.0,0.0,0.0,0.0,0.0,0.0,0.0,0.0,0.0,0.0,0.0,0.0,0.0,0.0,0.0,0.0,0.0,0.0,0.0,0.0,0.0,0.0,0.0,0.0,0.0,0.0,0.0,0.0,0.0,0.0,0.0,0.0,0.0,0.0,0.0,0.0,0.0,0.0,0.0,0.0,0.0,0.0,0.0,0.0,0.0,0.0,0.0,0.0,0.0,0.0,0.0,0.0,0.0,0.0,0.0,0.0,0.0,0.0,0.0,0.0,0.0,0.0,0.0,0.0,0.0,0.0,0.0,0.0,0.0,0.0,0.0,0.0,0.0,0.0,0.3215,0.4665,0.6445,0.6704,0.6659,0.6415,0.0,0.0,0.0,0.0,0.0,0.0,0.0,0.0,0.0,0.0,0.0,0.0,0.0,0.0,0.0,0.0,0.0,0.0,0.0,0.0,0.0,0.0,0.0,0.0,0.0,0.0,0.0,0.0,0.0,0.0,0.0,0.0,0.0,0.0,0.0,0.0,0.0,0.0,0.0,0.0,0.0,0.0,0.0,0.0,0.0,0.0,0.0,0.0,0.0,0.0,0.0,0.0,0.0,0.0,0.0,0.0,0.0,0.0,0.0,0.0,0.0,0.0,0.0,0.0,0.0,0.0,0.0,0.0,0.0,0.0,0.0,0.0,0.0,0.0,0.0,0.0,0.0,0.0,0.0,0.0,0.0,0.0,0.0,0.0,0.0,0.0,0.0,0.0,0.0,0.0,0.0,0.0,0.0,0.0,0.0,0.0,0.0,0.0,0.0,0.0,0.0,0.0,0.0,0.0,0.0,0.0,0.0,0.0,0.3699,0.4171,0.5511,0.778,0.6072,0.5817,0.0,0.0,0.0,0.0,0.0,0.0,0.0,0.0,0.0,0.0,0.0,0.0,0.0,0.0,0.0,0.0,0.0,0.0,0.0,0.0,0.0,0.0,0.0,0.0,0.0,0.0,0.0,0.0,0.0,0.0,0.0,0.0,0.0,0.0,0.0,0.0,0.0,0.0,0.0,0.0,0.0,0.0,0.0,0.0,0.0,0.0,0.0,0.0,0.0,0.0,0.0,0.0,0.0,0.0,0.0,0.0,0.0,0.0,0.0,0.0,0.0,0.0,0.0,0.0,0.0,0.0,0.0,0.0,0.0,0.0,0.0,0.0,0.0,0.0,0.0,0.0,0.0,0.0,0.0,0.0,0.0,0.0,0.0,0.0,0.0,0.0,0.0,0.0,0.0,0.0,0.0,0.0,0.0,0.0,0.0,0.0,0.0,0.0,0.0,0.0,0.0,0.0,0.0,0.0,0.0,0.0,0.0,0.0,0.0,0.131,0.3569,0.5096,0.5762,0.6057,0.6366,0.0,0.0,0.0,0.0,0.0,0.0,0.0,0.0,0.0,0.0,0.0,0.0,0.0,0.0,0.0,0.0,0.0,0.0,0.0,0.0,0.0,0.0,0.0,0.0,0.0,0.0,0.0,0.0,0.0,0.0,0.0,0.0,0.0,0.0,0.0,0.0,0.0,0.0,0.0,0.0,0.0,0.0,0.0,0.0,0.0,0.0,0.0,0.0,0.0,0.0,0.0,0.0,0.0,0.0,0.0,0.0,0.0,0.0,0.0,0.0,0.0,0.0,0.0,0.0,0.0,0.0,0.0,0.0,0.0,0.0,0.0,0.0,0.0,0.0,0.0,0.0,0.0,0.0,0.0,0.0,0.0,0.0,0.0,0.0,0.0,0.0,0.0,0.0,0.0,0.0,0.0,0.0,0.0,0.0,0.0,0.0,0.0,0.0,0.0,0.0,0.0,0.0,0.0,0.0,0.0,0.0,0.0,0.0,0.0,-0.0163,0.0,0.3193,0.3735,0.4867,0.5515,0.0,0.0,0.0,0.0,0.0,0.0,0.0,0.0,0.0,0.0,0.0,0.0,0.0,0.0,0.0,0.0,0.0,0.0,0.0,0.0,0.0,0.0,0.0,0.0,0.0,0.0,0.0,0.0,0.0,0.0,0.0,0.0,0.0,0.0,0.0,0.0,0.0,0.0,0.0,0.0,0.0,0.0,0.0,0.0,0.0,0.0,0.0,0.0,0.0,0.0,0.0,0.0,0.0,0.0,0.0,0.0,0.0,0.0,0.0,0.0,0.0,0.0,0.0,0.0,0.0,0.0,0.0,0.0,0.0,0.0,0.0,0.0,0.0,0.0,0.0,0.0,0.0,0.0,0.0,0.0,0.0,0.0,0.0,0.0,0.0,0.0,0.0,0.0,0.0,0.0,0.0,0.0,0.0,0.0,0.0,0.0,0.0,0.0,0.0,0.0,0.0,0.0,0.0,0.0,0.0,0.0,0.0,0.0,-0.1517,-0.0343,-0.0925,-0.0169,0.1977,0.2294,0.3104,0.0,0.0,0.0,0.0,0.0,0.0,0.0,0.0,0.0,0.0,0.0,0.0,0.0,0.0,0.0,0.0,0.0,0.0,0.0,0.0,0.0,0.0,0.0,0.0,0.0,0.0,0.0,0.0,0.0,0.0,0.0,0.0,0.0,0.0,0.0,0.0,0.0,0.0,0.0,0.0,0.0,0.0,0.0,0.0,0.0,0.0,0.0,0.0,0.0,0.0,0.0,0.0,0.0,0.0,0.0,0.0,0.0,0.0,0.0,0.0,0.0,0.0,0.0,0.0,0.0,0.0,0.0,0.0,0.0,0.0,0.0,0.0,0.0,0.0,0.0,0.0,0.0,0.0,0.0,0.0,0.0,0.0,0.0,0.0,0.0,0.0,0.0,0.0,0.0,0.0,0.0,0.0,0.0,0.0,0.0,0.0,0.0,0.0,0.0,0.0,0.0,0.0,0.0,0.0,0.0,0.0,0.0,0.0,0.0,-0.2786,-0.3316,-0.2435,0.0056,0.111,0.2579,0.0,0.0,0.0,0.0,0.0,0.0,0.0,0.0,0.0,0.0,0.0,0.0,0.0,0.0,0.0,0.0,0.0,0.0,0.0,0.0,0.0,0.0,0.0,0.0,0.0,0.0,0.0,0.0,0.0,0.0,0.0,0.0,0.0,0.0,0.0,0.0,0.0,0.0,0.0,0.0,0.0,0.0,0.0,0.0,0.0,0.0,0.0,0.0,0.0,0.0,0.0,0.0,0.0,0.0,0.0,0.0,0.0,0.0,0.0,0.0,0.0,0.0,0.0,0.0,0.0,0.0,0.0,0.0,0.0,0.0,0.0,0.0,0.0,0.0,0.0,0.0,0.0,0.0,0.0,0.0,0.0,0.0,0.0,0.0,0.0,0.0,0.0,0.0,0.0,0.0,0.0,0.0,0.0,0.0,0.0,0.0,0.0,0.0,0.0,0.0,0.0,0.0,0.0,0.0,0.0,0.0,0.0,0.0,0.0,-0.6574,-0.6421,-0.5076,-0.2369,-0.0449,0.1671,0.3982,0.0,0.0,0.0,0.0,0.0,0.0,0.0,0.0,0.0,0.0,0.0,0.0,0.0,0.0,0.0,0.0,0.0,0.0,0.0,0.0,0.0,0.0,0.0,0.0,0.0,0.0,0.0,0.0,0.0,0.0,0.0,0.0,0.0,0.0,0.0,0.0,0.0,0.0,0.0,0.0,0.0,0.0,0.0,0.0,0.0,0.0,0.0,0.0,0.0,0.0,0.0,0.0,0.0,0.0,0.0,0.0,0.0,0.0,0.0,0.0,0.0,0.0,0.0,0.0,0.0,0.0,0.0,0.0,0.0,0.0,0.0,0.0,0.0,0.0,0.0,0.0,0.0,0.0,0.0,0.0,0.0,0.0,0.0,0.0,0.0,0.0,0.0,0.0,0.0,0.0,0.0,0.0,0.0,0.0,0.0,0.0,0.0,0.0,0.0,0.0,0.0,0.0,0.0,0.0,0.0,0.0,0.0,0.0,-1.1099,-0.9962,-0.796,-0.5138,-0.2286,0.0436,0.0,0.0,0.0,0.0,0.0,0.0,0.0,0.0,0.0,0.0,0.0,0.0,0.0,0.0,0.0,0.0,0.0,0.0,0.0,0.0,0.0,0.0,0.0,0.0,0.0,0.0,0.0,0.0,0.0,0.0,0.0,0.0,0.0,0.0,0.0,0.0,0.0,0.0,0.0,0.0,0.0,0.0,0.0,0.0,0.0,0.0,0.0,0.0,0.0,0.0,0.0,0.0,0.0,0.0,0.0,0.0,0.0,0.0,0.0,0.0,0.0,0.0,0.0,0.0,0.0,0.0,0.0,0.0,0.0,0.0,0.0,0.0,0.0,0.0,0.0,0.0,0.0,0.0,0.0,0.0,0.0,0.0,0.0,0.0,0.0,0.0,0.0,0.0,0.0,0.0,0.0,0.0,0.0,0.0,0.0,0.0,0.0,0.0,0.0,0.0,0.0,0.0,0.0,0.0,0.0,0.0,0.0,0.0,0.0,-1.1122,-1.1285,-0.9678,-0.6281,-0.3351,-0.0354,0.0,0.0,0.0,0.0,0.0,0.0,0.0,0.0,0.0,0.0,0.0,0.0,0.0,0.0,0.0,0.0,0.0,0.0,0.0,0.0,0.0,0.0,0.0,0.0,0.0,0.0,0.0,0.0,0.0,0.0,0.0,0.0,0.0,0.0,0.0,0.0,0.0,0.0,0.0,0.0,0.0,0.0,0.0,0.0,0.0,0.0,0.0,0.0,0.0,0.0,0.0,0.0,0.0,0.0,0.0,0.0,0.0,0.0,0.0,0.0,0.0,0.0,0.0,0.0,0.0,0.0,0.0,0.0,0.0,0.0,0.0,0.0,0.0,0.0,0.0,0.0,0.0,0.0,0.0,0.0,0.0,0.0,0.0,0.0,0.0,0.0,0.0,0.0,0.0,0.0,0.0,0.0,0.0,0.0,0.0,0.0,0.0,0.0,0.0,0.0,0.0,0.0,0.0,0.0,0.0,0.0,0.0,0.0,-1.0818,-1.249,-1.2261,-1.0516,-0.7128,-0.376,-0.0612,0.0,0.0,0.0,0.0,0.0,0.0,0.0,0.0,0.0,0.0,0.0,0.0,0.0,0.0,0.0,0.0,0.0,0.0,0.0,0.0,0.0,0.0,0.0,0.0,0.0,0.0,0.0,0.0,0.0,0.0,0.0,0.0,0.0,0.0,0.0,0.0,0.0,0.0,0.0,0.0,0.0,0.0,0.0,0.0,0.0,0.0,0.0,0.0,0.0,0.0,0.0,0.0,0.0,0.0,0.0,0.0,0.0,0.0,0.0,0.0,0.0,0.0,0.0,0.0,0.0,0.0,0.0,0.0,0.0,0.0,0.0,0.0,0.0,0.0,0.0,0.0,0.0,0.0,0.0,0.0,0.0,0.0,0.0,0.0,0.0,0.0,0.0,0.0,0.0,0.0,0.0,0.0,0.0,0.0,0.0,0.0,0.0,0.0,0.0,0.0,0.0,0.0,0.0,0.0,0.0,0.0,0.0,0.0,-1.1534,-1.42,-1.2946,-1.0817,-0.774,-0.3861,-0.0608,0.0,0.0,0.0,0.0,0.0,0.0,0.0,0.0,0.0,0.0,0.0,0.0,0.0,0.0,0.0,0.0,0.0,0.0,0.0,0.0,0.0,0.0,0.0,0.0,0.0,0.0,0.0,0.0,0.0,0.0,0.0,0.0,0.0,0.0,0.0,0.0,0.0,0.0,0.0,0.0,0.0,0.0,0.0,0.0,0.0,0.0,0.0,0.0,0.0,0.0,0.0,0.0,0.0,0.0,0.0,0.0,0.0,0.0,0.0,0.0,0.0,0.0,0.0,0.0,0.0,0.0,0.0,0.0,0.0,0.0,0.0,0.0,0.0,0.0,0.0,0.0,0.0,0.0,0.0,0.0,0.0,0.0,0.0,0.0,0.0,0.0,0.0,0.0,0.0,0.0,0.0,0.0,0.0,0.0,0.0,0.0,0.0,0.0,0.0,0.0,0.0,0.0,0.0,0.0,0.0,0.0,0.0,0.0,-1.1349,-1.3369,-1.2944,-1.1119,-0.7843,-0.435,-0.1089,0.0,0.0,0.0,0.0,0.0,0.0,0.0,0.0,0.0,0.0,0.0,0.0,0.0,0.0,0.0,0.0,0.0,0.0,0.0,0.0,0.0,0.0,0.0,0.0,0.0,0.0,0.0,0.0,0.0,0.0,0.0,0.0,0.0,0.0,0.0,0.0,0.0,0.0,0.0,0.0,0.0,0.0,0.0,0.0,0.0,0.0,0.0,0.0,0.5483,0.0,0.0,0.0,0.0,0.0,0.0,0.0,0.0,0.0,0.0,0.0,0.0,0.0,0.0,0.0,0.0,0.0,0.0,0.0,0.0,0.0,0.0,0.0,0.0,0.0,0.0,0.0,0.0,0.0,0.0,0.0,0.0,0.0,0.0,0.0,0.0,0.0,0.0,0.0,0.0,0.0,0.0,0.0,0.0,0.0,0.0,0.0,0.0,0.0,0.0,0.0,0.0,0.0,0.0,0.0,0.0,0.0,0.0,0.0,-1.207,-1.382,-1.3165,-1.1372,-0.8411,-0.5017,-0.1672,0.0,0.0,0.0,0.0,0.0,0.0,0.0,0.0,0.0,0.0,0.0,0.0,0.0,0.0,0.0,0.0,0.0,0.0,0.0,0.0,0.0,0.0,0.0,0.0,0.0,0.0,0.0,0.0,0.0,0.0,0.0,0.0,0.0,0.0,0.0,0.0,0.0,0.0,0.0,0.0,0.0,0.0,0.0,0.0,0.0,0.0,0.0,0.0,0.0,0.0,0.0,0.0,0.0,0.0,0.0,0.0,0.0,0.0,0.0,0.0,0.0,0.0,0.0,0.0,0.0,0.0,0.0,0.0,0.0,0.0,0.0,0.0,0.0,0.0,0.0,0.0,0.0,0.0,0.0,0.0,0.0,0.0,0.0,0.0,0.0,0.0,0.0,0.0,0.0,0.0,0.0,0.0,0.0,0.0,0.0,0.0,0.0,0.0,0.0,0.0,0.0,0.0,0.0,0.0,0.0,0.0,0.0,-1.113,-1.2648,-1.4387,-1.3356,-1.1539,-0.9013,-0.5728,-0.2375,0.1028,0.0,0.0,0.0,0.0,0.0,0.0,0.0,0.0,0.0,0.0,0.0,0.0,0.0,0.0,0.0,0.0,0.0,0.0,0.0,0.0,0.0,0.0,0.0,0.0,0.0,0.0,0.0,0.0,0.0,0.0,0.0,0.0,0.0,0.0,0.0,0.0,0.0,0.0,0.336,0.3987,0.0,0.0,0.0,0.0,0.0,0.0,0.0,0.0,0.506,0.0,0.0,0.0,0.0,0.0,0.0,0.0,0.0,0.0,0.0,0.0,0.0,0.0,0.0,0.0,0.0,0.0,0.0,0.0,0.0,0.0,0.0,0.0,0.0,0.0,0.0,0.0,0.0,0.0,0.0,0.0,0.0,0.0,0.0,0.0,0.0,0.0,0.0,0.0,0.0,0.0,0.0,0.0,0.0,0.0,0.0,0.0,0.0,0.0,0.0,0.0,0.0,0.0,0.0,0.0,0.0,-0.9559,-0.9909,-1.1271,-1.3631,-1.2998,-1.1414,-0.8868,-0.623,-0.3291,-0.0129,0.0,0.0,0.0,0.0,0.0,0.0,0.0,0.0,0.0,0.0,0.0,0.0,0.0,0.0,0.0,0.0,0.0,0.0,0.0,0.0,0.0,0.0,0.0,0.0,0.0,0.0,0.0,0.0,0.0,0.0,0.0,0.0,0.0,0.0,0.0,0.0,0.0,0.0,0.0,0.408,0.4243,0.0,0.0,0.0,0.0,0.0,0.0,0.0,0.0,0.4666,0.0,0.0,0.0,0.0,0.0,0.0,0.0,0.0,0.0,0.0,0.0,0.0,0.0,0.0,0.0,0.0,0.0,0.0,0.0,0.0,0.0,0.0,0.0,0.0,0.0,0.0,0.0,0.0,0.0,0.0,0.0,0.0,0.0,0.0,0.0,0.0,0.0,0.0,0.0,0.0,0.0,0.0,0.0,0.0,0.0,0.0,0.0,0.0,0.0,0.0,0.0,0.0,0.0,0.0,0.0,-0.9502,-1.1048,-1.2432,-1.3636,-1.2922,-1.1496,-0.9319,-0.676,-0.3952,0.0,0.0,0.0,0.0,0.0,0.0,0.0,0.0,0.0,0.0,0.0,0.0,0.0,0.0,0.0,0.0,0.0,0.0,0.0,0.0,0.0,0.0,0.0,0.0,0.0,0.0,0.0,0.0,0.0,0.0,0.0,0.0,0.0,0.0,0.0,0.0,0.0,0.0,0.0,0.0,0.4069,0.4188,0.4944,0.0,0.0,0.0,0.0,0.0,0.0,0.4463,0.4347,0.0,0.0,0.0,0.0,0.0,0.0,0.0,0.0,0.0,0.0,0.0,0.0,0.0,0.0,0.0,0.0,0.0,0.0,0.0,0.0,0.0,0.0,0.0,0.0,0.0,0.0,0.0,0.0,0.0,0.0,0.0,0.0,0.0,0.0,0.0,0.0,0.0,0.0,0.0,0.0,0.0,0.0,0.0,0.0,0.0,0.0,0.0,0.0,0.0,0.0,0.0,0.0,0.0,0.0,0.0,-0.9629,-1.2027,-1.3447,-1.3747,-1.2872,-1.1578,-0.9777,-0.7292,-0.4589,0.0,0.0,0.0,0.0,0.0,0.0,0.0,0.0,0.0,0.0,0.0,0.0,0.0,0.0,0.0,0.0,0.0,0.0,0.0,0.0,0.0,0.0,0.0,0.0,0.0,0.0,0.0,0.0,0.0,0.0,0.0,0.0,0.0,0.0,0.0,0.0,0.0,0.0,0.0,0.0,0.0,0.4156,0.4684,0.4441,0.0,0.0,0.0,0.0,0.4304,0.4564,0.0,0.0,0.0,0.0,0.0,0.0,0.0,0.0,0.0,0.0,0.0,0.0,0.0,0.0,0.0,0.0,0.0,0.0,0.0,0.0,0.0,0.0,0.0,0.0,0.0,0.0,0.0,0.0,0.0,0.0,0.0,0.0,0.0,0.0,0.0,0.0,0.0,0.0,0.0,0.0,0.0,0.0,0.0,0.0,0.0,0.0,0.0,0.0,0.0,0.0,0.0,0.0,0.0,0.0,0.0,0.0,-0.9529,-1.0842,-1.2163,-1.3404,-1.256,-1.1378,-0.9906,-0.7806,-0.5262,0.0,0.0,0.0,0.0,0.0,0.0,0.0,0.0,0.0,0.0,0.0,0.0,0.0,0.0,0.0,0.0,0.0,0.0,0.0,0.0,0.0,0.0,0.0,0.0,0.0,0.0,0.0,0.0,0.0,0.0,0.0,0.0,0.0,0.0,0.0,0.0,0.0,0.0,0.0,0.0,0.0,0.4141,0.4046,0.3682,0.3624,0.0,0.0,0.487,0.6288,0.6514,0.0,0.0,0.0,0.0,0.0,0.0,0.0,0.0,0.0,0.0,0.0,0.0,0.0,0.0,0.0,0.0,0.0,0.0,0.0,0.0,0.0,0.0,0.0,0.0,0.0,0.0,0.0,0.0,0.0,0.0,0.0,0.0,0.0,0.0,0.0,0.0,0.0,0.0,0.0,0.0,0.0,0.0,0.0,0.0,0.0,0.0,0.0,0.0,0.0,0.0,0.0,0.0,0.0,0.0,0.0,-0.7885,-0.9159,-1.1192,-1.2473,-1.2953,-1.2114,-1.1002,-0.9569,-0.7851,-0.558,0.0,0.0,0.0,0.0,0.0,0.0,0.0,0.0,0.0,0.0,0.0,0.0,0.0,0.0,0.0,0.0,0.0,0.0,0.0,0.0,0.0,0.0,0.0,0.0,0.0,0.0,0.0,0.0,0.0,0.0,0.0,0.0,0.0,0.0,0.0,0.0,0.0,0.0,0.0,0.0,0.0,0.0,0.4276,0.4192,0.0,0.0,0.0,0.5274,0.551,0.0,0.0,0.0,0.0,0.0,0.0,0.0,0.0,0.0,0.0,0.0,0.0,0.0,0.0,0.0,0.0,0.0,0.0,0.0,0.0,0.0,0.0,0.0,0.0,0.0,0.0,0.0,0.0,0.0,0.0,0.0,0.0,0.0,0.0,0.0,0.0,0.0,0.0,0.0,0.0,0.0,0.0,0.0,0.0,0.0,0.0,0.0,0.0,0.0,0.0,0.0,0.0,0.0,0.0,0.0,0.0,0.0,-0.8765,-1.143,-1.2687,-1.2418,-1.1744,-1.0793,-0.9506,-0.81,0.0,0.0,0.0,0.0,0.0,0.0,0.0,0.0,0.0,0.0,0.0,0.0,0.0,0.0,0.0,0.0,0.0,0.0,0.0,0.0,0.0,0.0,0.0,0.0,0.0,0.0,0.0,0.207,0.0,0.0,0.0,0.0,0.0,0.0,0.0,0.0,0.0,0.0,0.0,0.0,0.0,0.0,0.4128,0.4363,0.4466,0.4623,0.0,0.0,0.5549,0.5169,0.6059,0.6669,0.0,0.0,0.0,0.0,0.0,0.0,0.0,0.0,0.0,0.0,0.0,0.0,0.0,0.0,0.0,0.0,0.0,0.0,0.0,0.0,0.0,0.0,0.0,0.0,0.0,0.0,0.0,0.0,0.0,0.0,0.0,0.0,0.0,0.0,0.0,0.0,0.0,0.0,0.0,0.0,0.0,0.0,0.0,0.0,0.0,0.0,0.0,0.0,0.0,0.0,0.0,0.0,0.0,0.0,0.0,-0.8566,-1.0993,-1.2165,-1.205,-1.1632,-1.0919,-0.989,-0.8727,-0.69,0.0,0.0,0.0,0.0,0.0,0.0,0.0,0.0,0.0,0.0,0.0,0.0,0.0,0.0,0.0,0.0,0.0,0.0,0.0,0.0,0.0,0.0,0.0,0.0,0.0,0.0,0.0,0.0,0.0,0.0,0.0,0.0,0.0,0.0,0.0,0.0,0.0,0.0,0.0,0.0,0.0,0.3646,0.3821,0.3904,0.4429,0.0,0.0,0.5724,0.6599,0.7048,0.7623,0.8323,0.0,0.0,0.0,0.0,0.0,0.0,0.0,0.0,0.0,0.0,0.0,0.0,0.0,0.0,0.0,0.0,0.0,0.0,0.0,0.0,0.0,0.0,0.0,0.0,0.0,0.0,0.0,0.0,0.0,0.0,0.0,0.0,0.0,0.0,0.0,0.0,0.0,0.0,0.0,0.0,0.0,0.0,0.0,0.0,0.0,0.0,0.0,0.0,0.0,0.0,0.0,0.0,0.0,-0.7326,-0.7904,-1.03,-1.1563,-1.1601,-1.1111,-1.0482,-0.9754,-0.8744,-0.7232,0.0,0.0,0.0,0.0,0.0,0.0,0.0,0.0,0.0,0.0,0.0,0.0,0.0,0.0,0.0,0.0,0.0,0.0,0.0,0.0,0.0,0.0,0.0,0.0,0.0,0.0,0.0,0.0,0.1594,0.163,0.1691,0.0,0.0,0.0,0.0,0.0,0.0,0.0,0.0,0.0,0.0,0.4179,0.4193,0.4512,0.0,0.0,0.5876,0.604,0.6306,0.6628,0.6932,0.7173,0.7428,0.0,0.0,0.0,0.0,0.0,0.0,0.0,0.0,0.0,0.0,0.0,0.0,0.0,0.0,0.0,0.0,0.0,0.0,0.0,0.0,0.0,0.0,0.0,0.0,0.0,0.0,0.0,0.0,0.0,0.0,0.0,0.0,0.0,0.0,0.0,0.0,0.0,0.0,0.0,0.0,0.0,0.0,0.0,0.0,0.0,0.0,0.0,0.0,0.0,0.0,0.0,0.0,-0.6884,-0.7329,-0.9711,-1.1016,-1.1136,-1.07,-1.0252,-0.9685,-0.8867,-0.7699,0.0,0.0,0.0,0.0,0.0,0.0,0.0,0.0,0.0,0.0,0.0,0.0,0.0,0.0,0.0,0.0,0.0,0.0,0.0,0.0,0.0,0.0,0.0,0.0,0.0,0.0,0.0,0.0,0.1466,0.1476,0.1389,0.0,0.0,0.0,0.0,0.0,0.0,0.0,0.0,0.0,0.0,0.4407,0.4474,0.4922,0.5381,0.5595,0.5979,0.6155,0.5894,0.6092,0.6246,0.6229,0.0,0.0,0.0,0.0,0.0,0.0,0.0,0.0,0.0,0.0,0.0,0.0,0.0,0.0,0.0,0.0,0.0,0.0,0.0,0.0,0.0,0.0,0.0,0.0,0.0,0.0,0.0,0.0,0.0,0.0,-0.3136,0.0,0.0,0.0,0.0,0.0,0.0,0.0,0.0,0.0,0.0,0.0,0.0,0.0,0.0,0.0,0.0,0.0,0.0,0.0,0.0,0.0,0.0,-0.6686,-0.6937,-0.9336,-1.0573,-1.0545,-1.0475,-1.0293,-0.9863,-0.9311,-0.8322,-0.6967,0.0,0.0,0.0,0.0,0.0,0.0,0.0,0.0,0.0,0.0,0.0,0.0,0.0,0.0,0.0,0.0,0.0,0.0,0.0,0.0,0.0,0.0,0.0,0.0,0.0,0.0,0.0691,0.0805,0.1012,0.0,0.0,0.0,0.0,0.0,0.0,0.0,0.0,0.0,0.0,0.3865,0.4078,0.4528,0.4952,0.5315,0.5635,0.5932,0.5983,0.5649,0.5657,0.5775,0.0,0.0,0.0,0.0,0.0,0.0,0.0,0.0,0.0,0.0,0.0,0.0,0.0,0.0,0.0,0.0,0.0,0.0,0.0,0.0,0.0,0.0,0.0,0.0,0.0,0.0,0.0,-0.3964,-0.3698,0.0,0.0,0.0,0.0,0.0,0.0,0.0,0.0,0.0,0.0,0.0,-0.8946,-0.8667,0.0,0.0,0.0,0.0,0.0,0.0,0.0,0.0,0.0,0.0,0.0,0.0,-0.6224,-0.6544,-0.8695,-0.99,-0.9911,-0.9771,-0.962,-0.9511,-0.9062,-0.8089,-0.6642,0.0,0.0,0.0,0.0,0.0,0.0,0.0,0.0,0.0,0.0,0.0,0.0,0.0,0.0,0.0,0.0,0.0,0.0,0.0,0.0,0.0,0.0,0.0,0.0,0.0,0.1195,0.0,0.0,0.0,0.0,0.0,0.0,0.0,0.0,0.0,0.0,0.0,0.3515,0.383,0.4137,0.4425,0.4626,0.506,0.5382,0.0,0.0,0.0,0.0,0.0,0.0,0.0,0.0,0.0,0.0,0.0,0.0,0.0,0.0,0.5448,0.5716,0.5735,0.5769,0.5849,0.0,0.0,0.0,0.0,0.0,0.0,0.0,0.0,0.0,0.0,0.0,0.0,0.0,0.0,-0.5124,0.0,-0.455,0.0,0.0,0.0,0.0,0.0,0.0,0.0,0.0,-0.7936,-0.8847,-0.9614,-0.9358,-0.9285,0.0,-0.873,-0.7877,0.0,0.0,0.0,0.0,0.0,0.0,0.0,0.0,-0.6606,-0.6765,-0.8498,-0.9436,-0.9382,-0.9279,-0.9198,-0.9198,-0.8877,-0.8126,-0.6928,-0.6073,-0.4986,0.0,0.0,0.0,0.0,0.0,0.0,0.0,0.0,0.0,0.0,0.0,0.0,0.0,0.0,0.0,0.0,0.0,0.0,0.0,0.0,0.0,0.0,0.0,0.1279,0.0,0.0,0.0,0.0,0.0,0.0,0.0,0.0,0.0,0.3011,0.3513,0.3926,0.4155,0.4511,0.4816,0.4946,0.0,0.0,0.0,0.0,0.0,0.0,0.0,0.5325,0.5254,0.5427,0.5682,0.595,0.6017,0.6193,0.6544,0.0,0.0,0.6789,0.6893,0.698,0.7137,0.7067,0.7057,0.7199,0.6721,0.6265,0.0,0.0,0.0,0.0,0.0,0.0,0.0,0.0,-0.6945,-0.6998,0.0,-0.5854,0.0,0.0,0.0,0.0,0.0,-0.5919,0.0,0.0,-0.939,-0.9991,-0.9904,-0.986,-0.9797,-0.9591,-0.897,-0.8685,-0.8617,-0.7361,0.0,0.0,0.0,0.0,0.0,0.0,-0.7669,-0.7589,-0.8675,-0.916,-0.8965,-0.8965,-0.896,-0.896,-0.877,-0.8401,-0.7827,-0.6945,-0.6172,-0.5529,-0.362,0.0,0.0,0.0,0.0,0.0,0.0,0.0,0.0,0.0,0.0,0.0,0.0,0.0,0.0,0.0,0.0,0.0,0.0,0.0,0.0,0.0945,0.0,0.0,0.0,0.0,0.0,0.0,0.0,0.0,0.0,0.0,0.3528,0.3962,0.4419,0.465,0.0,0.0,0.0,0.0,0.547,0.5382,0.5678,0.5758,0.5466,0.5481,0.5569,0.5687,0.0,0.0,0.6428,0.6234,0.6163,0.6528,0.65,0.6467,0.6614,0.6933,0.7219,0.741,0.7307,0.725,0.73,0.6889,0.6449,-0.8383,0.0,0.0,0.0,0.0,-0.7291,-0.7306,-0.7517,-0.7659,-0.7604,-0.7332,-0.7246,0.0,0.0,0.0,0.0,0.0,0.0,-0.737,-0.8253,-0.8821,-0.9476,-1.0159,-0.9681,-0.9572,-0.9787,-0.8894,-0.8732,-0.9077,-0.8107,-0.7202,-0.6415,0.0,0.0,0.0,0.0,-0.72,-0.7181,-0.8134,-0.8556,-0.8365,-0.8365,-0.8365,-0.8365,-0.8458,-0.843,-0.8236,-0.7975,-0.7355,-0.6376,-0.5467,0.0,0.0,0.0,0.0,0.0,0.0,0.0,0.0,0.0,0.0,0.0,0.0,0.0,0.0,0.0,0.0,0.0,0.0,0.0,0.1174,0.1632,0.1786,0.0,0.0,0.0,0.0,0.0,0.0,0.0,0.0,0.0,0.3986,0.4222,0.4485,0.0,0.0,0.5238,0.5456,0.5559,0.5564,0.544,0.0,0.0,0.0,0.5706,0.5846,0.5963,0.6125,0.6307,0.6491,0.6403,0.6404,0.6581,0.6565,0.6655,0.6942,0.711,0.7154,0.7121,0.7241,0.7352,0.7279,0.7095,0.6922,-0.9203,-0.8705,-0.8151,-0.8112,-0.8398,-0.8323,-0.8337,-0.8474,-0.8814,-0.8826,-0.8546,-0.8304,-0.813,-0.8004,-0.727,0.0,0.0,0.0,-0.7941,-0.8815,-0.9037,-0.9528,-1.0136,-0.9658,-0.95,-0.9606,-0.8955,-0.8744,-0.8903,-0.8464,-0.7922,-0.7354,0.0,0.0,-0.6709,-0.7416,-0.7717,-0.752,-0.8103,-0.8258,-0.7996,-0.7991,-0.7949,-0.7872,-0.8212,-0.8365,-0.8289,-0.8435,-0.8176,-0.7421,-0.6726,-0.5765,0.0,0.0,0.0,0.0,0.0,0.0,0.0,0.0,0.0,0.0,0.0,0.0444,0.0,0.0,0.0,0.0,0.0459,0.0921,0.1526,0.1968,0.0,0.0,0.0,0.0,0.0,0.0,0.0,0.3263,0.3579,0.4,0.4409,0.4665,0.4892,0.509,0.5269,0.5447,0.558,0.0,0.5621,0.5469,0.5628,0.5754,0.5763,0.5928,0.6166,0.6421,0.6562,0.6668,0.6827,0.6715,0.6592,0.6701,0.6714,0.683,0.7146,0.7268,0.7255,0.7045,0.7211,0.734,0.7208,0.7265,0.7256,-0.9966,-0.9835,-0.9034,-0.8835,-0.9025,-0.9437,-0.9594,-0.9631,-1.0069,-1.028,-1.019,-0.9119,-0.8708,-0.8735,-0.7308,0.0,-0.8363,-0.8214,-0.8692,-0.9596,-0.9814,-0.9963,-1.0005,-0.9738,-0.9526,-0.9329,-0.9068,-0.8727,-0.8333,-0.8476,-0.8481,-0.8284,-0.8457,-0.8453,-0.8336,-0.8669,-0.8666,-0.8365,-0.8304,-0.8138,-0.7808,-0.7765,-0.7646,-0.7518,-0.8059,-0.8289,-0.814,-0.8475,-0.8618,-0.8388,-0.7513,-0.678,-0.6131,0.0,0.0,0.0,0.0,0.0,0.0,0.0,0.0,0.0,0.0,0.0,0.0,0.0,0.0,0.0,0.1147,0.0,0.1767,0.2132,0.0,0.0,0.0,0.3225,0.3091,0.3366,0.3621,0.3834,0.0,0.0,0.4918,0.0,0.5416,0.546,0.5597,0.5694,0.5699,0.5694,0.5648,0.5537,0.5829,0.6083,0.5967,0.6214,0.6559,0.6948,0.7052,0.7085,0.7282,0.6991,0.6754,0.6868,0.6903,0.698,0.7176,0.7391,0.745,0.7277,0.7246,0.7231,0.7257,0.7382,0.7456,-1.008,-0.9872,-0.9729,-0.9649,-0.9677,-0.9772,-0.9737,-0.9625,-1.0069,-1.014,-1.0009,-1.0021,-0.9972,-0.9807,-0.9278,-0.9067,-0.9074,-0.9348,-0.949,-0.962,-1.0032,-1.0221,-1.0211,-0.9804,-0.9596,-0.9502,-0.9011,-0.8591,-0.8299,-0.8209,-0.8089,-0.8008,-0.8012,-0.816,-0.8312,-0.8226,-0.8197,-0.8114,-0.7785,-0.7631,-0.7569,-0.7411,-0.7373,-0.7518,-0.7949,-0.814,-0.814,-0.8513,-0.8604,-0.8406,-0.8309,-0.7974,-0.7377,-0.6244,0.0,0.0,0.0,0.0,0.0,0.0,0.0,0.0,0.0,0.1016,0.1269,0.0,0.1256,0.0,0.1269,0.1837,0.2639,0.2792,0.0,0.0,0.3701,0.3896,0.3829,0.425,0.4522,0.4437,0.4649,0.4972,0.5461,0.5573,0.5766,0.6121,0.5905,0.5721,0.5844,0.5784,0.568,0.5695,0.5933,0.616,0.6342,0.6828,0.7269,0.745,0.731,0.7213,0.7174,0.7074,0.7017,0.7095,0.7103,0.7219,0.7369,0.7484,0.7555,0.7597,0.7543,0.7434,0.7448,0.7546,0.7596,-0.9956,-0.9839,-0.9858,-0.9625,-0.9301,-0.9864,-0.9947,-0.9821,-1.0235,-1.0277,-1.0063,-1.0,-0.9906,-0.9689,-0.9241,-0.9005,-0.8967,-0.9289,-0.9517,-0.9614,-0.9856,-1.0033,-1.0115,-0.9708,-0.9363,-0.9152,-0.882,-0.8479,-0.8139,-0.8006,-0.7924,-0.7891,-0.7891,-0.7889,-0.7928,-0.7963,-0.7888,-0.7732,-0.7442,-0.739,-0.7601,-0.7415,-0.7375,-0.7645,-0.7876,-0.791,-0.7834,-0.8131,-0.8208,-0.8021,-0.8289,-0.8315,-0.7935,-0.7372,-0.6697,0.0,0.0,0.0,0.0,0.0,0.0,0.0,0.0,0.0,0.0,0.0,0.2037,0.0,0.2212,0.2651,0.314,0.3359,0.3605,0.3887,0.4233,0.4493,0.4486,0.4848,0.5105,0.51,0.524,0.5497,0.5941,0.6121,0.6254,0.6384,0.626,0.6198,0.6116,0.6034,0.5994,0.6035,0.6302,0.67,0.701,0.7323,0.7541,0.7683,0.7501,0.7288,0.7364,0.7253,0.7172,0.7316,0.7257,0.7261,0.7442,0.7415,0.7463,0.7801,0.7717,0.759,0.7733,0.7712,0.7666,-0.9786,-0.9798,-0.9638,-0.9273,-0.8774,-0.9795,-1.0005,-0.9705,-1.0102,-1.0174,-0.9995,-0.9459,-0.9237,-0.9115,-0.8284,-0.8166,-0.8521,-0.8781,-0.9086,-0.9515,-0.9559,-0.9694,-0.9864,-0.9437,-0.9047,-0.8624,-0.856,-0.83,-0.7882,-0.7908,-0.7856,-0.7856,-0.7852,-0.7768,-0.7547,-0.7705,-0.7685,-0.7447,-0.7293,-0.7359,-0.7687,-0.7487,-0.7521,-0.7792,-0.7823,-0.7718,-0.7518,-0.771,-0.7748,-0.7518,-0.7868,-0.8102,-0.8093,-0.8134,-0.7785,0.0,-0.5969,0.0,0.0,0.0,0.0,0.0,0.0,0.0,0.0,0.2751,0.2992,0.3276,0.3533,0.3678,0.367,0.4109,0.4355,0.4474,0.4877,0.518,0.5218,0.5458,0.5683,0.5808,0.5855,0.5985,0.6432,0.67,0.6745,0.6741,0.6836,0.6884,0.67,0.6523,0.6384,0.6428,0.6786,0.7228,0.7716,0.7768,0.7749,0.787,0.772,0.7546,0.7792,0.7559,0.7377,0.7522,0.7484,0.7411,0.7522,0.7421,0.7522,0.804,0.7848,0.7729,0.7986,0.7964,0.7834,-0.9786,-0.9798,-0.9638,-0.9643,-0.9713,-0.9744,-0.9013,-0.7876,-0.7871,-0.8144,-0.8621,-0.8888,-0.897,-0.8931,-0.8407,-0.8289,-0.8582,-0.863,-0.8782,-0.9043,-0.9257,-0.9388,-0.9432,-0.913,-0.8899,-0.8755,-0.8444,-0.8093,-0.773,-0.783,-0.7812,-0.7595,-0.7595,-0.7639,-0.7804,0.0,0.0,0.0,-0.7743,-0.7803,-0.769,-0.7479,-0.7513,-0.7796,-0.7823,0.0,-0.7518,-0.7868,-0.7868,-0.7561,-0.7868,0.0,0.0,0.0,0.0,0.0,0.0,0.0,0.0,0.0,0.0,0.0,0.0404,0.1375,0.2911,0.3536,0.4117,0.4706,0.4678,0.4813,0.5241,0.5525,0.5714,0.5733,0.6128,0.6448,0.6479,0.6656,0.6741,0.6615,0.6571,0.6704,0.6918,0.7007,0.7272,0.7713,0.776,0.7764,0.7801,0.7003,0.6428,0.6428,0.6874,0.736,0.8069,0.8241,0.8269,0.8288,0.8259,0.8137,0.8047,0.7987,0.791,0.7949,0.8097,0.8063,0.7834,0.7835,0.7985,0.8291,0.8157,0.8063,0.8234,0.8159,0.8074,-0.941,0.0,-0.942,-0.932,0.0,-0.8954,-0.828,-0.7319,-0.794,-0.842,-0.8756,-0.8737,-0.8688,-0.8496,-0.7765,-0.7483,-0.7598,-0.7352,-0.7537,-0.8108,-0.8158,-0.8381,-0.8775,-0.8561,-0.8382,-0.8154,-0.8016,-0.7744,-0.7431,-0.7491,-0.7455,-0.7279,-0.7323,-0.7363,-0.7492,-0.7294,-0.7217,-0.7264,-0.7317,-0.7355,-0.7417,-0.7274,-0.7315,-0.7558,0.0,0.0,0.0,0.0,0.0,0.0,0.0,0.0,0.0,0.0,0.0,-0.8575,-0.8193,-0.7459,-0.6447,-0.5326,-0.4021,-0.2587,-0.1146,0.0683,0.3071,0.3663,0.4278,0.5102,0.5327,0.5505,0.5885,0.621,0.6476,0.6612,0.6697,0.6874,0.7272,0.7625,0.7669,0.7367,0.7279,0.7367,0.7628,0.7848,0.8113,0.8504,0.8596,0.8556,0.846,0.7625,0.6966,0.6966,0.7234,0.7713,0.8285,0.8504,0.8599,0.8496,0.8435,0.8277,0.8129,0.8102,0.8102,0.8102,0.825,0.8327,0.8165,0.8094,0.8199,0.8567,0.8514,0.8422,0.8468,0.8386,0.8311,-0.9008,-0.8943,-0.9239,-0.8974,-0.8392,-0.8401,-0.8039,-0.7462,0.0,0.0,0.0,-0.8638,-0.8372,-0.8082,-0.7219,-0.6838,-0.6773,-0.6402,-0.6619,-0.7433,-0.7322,-0.7586,-0.8113,-0.8039,-0.7825,-0.7553,-0.7548,-0.741,-0.7136,-0.7112,-0.7095,-0.7095,-0.7095,-0.7085,-0.7105,-0.7328,-0.7269,-0.6932,-0.6912,-0.698,-0.7078,-0.7041,-0.711,-0.7322,-0.7278,-0.7183,-0.7152,-0.7265,-0.7139,-0.6867,-0.7076,-0.7415,-0.7829,-0.8169,-0.8624,-0.9088,-0.9105,-0.8781,-0.8085,-0.7384,-0.6442,-0.5171,-0.3076,-0.0551,0.2493,0.3178,0.3879,0.4906,0.5532,0.5921,0.6224,0.6734,0.7142,0.7318,0.7258,0.7492,0.8057,0.854,0.8679,0.8201,0.8113,0.8157,0.842,0.8732,0.9034,0.9157,0.9336,0.9384,0.9026,0.8241,0.7632,0.772,0.7896,0.816,0.8592,0.8855,0.8841,0.8756,0.8641,0.8501,0.8298,0.8217,0.8212,0.8369,0.8441,0.8479,0.8499,0.8421,0.8472,0.8921,0.892,0.8841,0.8865,0.8691,0.8609,-0.9075,-0.9416,-0.9516,-0.9504,-0.9399,-0.9411,-0.8995,-0.8349,-0.7934,-0.7785,-0.7769,-0.8092,-0.816,-0.794,-0.7781,-0.7708,-0.7704,-0.7634,-0.7767,0.0,-0.7878,-0.7833,-0.7944,-0.7705,-0.7596,-0.7636,-0.7358,-0.7231,-0.7316,-0.7204,-0.7095,-0.7095,-0.7095,-0.7038,-0.6966,-0.7214,-0.7204,-0.6932,-0.7469,-0.7541,-0.7136,-0.7149,-0.7314,-0.7515,-0.7386,-0.7304,-0.7372,-0.7509,-0.7424,-0.699,-0.7185,-0.7509,-0.7934,-0.8159,-0.8648,-0.9433,-0.9873,-0.9887,-0.9466,-0.9492,-0.8801,-0.7034,-0.5367,-0.2936,0.0376,0.1686,0.288,0.4189,0.4964,0.5883,0.6783,0.7562,0.8072,0.838,0.8853,0.9253,0.9292,0.9598,0.9646,0.934,0.9213,0.9122,0.9283,0.9292,0.9515,0.9941,1.0106,1.0077,0.9641,0.8811,0.8288,0.8372,0.846,0.8679,0.9082,0.9559,0.9476,0.9023,0.925,0.9271,0.8865,0.8713,0.8708,0.9051,0.898,0.8941,0.8927,0.8906,0.8998,0.9261,0.9274,0.9315,0.9447,0.9331,0.9138,-0.9005,-0.9145,-0.9313,-0.9416,-0.9487,-0.9342,-0.8914,-0.83,-0.7889,-0.7903,-0.8216,-0.8182,-0.8122,-0.7997,-0.7571,-0.7244,-0.7028,-0.6734,-0.6796,-0.715,-0.6951,-0.7083,-0.7448,-0.7454,-0.7441,-0.7382,-0.7392,-0.7294,-0.7255,-0.7255,-0.7179,-0.7102,-0.7095,-0.7065,-0.7007,-0.7131,-0.7128,-0.7001,-0.7252,-0.7152,-0.6735,-0.6824,-0.6958,-0.7215,-0.715,-0.7235,-0.7491,-0.7617,-0.7526,-0.7109,-0.7159,-0.7315,-0.7773,-0.7911,-0.8391,-0.9303,-0.9799,-1.0151,-1.0344,-1.0372,-0.9846,-0.8605,-0.7396,-0.5815,-0.3698,-0.1137,0.1055,0.2692,0.3869,0.5054,0.6252,0.7337,0.8199,0.8747,0.9522,1.0081,1.0164,1.0386,1.0342,1.0038,0.9907,0.9822,0.9752,0.9923,1.0062,1.0462,1.0674,1.0674,1.0332,0.9854,0.9288,0.889,0.8675,0.8811,0.9257,0.9689,0.9776,0.9398,0.9536,0.9552,0.9231,0.9018,0.9018,0.9246,0.9365,0.9468,0.9501,0.9568,0.9713,0.9895,0.9959,0.9924,0.9673,0.9405,0.9158,-0.9061,-0.8972,-0.9196,-0.9322,-0.9317,-0.9041,-0.8621,-0.8128,-0.7945,-0.8199,-0.8647,-0.8259,-0.8005,-0.7848,-0.7372,-0.6955,-0.6546,-0.6158,-0.6191,-0.6528,-0.6376,-0.661,-0.7136,-0.735,-0.736,-0.7233,-0.7489,-0.7461,-0.7238,-0.7346,-0.7346,-0.7207,-0.719,-0.7132,-0.7095,-0.7095,-0.7095,-0.7088,-0.6987,-0.6753,-0.638,-0.6501,-0.6606,-0.6691,-0.6912,-0.7133,-0.746,-0.7643,-0.757,-0.7214,-0.707,-0.7186,-0.7554,-0.7666,-0.8157,-0.9032,-0.9596,-1.0259,-1.0958,-1.0794,-1.0425,-0.9969,-0.9035,-0.8095,-0.702,-0.4316,-0.1495,0.056,0.2097,0.3609,0.4963,0.6351,0.7582,0.8632,0.9624,1.0322,1.0761,1.0949,1.0997,1.0727,1.0598,1.0484,1.0426,1.0535,1.0747,1.0942,1.1219,1.123,1.1025,1.089,1.0289,0.9719,0.9152,0.9161,0.9515,0.9856,0.9937,0.9717,0.9731,0.9642,0.9428,0.9213,0.9246,0.9468,0.9695,0.9879,0.9997,1.0175,1.0357,1.055,1.0608,1.041,0.9862,0.9421,0.9186,-0.9181,-0.9372,-0.9604,-0.9497,-0.9084,-0.8808,-0.8494,-0.8101,-0.7952,-0.8142,-0.8493,-0.7979,-0.7552,-0.7299,-0.7636,-0.765,-0.7344,-0.7349,-0.7302,-0.7308,-0.732,-0.7312,-0.7353,-0.7502,-0.757,-0.755,-0.759,-0.7522,-0.7366,-0.7495,-0.7499,-0.7366,-0.735,-0.7278,-0.7119,-0.7102,-0.7098,-0.7095,-0.7082,-0.6846,-0.635,-0.6334,-0.6266,-0.6181,-0.671,-0.7026,-0.7097,-0.7603,-0.7636,-0.7163,-0.7102,-0.7234,-0.7474,-0.7727,-0.8205,-0.8873,-0.9552,-1.0408,-1.1428,-1.1031,-1.073,-1.0783,-0.9927,-0.9109,-0.8337,-0.7207,-0.5208,-0.246,-0.0294,0.1414,0.3086,0.4551,0.6125,0.7785,0.8833,0.9942,1.094,1.1467,1.165,1.1823,1.1381,1.1273,1.1321,1.1171,1.1235,1.1718,1.1681,1.18,1.1972,1.1499,1.1111,1.0895,1.0424,1.0077,1.0366,1.0379,1.0198,0.9993,0.9977,0.9839,0.9632,0.9473,0.943,0.9879,0.9992,1.0067,1.0368,1.0594,1.0818,1.0993,1.0995,1.0869,1.0318,0.9828,0.955,-0.9233,-0.9257,-0.9283,-0.8965,-0.8417,-0.849,-0.8199,-0.7702,-0.7546,-0.7595,-0.7656,-0.74,-0.7459,-0.7773,-0.7866,-0.7777,-0.7552,-0.7689,-0.7549,-0.726,-0.725,-0.7227,-0.7168,-0.729,-0.7453,-0.7607,-0.7685,-0.7648,-0.7539,-0.757,-0.7567,-0.7512,-0.7509,-0.7428,-0.7288,-0.7278,-0.7231,-0.7098,-0.7095,-0.6853,-0.6396,-0.6359,-0.6328,-0.6325,-0.6492,-0.6783,-0.7051,-0.7332,-0.7275,-0.6969,-0.7054,-0.7098,-0.7105,-0.7459,-0.7984,-0.864,-0.951,-1.0164,-1.0641,-1.0554,-1.0424,-1.0424,-0.9903,-0.934,-0.8775,-0.7981,-0.6765,-0.5264,-0.3213,-0.13,0.0365,0.1994,0.3745,0.57,0.7206,0.8662,1.012,1.0895,1.1424,1.1742,1.1774,1.1712,1.168,1.1556,1.166,1.2109,1.2149,1.2229,1.2491,1.2149,1.1935,1.1843,1.1284,1.0766,1.0755,1.0581,1.0367,1.0111,1.0121,1.0075,0.984,0.9738,0.9846,1.0293,1.0293,1.0406,1.0775,1.0999,1.1223,1.1354,1.1266,1.1086,1.0713,1.034,1.0132,-0.9216,-0.9033,-0.8943,-0.856,-0.8014,-0.8269,-0.8048,-0.7505,-0.7279,-0.7183,-0.7244,-0.7098,-0.7394,-0.7952,-0.7872,-0.7738,-0.7647,-0.7688,-0.7489,-0.7085,-0.7067,-0.7032,-0.7007,-0.7121,-0.733,-0.7596,-0.7779,-0.7821,-0.7723,-0.7668,-0.7658,-0.7658,-0.7563,-0.7516,-0.739,-0.7324,-0.7208,-0.7109,-0.7054,-0.6784,-0.6322,-0.6207,-0.6177,-0.6116,-0.6271,-0.6511,-0.6866,-0.699,-0.6966,-0.6792,-0.6881,-0.6833,-0.67,-0.7149,-0.7716,-0.8372,-0.9161,-0.9641,-0.9694,-0.9907,-0.9951,-0.982,-0.9563,-0.9253,-0.8819,-0.8336,-0.7852,-0.7295,-0.5883,-0.4189,-0.2319,-0.0785,0.0998,0.3138,0.5012,0.683,0.8653,0.9918,1.0982,1.1559,1.1866,1.1938,1.1857,1.1865,1.2024,1.2285,1.2448,1.2577,1.2747,1.2668,1.2534,1.2497,1.1972,1.1542,1.1052,1.0721,1.0465,1.0319,1.0316,1.0248,1.0057,1.0003,1.0143,1.0513,1.0556,1.0743,1.1074,1.1335,1.1558,1.1656,1.1612,1.1385,1.0972,1.0758,1.0515,-0.9065,-0.8848,-0.881,-0.8574,-0.8215,-0.8319,-0.815,-0.7692,-0.7332,-0.7332,-0.7475,-0.7273,-0.7332,-0.7611,-0.7599,-0.7607,-0.7607,-0.7382,-0.7227,-0.7127,-0.6777,-0.674,-0.6991,-0.7156,-0.7316,-0.7588,-0.7845,-0.7958,-0.7938,-0.7872,-0.7801,-0.7756,-0.7566,-0.7428,-0.7342,-0.7168,-0.7079,-0.7043,-0.6884,-0.6564,-0.6113,-0.5849,-0.5662,-0.554,-0.5977,-0.6313,-0.6405,-0.6637,-0.6792,-0.6792,-0.6567,-0.6428,-0.6473,-0.6874,-0.7448,-0.8113,-0.8508,-0.8771,-0.8955,-0.9213,-0.9345,-0.9301,-0.913,-0.8863,-0.8679,-0.856,-0.834,-0.8113,-0.7779,-0.6713,-0.4768,-0.3372,-0.1807,0.0298,0.2353,0.454,0.6923,0.8765,1.0356,1.137,1.186,1.2063,1.2052,1.2186,1.237,1.2479,1.2577,1.279,1.3009,1.3058,1.2924,1.279,1.2619,1.2406,1.1735,1.1119,1.0724,1.0525,1.0445,1.044,1.0348,1.0325,1.055,1.0663,1.07,1.0887,1.1298,1.1558,1.1818,1.1937,1.1995,1.1766,1.1365,1.1007,1.0732,-0.8775,-0.8581,-0.8531,-0.835,-0.8118,-0.8117,-0.7955,-0.7622,-0.7366,-0.7235,-0.7288,-0.7092,-0.7092,-0.7338,-0.734,-0.7537,-0.7781,-0.7586,-0.7246,-0.6894,-0.6614,-0.6383,-0.6328,-0.6732,-0.7092,-0.7391,-0.7789,-0.7892,-0.7789,-0.7836,-0.776,-0.7464,-0.7516,-0.7417,-0.7155,-0.6954,-0.6839,-0.6747,-0.6483,-0.6171,-0.5855,-0.5636,-0.537,-0.517,-0.5509,-0.5885,-0.6148,-0.6284,-0.6349,-0.6349,-0.639,-0.6343,-0.6302,-0.6789,-0.7275,-0.772,-0.7984,-0.816,-0.8292,-0.864,-0.8855,-0.8855,-0.8907,-0.8819,-0.864,-0.8604,-0.8432,-0.8116,-0.7937,-0.7362,-0.6642,-0.5526,-0.4142,-0.223,-0.0086,0.2252,0.475,0.6994,0.8991,1.0539,1.1677,1.2497,1.2631,1.2802,1.2881,1.3003,1.2833,1.2966,1.3264,1.3137,1.2966,1.3179,1.3003,1.2619,1.2454,1.1603,1.0992,1.0734,1.0605,1.0555,1.0519,1.0594,1.0738,1.0775,1.0812,1.0999,1.1335,1.1892,1.2114,1.2271,1.2349,1.2196,1.1806,1.1506,1.1141,-0.8432,-0.8287,-0.8283,-0.8184,-0.7988,-0.7988,-0.7892,-0.7693,-0.7338,-0.7185,-0.7135,-0.6942,-0.6895,-0.7089,-0.7138,-0.7338,-0.759,-0.7341,-0.6991,-0.6579,-0.6203,-0.5946,-0.5898,-0.6305,-0.6742,-0.7138,-0.7686,-0.7889,-0.7733,-0.7793,-0.7622,-0.7372,-0.7328,-0.7159,-0.6942,-0.6783,-0.6679,-0.6563,-0.6229,-0.5902,-0.5599,-0.5233,-0.5015,-0.4921,-0.4921,-0.5235,-0.5813,-0.5861,-0.5902,-0.5991,-0.6127,-0.6124,-0.6038,-0.6479,-0.6877,-0.7143,-0.745,-0.7716,-0.7837,-0.8241,-0.8487,-0.85,-0.8644,-0.8732,-0.8508,-0.856,-0.8344,-0.794,-0.7808,-0.7672,-0.7204,-0.6468,-0.5456,-0.3925,-0.1961,0.035,0.2921,0.5365,0.78,1.0144,1.1671,1.2534,1.3009,1.3052,1.3179,1.3398,1.3045,1.3094,1.3476,1.3307,1.3094,1.3568,1.3349,1.299,1.2717,1.2099,1.1468,1.1163,1.0879,1.0787,1.0743,1.0856,1.0893,1.0887,1.0999,1.1143,1.1515,1.2077,1.2378,1.2562,1.2634,1.2562,1.2263,1.2031,1.1581,-0.7988,-0.8038,-0.7988,-0.8038,-0.7988,-0.7988,-0.7988,-0.7889,-0.7441,-0.7185,-0.7138,-0.6892,-0.6742,-0.6842,-0.6989,-0.7039,-0.6792,-0.6539,-0.6431,-0.6271,-0.5634,-0.5436,-0.5575,-0.5934,-0.6392,-0.6892,-0.764,-0.7939,-0.7836,-0.7619,-0.7453,-0.7349,-0.6967,-0.6776,-0.6768,-0.6633,-0.6566,-0.6426,-0.6036,-0.5655,-0.534,-0.4701,-0.4435,-0.4569,-0.421,-0.4431,-0.5327,-0.5371,-0.546,-0.5636,-0.5683,-0.5686,-0.5722,-0.598,-0.6207,-0.6483,-0.691,-0.726,-0.7497,-0.7966,-0.8217,-0.8269,-0.8456,-0.848,-0.8265,-0.8384,-0.8225,-0.7683,-0.7573,-0.7448,-0.6823,-0.6233,-0.5653,-0.4959,-0.3068,-0.0889,0.1511,0.3955,0.6784,1.0005,1.1542,1.2277,1.2881,1.3094,1.3222,1.3355,1.3264,1.3264,1.3652,1.3476,1.3476,1.3652,1.3597,1.3341,1.2996,1.2636,1.2097,1.1605,1.1298,1.1077,1.1023,1.108,1.1111,1.1111,1.1186,1.1329,1.1552,1.2077,1.2452,1.2622,1.275,1.2869,1.2677,1.2387,1.1976,-0.7842,-0.7988,-0.7988,-0.7988,-0.7988,-0.7988,-0.7988,-0.7939,-0.7437,-0.7185,-0.7138,-0.6739,-0.6539,-0.6539,-0.6637,-0.6489,-0.6242,-0.5987,-0.5837,-0.5787,-0.5391,-0.524,-0.5388,-0.5789,-0.6392,-0.7039,-0.7494,-0.7543,-0.7266,-0.7205,-0.7079,-0.675,-0.6738,-0.6634,-0.6505,-0.6282,-0.608,-0.5897,-0.5437,-0.4983,-0.4623,-0.4257,-0.3989,-0.3944,-0.3765,-0.3853,-0.4168,-0.4659,-0.4928,-0.5013,-0.5149,-0.528,-0.5447,-0.5605,-0.5782,-0.6065,-0.642,-0.6827,-0.7171,-0.755,-0.787,-0.8018,-0.8244,-0.8176,-0.7927,-0.8017,-0.7904,-0.735,-0.7075,-0.6605,-0.6071,-0.5319,-0.4959,-0.5228,-0.353,-0.1562,0.0801,0.4134,0.7193,0.9357,1.0933,1.1929,1.2534,1.2918,1.3313,1.3525,1.3392,1.344,1.3786,1.3652,1.361,1.3864,1.3766,1.3669,1.3377,1.3099,1.271,1.2144,1.1747,1.1383,1.1347,1.1298,1.1298,1.1335,1.1409,1.1558,1.1774,1.204,1.2409,1.2746,1.2901,1.2985,1.3005,1.2716,1.2251,-0.7743,-0.7988,-0.7988,-0.7988,-0.7988,-0.7988,-0.7988,-0.7889,-0.7341,-0.7039,-0.6939,-0.6489,-0.6239,-0.6289,-0.6337,-0.6237,-0.5992,-0.5737,-0.5584,-0.5534,-0.5188,-0.5087,-0.529,-0.5839,-0.6439,-0.6989,-0.7341,-0.7291,-0.6983,-0.6914,-0.6787,-0.6588,-0.6542,-0.6344,-0.6075,-0.5901,-0.573,-0.5432,-0.5002,-0.4581,-0.4318,-0.3961,-0.3721,-0.3587,-0.3452,-0.3408,-0.3496,-0.3989,-0.4393,-0.4569,-0.4921,-0.5146,-0.5186,-0.5396,-0.5597,-0.5703,-0.6036,-0.645,-0.6859,-0.7233,-0.7541,-0.7793,-0.798,-0.7983,-0.7786,-0.7762,-0.7556,-0.6943,-0.6527,-0.5985,-0.5228,-0.4395,-0.4116,-0.4244,-0.3183,-0.1371,0.0971,0.4433,0.7251,0.893,1.0328,1.137,1.2277,1.2747,1.3307,1.3519,1.3525,1.3568,1.387,1.3779,1.387,1.3955,1.3948,1.3815,1.3675,1.3477,1.3289,1.2743,1.2249,1.1866,1.159,1.154,1.1521,1.1558,1.1626,1.1744,1.1929,1.2187,1.2489,1.2746,1.3032,1.3086,1.3079,1.288,1.248,-0.7693,-0.7988,-0.7988,-0.7988,-0.7988,-0.7988,-0.7988,-0.7889,-0.7244,-0.6892,-0.6692,-0.6342,-0.6042,-0.6092,-0.6237,-0.6239,-0.5992,-0.5789,-0.5636,-0.5484,-0.5186,-0.5087,-0.5388,-0.6089,-0.6539,-0.6792,-0.7042,-0.7138,-0.7033,-0.6813,-0.6657,-0.654,-0.6336,-0.5984,-0.5581,-0.5492,-0.5327,-0.4981,-0.4664,-0.4438,-0.4246,-0.3816,-0.3501,-0.3454,-0.3096,-0.2962,-0.3093,-0.3406,-0.381,-0.43,-0.4879,-0.5015,-0.4882,-0.528,-0.5427,-0.5269,-0.572,-0.6175,-0.6633,-0.6914,-0.7267,-0.7658,-0.765,-0.7641,-0.7555,-0.7415,-0.7073,-0.6309,-0.6074,-0.5546,-0.4524,-0.3696,-0.3135,-0.2472,-0.1907,-0.0303,0.2514,0.502,0.6957,0.8528,0.9724,1.0766,1.2057,1.2485,1.296,1.3392,1.3519,1.3695,1.3828,1.387,1.387,1.3955,1.4046,1.3955,1.3857,1.3789,1.3585,1.3222,1.275,1.2441,1.1997,1.1857,1.1744,1.1781,1.1855,1.1966,1.2077,1.2261,1.2526,1.282,1.3012,1.3122,1.3139,1.306,1.2781,-0.7394,-0.7939,-0.7793,-0.7793,-0.7988,-0.7988,-0.7988,-0.7942,-0.7543,-0.7045,-0.6639,-0.6592,-0.6242,-0.5787,-0.6187,-0.6239,-0.6042,-0.5942,-0.5789,-0.5636,-0.5484,-0.5536,-0.5839,-0.6392,-0.6592,-0.6589,-0.6792,-0.6789,-0.6628,-0.6478,-0.6363,-0.6189,-0.5873,-0.5483,-0.5047,-0.4824,-0.4539,-0.4272,-0.4147,-0.3822,-0.3436,-0.3264,-0.2958,-0.256,-0.2469,-0.2424,-0.2512,-0.2868,-0.3361,-0.3944,-0.4346,-0.4567,-0.4474,-0.4865,-0.5135,-0.5201,-0.553,-0.5996,-0.6402,-0.6699,-0.704,-0.7502,-0.7371,-0.7099,-0.6825,-0.6709,-0.6319,-0.5791,-0.5471,-0.5037,-0.4268,-0.3525,-0.2544,-0.1104,-0.0296,0.1104,0.3191,0.5127,0.683,0.8205,0.9375,1.0463,1.1413,1.2149,1.2662,1.3179,1.3476,1.3646,1.3828,1.3997,1.4039,1.4039,1.4088,1.4039,1.4039,1.3997,1.3878,1.3619,1.3286,1.3074,1.2652,1.2322,1.2112,1.1959,1.204,1.2157,1.2194,1.2305,1.2562,1.2863,1.3047,1.3194,1.3478,1.3484,1.315,-0.6942,-0.7494,-0.7547,-0.7593,-0.769,-0.7892,-0.7939,-0.7793,-0.754,-0.6989,-0.6439,-0.6489,-0.6189,-0.5536,-0.6087,-0.6337,-0.6189,-0.6039,-0.5989,-0.5984,-0.5934,-0.5937,-0.6092,-0.6442,-0.6539,-0.6437,-0.6539,-0.6539,-0.6429,-0.627,-0.614,-0.5969,-0.5584,-0.509,-0.4474,-0.4182,-0.3865,-0.3518,-0.3375,-0.3154,-0.2906,-0.2808,-0.259,-0.2248,-0.22,-0.2244,-0.2378,-0.2689,-0.3136,-0.363,-0.4121,-0.4478,-0.452,-0.4919,-0.5183,-0.5249,-0.5574,-0.6014,-0.6418,-0.6657,-0.6947,-0.7297,-0.7148,-0.6873,-0.6552,-0.628,-0.5895,-0.535,-0.491,-0.4413,-0.3885,-0.2946,-0.1561,-0.0082,0.1263,0.2519,0.3703,0.5336,0.6804,0.8003,0.9117,1.0164,1.1154,1.1849,1.2497,1.3052,1.3434,1.3652,1.387,1.4075,1.4201,1.4208,1.4243,1.4286,1.4237,1.4201,1.4088,1.3848,1.3661,1.3501,1.3085,1.2663,1.2434,1.2267,1.2301,1.2305,1.2342,1.2415,1.2606,1.2863,1.309,1.3375,1.3639,1.3695,1.3366,-0.6539,-0.6845,-0.7344,-0.7441,-0.7338,-0.7743,-0.7842,-0.7593,-0.7441,-0.6839,-0.6239,-0.6337,-0.5989,-0.524,-0.5887,-0.6284,-0.6337,-0.6089,-0.6189,-0.6287,-0.6337,-0.6239,-0.6042,-0.6287,-0.6437,-0.6387,-0.6387,-0.6387,-0.6284,-0.6084,-0.5937,-0.5687,-0.5233,-0.4634,-0.393,-0.3578,-0.3226,-0.2806,-0.2747,-0.2654,-0.2571,-0.2462,-0.228,-0.2081,-0.2021,-0.211,-0.2289,-0.2601,-0.2913,-0.3138,-0.4071,-0.4545,-0.4683,-0.5262,-0.5522,-0.5478,-0.5655,-0.6044,-0.6499,-0.6597,-0.6819,-0.7153,-0.7017,-0.6788,-0.6422,-0.6014,-0.5474,-0.4934,-0.4303,-0.3862,-0.3338,-0.2102,-0.0789,0.0562,0.2093,0.3244,0.4109,0.554,0.7042,0.8059,0.9052,1.0033,1.103,1.1768,1.2338,1.3179,1.3434,1.3568,1.3864,1.4153,1.4279,1.4363,1.4447,1.4566,1.4482,1.4398,1.4243,1.4043,1.3931,1.3736,1.3325,1.2961,1.2708,1.2573,1.2449,1.2456,1.2489,1.2599,1.2753,1.3017,1.3309,1.363,1.3896,1.3757,1.3477,-0.6539,-0.6845,-0.7138,-0.7235,-0.7235,-0.7543,-0.7646,-0.7596,-0.7743,-0.7089,-0.6292,-0.6492,-0.5989,-0.4935,-0.5486,-0.5889,-0.6039,-0.6039,-0.6139,-0.6387,-0.6387,-0.6239,-0.6089,-0.6237,-0.6387,-0.6387,-0.6387,-0.6287,-0.6089,-0.5939,-0.5689,-0.5085,-0.4535,-0.3882,-0.3179,-0.2875,-0.2522,-0.2268,-0.2346,-0.2312,-0.2178,-0.2085,-0.1949,-0.1696,-0.1627,-0.1616,-0.1705,-0.2108,-0.2423,-0.286,-0.3578,-0.4249,-0.4474,-0.4995,-0.5331,-0.5402,-0.5516,-0.5843,-0.623,-0.6337,-0.647,-0.6987,-0.6668,-0.6351,-0.629,-0.5507,-0.4939,-0.4435,-0.3982,-0.343,-0.2817,-0.199,-0.0744,0.0684,0.2296,0.3746,0.4763,0.6094,0.7284,0.8208,0.9087,1.0125,1.137,1.172,1.2326,1.3137,1.3483,1.3525,1.3857,1.423,1.4356,1.4482,1.4699,1.4783,1.4692,1.4566,1.4405,1.4286,1.4212,1.4193,1.3769,1.3321,1.3117,1.2848,1.2564,1.2591,1.2739,1.2753,1.29,1.3236,1.3492,1.3739,1.3881,1.3764,1.3739,-0.5691,-0.6092,-0.6339,-0.6437,-0.6537,-0.7141,-0.7344,-0.7344,-0.7793,-0.7241,-0.6342,-0.6592,-0.5939,-0.4688,-0.5138,-0.5489,-0.5641,-0.5892,-0.6139,-0.6339,-0.6289,-0.6139,-0.5992,-0.5987,-0.6034,-0.6037,-0.5987,-0.5937,-0.5789,-0.5438,-0.4987,-0.4585,-0.3882,-0.3228,-0.2675,-0.2372,-0.2109,-0.1891,-0.1925,-0.19,-0.1768,-0.1687,-0.1618,-0.1507,-0.1399,-0.1391,-0.148,-0.1795,-0.213,-0.254,-0.3173,-0.3881,-0.4439,-0.5061,-0.5455,-0.5632,-0.572,-0.5938,-0.6216,-0.6276,-0.6371,-0.6725,-0.6274,-0.5956,-0.5629,-0.4896,-0.427,-0.3863,-0.3452,-0.2972,-0.2367,-0.1571,-0.0531,0.0884,0.2549,0.4021,0.5091,0.6363,0.7545,0.838,0.9326,1.0404,1.1289,1.1849,1.2662,1.361,1.3786,1.387,1.4104,1.4391,1.4482,1.465,1.4915,1.4999,1.4866,1.4741,1.4573,1.4531,1.4496,1.4573,1.4509,1.403,1.3546,1.3326,1.3113,1.3006,1.3091,1.3121,1.3082,1.3236,1.3463,1.3746,1.3918,1.3925,1.398,-0.4688,-0.5138,-0.5436,-0.5584,-0.5837,-0.6736,-0.7042,-0.6945,-0.759,-0.7191,-0.6292,-0.6492,-0.5739,-0.4788,-0.4788,-0.5037,-0.5288,-0.5691,-0.6039,-0.6137,-0.6039,-0.5889,-0.5792,-0.5639,-0.5534,-0.5484,-0.5634,-0.5586,-0.5286,-0.4839,-0.4587,-0.4187,-0.333,-0.2826,-0.2473,-0.212,-0.1859,-0.1637,-0.1619,-0.1591,-0.1558,-0.1479,-0.1459,-0.1394,-0.1393,-0.1391,-0.148,-0.1701,-0.1945,-0.2218,-0.2721,-0.3519,-0.4364,-0.5132,-0.563,-0.5844,-0.5819,-0.5984,-0.6172,-0.6254,-0.6201,-0.6242,-0.5849,-0.5455,-0.5056,-0.446,-0.3888,-0.3508,-0.3168,-0.2726,-0.2046,-0.1385,-0.0202,0.1234,0.293,0.4259,0.5292,0.6541,0.7655,0.8441,0.9413,1.0501,1.1456,1.2229,1.3137,1.3913,1.4046,1.4208,1.4447,1.465,1.4783,1.4901,1.5159,1.5124,1.4999,1.4971,1.4804,1.4706,1.4741,1.4866,1.5012,1.4735,1.4273,1.394,1.3737,1.3614,1.3469,1.3417,1.3414,1.3366,1.3463,1.3783,1.3956,1.4093,1.4198,-0.4583,-0.4885,-0.5131,-0.5534,-0.5989,-0.6592,-0.6792,-0.6892,-0.7394,-0.7191,-0.6387,-0.5937,-0.5486,-0.4786,-0.4284,-0.4483,-0.4935,-0.5338,-0.5636,-0.5737,-0.5639,-0.5536,-0.5388,-0.5238,-0.5085,-0.5083,-0.5286,-0.5286,-0.5035,-0.4784,-0.4384,-0.3932,-0.3229,-0.2725,-0.2473,-0.2121,-0.1714,-0.1599,-0.1589,-0.1572,-0.1543,-0.1512,-0.1429,-0.1397,-0.1391,-0.1391,-0.1436,-0.166,-0.1833,-0.1955,-0.2715,-0.3303,-0.3835,-0.441,-0.4858,-0.5196,-0.5406,-0.5654,-0.596,-0.5813,-0.5731,-0.5689,-0.5364,-0.5006,-0.463,-0.4101,-0.3606,-0.3403,-0.3135,-0.2726,-0.2083,-0.1295,-0.0243,0.1251,0.2919,0.4406,0.5501,0.6734,0.7793,0.8523,0.952,1.0554,1.1542,1.2443,1.3258,1.3981,1.4325,1.4537,1.4824,1.5041,1.5229,1.534,1.5484,1.5333,1.5131,1.5111,1.5041,1.4936,1.4936,1.5076,1.5187,1.5249,1.5032,1.4574,1.4244,1.4045,1.3906,1.3796,1.3758,1.3754,1.38,1.3834,1.3992,1.4194,1.4364,-0.3677,-0.4182,-0.4329,-0.4682,-0.5238,-0.5889,-0.6239,-0.6442,-0.6945,-0.6842,-0.6289,-0.5887,-0.5338,-0.4688,-0.4336,-0.4386,-0.4634,-0.4836,-0.5138,-0.529,-0.5138,-0.5037,-0.4887,-0.4736,-0.4636,-0.4636,-0.4839,-0.4987,-0.4784,-0.4331,-0.4081,-0.3679,-0.2976,-0.2523,-0.2373,-0.2021,-0.1759,-0.165,-0.1593,-0.1579,-0.1549,-0.1518,-0.1477,-0.1403,-0.1391,-0.1391,-0.1436,-0.166,-0.1829,-0.2082,-0.2672,-0.3158,-0.3541,-0.3846,-0.4339,-0.484,-0.5091,-0.5241,-0.5447,-0.5318,-0.5218,-0.5085,-0.4696,-0.4295,-0.3939,-0.3489,-0.3244,-0.3051,-0.2628,-0.2222,-0.1805,-0.104,0.008,0.1461,0.319,0.4643,0.5883,0.7102,0.8013,0.872,0.9504,1.0569,1.1714,1.2571,1.3336,1.3946,1.4457,1.486,1.5209,1.5513,1.5712,1.5673,1.5757,1.5639,1.5507,1.553,1.5366,1.5225,1.5259,1.5407,1.5376,1.5423,1.5338,1.5095,1.4775,1.4489,1.4334,1.4231,1.4172,1.4088,1.397,1.3894,1.4095,1.4243,1.4427,-0.2773,-0.353,-0.3478,-0.383,-0.4537,-0.5286,-0.5737,-0.5989,-0.6489,-0.6442,-0.5942,-0.5739,-0.5238,-0.4688,-0.4485,-0.4479,-0.442,-0.4472,-0.4726,-0.4758,-0.4582,-0.4487,-0.4435,-0.4284,-0.4135,-0.4336,-0.4388,-0.4437,-0.4435,-0.4081,-0.3729,-0.3479,-0.2875,-0.2372,-0.2223,-0.2071,-0.1898,-0.1687,-0.1572,-0.1555,-0.1519,-0.1487,-0.1461,-0.1393,-0.1391,-0.1391,-0.1436,-0.157,-0.1782,-0.2082,-0.2485,-0.2938,-0.3296,-0.3495,-0.3924,-0.4581,-0.4803,-0.4836,-0.4844,-0.4733,-0.4588,-0.4429,-0.3968,-0.3517,-0.3158,-0.2924,-0.2727,-0.2604,-0.2189,-0.1744,-0.1404,-0.0592,0.0598,0.1956,0.3569,0.5115,0.6322,0.7487,0.8584,0.9227,0.9735,1.0502,1.1613,1.2437,1.3151,1.39,1.4455,1.5106,1.5467,1.6056,1.6229,1.608,1.6027,1.5908,1.5896,1.6043,1.5833,1.5545,1.5714,1.5906,1.5723,1.5541,1.5462,1.5426,1.5214,1.4892,1.4776,1.4626,1.4474,1.4263,1.403,1.3983,1.4111,1.4325,1.4522,-0.2526,-0.3229,-0.2976,-0.3629,-0.4734,-0.5286,-0.5584,-0.5687,-0.6187,-0.6134,-0.5636,-0.5188,-0.4935,-0.4786,-0.4736,-0.4593,-0.4474,-0.4551,-0.4457,-0.4226,-0.4111,-0.4085,-0.4083,-0.4085,-0.3934,-0.4034,-0.4034,-0.4033,-0.4083,-0.3934,-0.3783,-0.3482,-0.3078,-0.2675,-0.2524,-0.2222,-0.1868,-0.1657,-0.1585,-0.1545,-0.1493,-0.1461,-0.1401,-0.1392,-0.1436,-0.1436,-0.1436,-0.1525,-0.1699,-0.1922,-0.2148,-0.2509,-0.2941,-0.3291,-0.3488,-0.3737,-0.3924,-0.4138,-0.4289,-0.4223,-0.4032,-0.3822,-0.3354,-0.2887,-0.2625,-0.2403,-0.2349,-0.2782,-0.2254,-0.1703,-0.1131,-0.0278,0.1005,0.2499,0.4091,0.5602,0.6887,0.8185,0.9213,0.9918,1.0484,1.0718,1.1381,1.2203,1.3006,1.3713,1.4453,1.5126,1.5755,1.6284,1.6773,1.6665,1.6432,1.6311,1.6413,1.6556,1.643,1.6027,1.6212,1.6417,1.6121,1.5872,1.5741,1.5662,1.5479,1.5415,1.5398,1.5189,1.4793,1.453,1.4343,1.4193,1.4111,1.4341,1.4613,-0.2324,-0.2725,-0.2775,-0.3279,-0.4135,-0.4688,-0.4987,-0.5186,-0.5539,-0.5589,-0.5388,-0.5138,-0.5037,-0.4987,-0.4885,-0.4666,-0.4445,-0.452,-0.427,-0.3839,-0.3765,-0.3784,-0.3734,-0.3633,-0.3583,-0.3784,-0.3784,-0.3784,-0.3784,-0.3734,-0.3685,-0.3534,-0.318,-0.2826,-0.2675,-0.2372,-0.1969,-0.1708,-0.1585,-0.1541,-0.1493,-0.1468,-0.1407,-0.1391,-0.1525,-0.1525,-0.148,-0.175,-0.1885,-0.2109,-0.2377,-0.2735,-0.2953,-0.3112,-0.3201,-0.3353,-0.3183,-0.336,-0.3805,-0.3811,-0.3705,-0.3519,-0.3187,-0.2827,-0.2386,-0.1935,-0.1934,-0.2519,-0.1978,-0.144,-0.0892,0.0,0.1455,0.2965,0.4652,0.637,0.7767,0.8878,0.9941,1.0617,1.1195,1.1465,1.1679,1.2191,1.2977,1.3617,1.4439,1.5248,1.5864,1.6452,1.6921,1.7288,1.7047,1.6784,1.6903,1.709,1.7104,1.6877,1.7023,1.7024,1.6546,1.6286,1.6141,1.6072,1.5959,1.5951,1.6015,1.5591,1.51,1.4864,1.4673,1.4516,1.4365,1.4421,1.4713,-0.2171,-0.2522,-0.2725,-0.3071,-0.3612,-0.4178,-0.4522,-0.4704,-0.5081,-0.519,-0.5138,-0.5138,-0.524,-0.529,-0.5183,-0.507,-0.4752,-0.463,-0.4171,-0.3867,-0.3626,-0.3584,-0.3484,-0.3332,-0.3332,-0.3536,-0.3484,-0.3484,-0.3484,-0.3484,-0.3484,-0.3484,-0.3282,-0.2927,-0.2573,-0.2368,-0.2112,-0.1484,-0.142,-0.1383,-0.1293,-0.1421,-0.1408,-0.1442,-0.1525,-0.1615,-0.1525,-0.1705,-0.193,-0.2154,-0.2287,-0.2556,-0.2777,-0.2774,-0.2816,-0.2908,-0.2767,-0.2796,-0.3228,-0.3421,-0.3514,-0.3361,-0.3121,-0.2632,-0.221,-0.1641,-0.1601,-0.2361,-0.167,-0.1227,-0.0729,0.0239,0.1824,0.3472,0.5181,0.7051,0.8742,0.9757,1.082,1.1678,1.2124,1.2215,1.2434,1.2546,1.3028,1.3598,1.4405,1.5352,1.6123,1.6795,1.7322,1.7796,1.773,1.7506,1.7716,1.7784,1.7722,1.7648,1.7794,1.7593,1.7066,1.6727,1.6523,1.6443,1.6451,1.6443,1.6476,1.5932,1.538,1.516,1.4912,1.4721,1.4638,1.4655,1.4792,-0.2273,-0.2775,-0.2774,-0.3097,-0.3548,-0.4157,-0.4342,-0.4341,-0.4906,-0.4985,-0.4935,-0.5087,-0.5288,-0.5534,-0.567,-0.5634,-0.5468,-0.5252,-0.464,-0.4031,-0.3696,-0.353,-0.3383,-0.3232,-0.323,-0.3282,-0.3282,-0.3282,-0.3232,-0.3282,-0.3282,-0.318,-0.318,-0.2876,-0.2522,-0.2218,-0.1887,-0.1367,-0.1155,-0.1035,-0.1007,-0.1131,-0.1262,-0.1214,-0.1301,-0.1436,-0.1391,-0.1525,-0.166,-0.1885,-0.1974,-0.2154,-0.2378,-0.2332,-0.2422,-0.2494,-0.2437,-0.2457,-0.2689,-0.3036,-0.3143,-0.2957,-0.2745,-0.2518,-0.2243,-0.1479,-0.1569,-0.2101,-0.1481,-0.0979,-0.0365,0.0568,0.2082,0.3883,0.563,0.7462,0.9125,1.0543,1.1586,1.2634,1.306,1.3043,1.3199,1.3326,1.3312,1.3803,1.4635,1.5587,1.6704,1.7408,1.7873,1.8256,1.8333,1.8387,1.8617,1.8561,1.8358,1.8313,1.8361,1.801,1.7485,1.7205,1.6861,1.6894,1.6894,1.6935,1.6845,1.6432,1.6003,1.549,1.5157,1.4948,1.483,1.48,1.4927,-0.2355,-0.2579,-0.2727,-0.2914,-0.3093,-0.3461,-0.3705,-0.3939,-0.4299,-0.4636,-0.4784,-0.4935,-0.5186,-0.552,-0.5619,-0.5664,-0.5617,-0.564,-0.4911,-0.4346,-0.3974,-0.3734,-0.3432,-0.318,-0.323,-0.318,-0.318,-0.318,-0.323,-0.318,-0.318,-0.318,-0.3079,-0.2725,-0.2422,-0.1916,-0.149,-0.1219,-0.0862,-0.0657,-0.0784,-0.0731,-0.0863,-0.1122,-0.1275,-0.1405,-0.144,-0.1571,-0.1705,-0.175,-0.1795,-0.193,-0.2062,-0.2017,-0.2049,-0.2166,-0.211,-0.2078,-0.2286,-0.2732,-0.3154,-0.3249,-0.304,-0.2695,-0.2393,-0.1643,-0.1401,-0.1486,-0.1305,-0.0726,0.0,0.0902,0.2174,0.4177,0.6055,0.7869,0.9624,1.1086,1.2296,1.3356,1.3672,1.3766,1.3944,1.4053,1.401,1.4077,1.4937,1.5842,1.6936,1.7807,1.8187,1.8473,1.852,1.8851,1.9066,1.9034,1.8956,1.8929,1.8949,1.8523,1.8048,1.7474,1.7237,1.731,1.7383,1.7424,1.7302,1.7057,1.6645,1.6103,1.5591,1.5093,1.5017,1.4948,1.5026,-0.2354,-0.2521,-0.2605,-0.2639,-0.2678,-0.2887,-0.3139,-0.3396,-0.3851,-0.4284,-0.478,-0.4862,-0.5144,-0.5464,-0.5686,-0.571,-0.5748,-0.5652,-0.5091,-0.4581,-0.4162,-0.383,-0.3432,-0.318,-0.318,-0.318,-0.318,-0.318,-0.318,-0.318,-0.318,-0.313,-0.2927,-0.2675,-0.222,-0.1463,-0.0951,-0.0737,-0.0436,-0.0143,-0.0234,-0.0373,-0.0512,-0.0872,-0.1114,-0.1293,-0.1369,-0.1498,-0.158,-0.1575,-0.1615,-0.175,-0.1791,-0.1826,-0.1808,-0.1838,-0.1774,-0.1662,-0.1875,-0.2455,-0.3118,-0.3527,-0.3186,-0.2867,-0.2499,-0.1782,-0.1288,-0.1321,-0.097,-0.0322,0.0375,0.1195,0.258,0.4538,0.6331,0.8182,1.022,1.19,1.2986,1.4034,1.4163,1.4366,1.4942,1.5106,1.5088,1.5134,1.5703,1.6387,1.7047,1.7807,1.8187,1.8465,1.8604,1.9028,1.9396,1.9325,1.9293,1.955,1.9476,1.9114,1.8624,1.8029,1.7613,1.7676,1.7749,1.787,1.7708,1.7424,1.7098,1.6718,1.6031,1.5207,1.5067,1.5033,1.5067,-0.2321,-0.2717,-0.242,-0.2283,-0.2307,-0.2678,-0.2795,-0.295,-0.3649,-0.4279,-0.471,-0.4897,-0.5201,-0.547,-0.5714,-0.5836,-0.5865,-0.5627,-0.5138,-0.463,-0.4185,-0.3718,-0.3381,-0.318,-0.313,-0.318,-0.318,-0.318,-0.318,-0.313,-0.313,-0.3029,-0.2775,-0.2523,-0.227,-0.106,-0.035,-0.0049,0.0196,0.0435,0.0383,0.0048,-0.019,-0.0517,-0.0897,-0.1078,-0.1102,-0.137,-0.1407,-0.1214,-0.1391,-0.148,-0.1524,-0.1503,-0.1573,-0.1735,-0.1302,-0.1112,-0.1101,-0.204,-0.2865,-0.3652,-0.3345,-0.2994,-0.2734,-0.1973,-0.1044,-0.1079,-0.0531,0.0041,0.074,0.1536,0.3142,0.4884,0.6675,0.8517,1.0545,1.245,1.352,1.4409,1.4647,1.4904,1.5665,1.6189,1.6218,1.635,1.6657,1.7063,1.7466,1.7807,1.8234,1.8558,1.8743,1.912,1.9442,1.9579,1.9683,1.9963,1.9922,1.9468,1.905,1.8473,1.8185,1.8062,1.804,1.8072,1.7991,1.7829,1.7463,1.704,1.6044,1.5364,1.5208,1.5134,1.5206,-0.2107,-0.2279,-0.2166,-0.2005,-0.1899,-0.2104,-0.2404,-0.2853,-0.3593,-0.4055,-0.4257,-0.4612,-0.4955,-0.5177,-0.5378,-0.558,-0.5735,-0.5445,-0.4978,-0.4454,-0.4093,-0.3643,-0.3264,-0.3019,-0.2923,-0.2977,-0.3078,-0.3029,-0.2927,-0.2978,-0.2928,-0.2826,-0.2423,-0.1969,-0.1667,-0.0909,-0.0352,-0.015,0.0247,0.0636,0.0535,0.0437,0.024,-0.0141,-0.0617,-0.0799,-0.0731,-0.114,-0.1223,-0.0988,-0.1166,-0.1346,-0.139,-0.1373,-0.1399,-0.1423,-0.105,-0.0802,-0.0752,-0.1252,-0.2201,-0.3053,-0.3461,-0.3178,-0.3389,-0.2104,-0.1316,-0.0629,-0.0083,0.0627,0.1574,0.2048,0.3436,0.5302,0.7138,0.884,1.074,1.2558,1.3969,1.469,1.5076,1.5491,1.6121,1.6723,1.685,1.7037,1.7286,1.7466,1.7854,1.7947,1.8272,1.8643,1.8974,1.925,1.9487,1.9617,1.9845,2.0113,1.9984,1.9554,1.9144,1.8863,1.8512,1.8228,1.8238,1.8233,1.8201,1.8152,1.7827,1.7286,1.6477,1.5777,1.5512,1.5466,1.5498,-0.1907,-0.1986,-0.1886,-0.1736,-0.1635,-0.1724,-0.2167,-0.2823,-0.3339,-0.3666,-0.3967,-0.4259,-0.4581,-0.4835,-0.4993,-0.5228,-0.5534,-0.5203,-0.4783,-0.4231,-0.3973,-0.3515,-0.3106,-0.2844,-0.274,-0.2752,-0.2768,-0.2826,-0.2675,-0.2775,-0.2826,-0.2675,-0.2069,-0.1767,-0.1364,-0.0808,-0.0252,-0.005,0.0399,0.0596,0.0546,0.0494,0.0391,0.0,-0.0381,-0.0568,-0.0689,-0.0906,-0.1129,-0.0944,-0.1031,-0.1301,-0.13,-0.1287,-0.1267,-0.1198,-0.0626,-0.0335,-0.0166,-0.0209,-0.1276,-0.2756,-0.3028,-0.3251,-0.3246,-0.2107,-0.1084,-0.0343,0.0341,0.1285,0.2165,0.2649,0.394,0.5847,0.7472,0.9198,1.0882,1.2756,1.4023,1.4762,1.5282,1.5799,1.639,1.7023,1.7397,1.7643,1.7905,1.8047,1.8202,1.8357,1.8481,1.8827,1.9104,1.9342,1.9571,1.9754,1.9973,2.0246,2.0043,1.9744,1.9495,1.9255,1.8802,1.8447,1.8518,1.8562,1.8584,1.8442,1.8126,1.7753,1.7208,1.6565,1.5983,1.5773,1.5728,-0.1768,-0.192,-0.1718,-0.1615,-0.1609,-0.1681,-0.2081,-0.2761,-0.2769,-0.3184,-0.385,-0.3762,-0.4083,-0.4651,-0.4705,-0.4902,-0.5145,-0.4897,-0.4447,-0.4068,-0.3713,-0.3258,-0.286,-0.2601,-0.2379,-0.2334,-0.2346,-0.2321,-0.237,-0.2359,-0.2511,-0.252,-0.196,-0.1611,-0.121,-0.0909,-0.0353,0.005,0.0351,0.0549,0.0598,0.0499,0.0392,0.0097,-0.024,-0.0473,-0.0648,-0.0915,-0.0908,-0.0857,-0.0942,-0.1031,-0.107,-0.1057,-0.1165,-0.0881,-0.0081,0.0362,0.0569,0.0496,-0.0169,-0.1559,-0.2169,-0.2498,-0.2592,-0.2049,-0.1059,-0.0087,0.0696,0.1738,0.2701,0.3612,0.4545,0.6224,0.7837,0.9486,1.1176,1.2654,1.382,1.4587,1.5068,1.5621,1.6337,1.6954,1.7714,1.8031,1.821,1.8543,1.8675,1.8831,1.8985,1.9104,1.9342,1.9471,1.97,1.9882,2.0065,2.0292,2.0266,2.0035,1.9847,1.9573,1.9144,1.885,1.8878,1.8918,1.8928,1.8732,1.8402,1.802,1.7647,1.7085,1.6425,1.5991,1.584,-0.1667,-0.1718,-0.1617,-0.1604,-0.1634,-0.2016,-0.2297,-0.2476,-0.2782,-0.3146,-0.3288,-0.358,-0.3807,-0.398,-0.4265,-0.4482,-0.4535,-0.4433,-0.4066,-0.3697,-0.3399,-0.2854,-0.2361,-0.2035,-0.18,-0.1703,-0.1709,-0.1713,-0.1558,-0.1698,-0.1797,-0.1813,-0.1545,-0.1348,-0.1357,-0.1313,-0.0657,-0.0101,0.02,0.0349,0.0445,0.0394,0.0339,0.0239,-0.0189,-0.0326,-0.0366,-0.0908,-0.0902,-0.0629,-0.0897,-0.0987,-0.0627,-0.0846,-0.1054,-0.059,0.0203,0.0867,0.1077,0.1193,0.0759,-0.0342,-0.1098,-0.2054,-0.2241,-0.1881,-0.0938,-0.0044,0.1065,0.2087,0.3034,0.3963,0.507,0.654,0.8106,0.9608,1.1225,1.2574,1.3738,1.4653,1.5127,1.5769,1.6446,1.7155,1.7854,1.8202,1.8566,1.8884,1.9078,1.9243,1.935,1.9466,1.9563,1.97,1.9837,2.0065,2.0155,2.0283,2.0266,2.0198,1.9941,1.9641,1.9393,1.921,1.9085,1.9187,1.9344,1.9091,1.8723,1.8434,1.8043,1.7447,1.6911,1.6478,1.6155,-0.1566,-0.1565,-0.1604,-0.1581,-0.1656,-0.2055,-0.2225,-0.2374,-0.2838,-0.3094,-0.3008,-0.3255,-0.3405,-0.3506,-0.3855,-0.4076,-0.4164,-0.4265,-0.4014,-0.3443,-0.3043,-0.2478,-0.1949,-0.1535,-0.1287,-0.1196,-0.1105,-0.1156,-0.0897,-0.0835,-0.0929,-0.1329,-0.1028,-0.1138,-0.1247,-0.1307,-0.101,-0.0503,-0.02,-0.005,0.0,0.0,0.0334,0.0281,-0.0232,-0.0091,-0.0225,-0.0942,-0.0762,-0.0538,-0.0897,-0.0762,-0.0492,-0.0756,-0.0875,-0.0421,0.0326,0.0834,0.1074,0.1396,0.1085,0.051,-0.0306,-0.1114,-0.1524,-0.1389,-0.0762,-0.0045,0.1218,0.2363,0.3296,0.425,0.5553,0.6905,0.8287,0.965,1.1101,1.2479,1.362,1.4637,1.5396,1.6041,1.6716,1.7426,1.7962,1.8233,1.8707,1.9254,1.9439,1.9521,1.9611,1.9679,1.9799,1.9882,2.0019,2.0155,2.0246,2.0337,2.0283,2.018,1.9975,1.9918,1.9834,1.9526,1.9213,1.937,1.9583,1.9378,1.9082,1.8785,1.8576,1.8223,1.7638,1.6931,1.6653,-0.1565,-0.1609,-0.1578,-0.1549,-0.1532,-0.1846,-0.2062,-0.2231,-0.2745,-0.3012,-0.2993,-0.2897,-0.2967,-0.3139,-0.3363,-0.3585,-0.3717,-0.3855,-0.3671,-0.319,-0.28,-0.2193,-0.1532,-0.1151,-0.0882,-0.0791,-0.0646,-0.0497,-0.0293,-0.0144,-0.0238,-0.0763,-0.0872,-0.0882,-0.0888,-0.1204,-0.0959,-0.0404,-0.0453,0.0,0.0,0.0,-0.0097,-0.0189,-0.0139,-0.0091,-0.0631,-0.0807,-0.0538,-0.0673,-0.0628,-0.0583,-0.0491,-0.0441,-0.0518,-0.0295,0.0451,0.0802,0.1116,0.1468,0.141,0.0889,0.0174,-0.0397,-0.0754,-0.1074,-0.0628,0.009,0.127,0.2381,0.3368,0.4373,0.5613,0.6885,0.817,0.9571,1.0974,1.2475,1.3868,1.4832,1.551,1.6109,1.6629,1.7286,1.7846,1.8194,1.8645,1.9278,1.9709,1.9772,1.9924,2.0008,2.0125,2.0208,2.0155,2.0246,2.0292,2.0337,2.0337,2.0402,2.0407,2.0312,2.027,2.0116,1.9953,1.9681,1.9647,1.9552,1.9427,1.9192,1.9024,1.9024,1.8429,1.7614,1.7047,-0.1604,-0.1577,-0.1525,-0.151,-0.1526,-0.1821,-0.1896,-0.1948,-0.2316,-0.2666,-0.2861,-0.2702,-0.2604,-0.2693,-0.2782,-0.3005,-0.3136,-0.3318,-0.3041,-0.2712,-0.2339,-0.1818,-0.1062,-0.0726,-0.0442,-0.0199,0.0,0.0195,0.0384,0.0567,0.0564,0.0095,-0.0096,-0.0097,-0.0392,-0.0799,-0.0656,-0.005,-0.0303,-0.0398,0.0,0.0,-0.0046,-0.0183,-0.0136,-0.0362,-0.0807,-0.1031,-0.0852,-0.0762,-0.0538,-0.0359,-0.0134,0.0044,-0.0172,-0.0295,0.0536,0.0888,0.112,0.1496,0.1681,0.1283,0.0675,0.0258,-0.0175,-0.0578,-0.0404,0.0362,0.1278,0.2443,0.3457,0.454,0.5603,0.6769,0.8042,0.9429,1.0886,1.2555,1.4093,1.4886,1.5611,1.6135,1.6567,1.7099,1.766,1.8055,1.8357,1.8932,1.9629,1.9972,2.0314,2.045,2.0581,2.0614,2.0437,2.0292,2.0337,2.0473,2.0518,2.0645,2.0772,2.0722,2.0703,2.0872,2.0815,2.0398,2.0064,1.9955,1.979,1.9576,1.9429,1.939,1.9061,1.8335,1.7731,-0.1586,-0.1564,-0.1506,-0.1506,-0.1587,-0.1676,-0.1753,-0.1883,-0.2042,-0.2286,-0.2523,-0.2424,-0.2289,-0.2289,-0.2379,-0.2469,-0.2645,-0.2823,-0.2725,-0.2392,-0.1854,-0.1366,-0.0815,-0.0339,-0.0049,0.0245,0.0531,0.0759,0.0892,0.1201,0.1196,0.0932,0.0894,0.0672,0.0243,0.0,0.0,0.0505,0.0151,0.0198,0.0431,0.0424,0.0278,0.0137,-0.0045,-0.0405,-0.0807,-0.1031,-0.0807,-0.0493,-0.0135,0.0045,0.0224,0.0267,0.0087,0.0043,0.0461,0.1104,0.1171,0.1452,0.1954,0.1519,0.1219,0.0779,0.0654,0.031,0.0314,0.1085,0.2135,0.3241,0.3799,0.4745,0.537,0.6322,0.7717,0.9182,1.1072,1.2947,1.4154,1.4934,1.5589,1.6075,1.6494,1.6878,1.7441,1.804,1.8334,1.909,1.9743,2.0096,2.0495,2.0836,2.0887,2.0703,2.0386,2.0292,2.0337,2.0473,2.069,2.088,2.1015,2.1048,2.1096,2.1319,2.1278,2.0857,2.0597,2.0469,2.0241,1.9989,1.9882,1.9784,1.9407,1.904,1.8476,-0.1569,-0.1606,-0.1504,-0.1515,-0.1563,-0.1544,-0.1628,-0.182,-0.1867,-0.1925,-0.2095,-0.2089,-0.1941,-0.202,-0.211,-0.2155,-0.2243,-0.2331,-0.2271,-0.2059,-0.1516,-0.1119,-0.0659,-0.0142,0.0143,0.0521,0.0938,0.1022,0.1151,0.1589,0.1852,0.1858,0.1669,0.1479,0.1158,0.0938,0.0858,0.1059,0.1004,0.0988,0.1018,0.1,0.0609,0.0415,0.0272,-0.018,-0.0673,-0.0852,-0.0628,-0.0224,0.0179,0.0448,0.0448,0.0447,0.0221,0.0173,0.0427,0.0878,0.1071,0.1352,0.168,0.1693,0.1576,0.1472,0.1306,0.1451,0.1469,0.2042,0.3122,0.3696,0.4216,0.4659,0.523,0.5981,0.7464,0.9011,1.1113,1.3097,1.4088,1.4956,1.554,1.6069,1.6447,1.6838,1.7301,1.79,1.8575,1.9439,2.0092,2.0264,2.0565,2.0835,2.1045,2.0763,2.0437,2.0292,2.0337,2.06,2.0826,2.106,2.1329,2.1519,2.1658,2.1763,2.1622,2.1428,2.1154,2.0995,2.0716,2.0457,2.0176,1.999,1.9814,1.9485,1.9109,-0.1557,-0.1484,-0.1261,-0.1327,-0.1566,-0.1565,-0.1611,-0.1661,-0.1659,-0.1638,-0.1653,-0.1644,-0.1672,-0.1795,-0.1615,-0.1662,-0.1894,-0.1934,-0.1885,-0.1758,-0.1227,-0.0919,-0.0509,0.0,0.0186,0.0649,0.1154,0.1468,0.1511,0.1991,0.2294,0.217,0.2199,0.2005,0.1778,0.1624,0.1657,0.1759,0.175,0.1676,0.1639,0.1325,0.0559,0.0274,0.0045,-0.0314,-0.0673,-0.0942,-0.0762,-0.0314,0.0269,0.0673,0.0673,0.0493,0.0178,0.0132,0.0389,0.064,0.0884,0.1335,0.1663,0.2039,0.196,0.2147,0.2248,0.2748,0.2962,0.3409,0.4127,0.4135,0.4514,0.4672,0.5177,0.6112,0.7376,0.9024,1.0895,1.2597,1.3914,1.4848,1.5696,1.6116,1.6588,1.6925,1.7301,1.7807,1.8133,1.9036,2.0228,2.0436,2.057,2.0906,2.1191,2.1049,2.08,2.0423,2.0382,2.0645,2.1006,2.1329,2.1731,2.2113,2.228,2.2312,2.2323,2.2204,2.1926,2.1535,2.1254,2.0973,2.0516,2.0235,2.0088,1.9893,1.9524]}]]